[[{"header":{"parameterUnit":"m.s-1","parameterCategory":1,"la1":30.6,"la2":29.2853,"lo1":-89.7004,"lo2":-87.6739,"dy":0.0162,"dx":0.0183,"nx":112,"ny":82,"refTime":"2024-04-02T18:00:00:Z","depth":0,"parameterNumber":2,"parameterNumberName":"U-component_of_WINDS"},"data":[0.0,0.0,0.0,0.0,0.0,0.0,0.0,0.0,0.0,0.0,0.0,0.0,0.0,0.0,0.0,0.0,0.0,0.0,0.0,0.0,0.0,0.0,0.0,0.0,0.0,0.0,0.0,0.0,0.0,0.0,0.0,0.0,0.0,0.0,0.0,0.0,0.0,0.0,0.0,0.0,0.0,0.0,0.0,0.0,0.0,0.0,0.0,0.0,0.0,0.0,0.0,0.0,0.0,0.0,0.0,0.0,0.0,0.0,0.0,0.0,0.0,0.0,0.0,0.0,0.0,0.0,0.0,0.0,0.0,0.0,0.0,0.0,0.0,0.0,0.0,0.0,0.0,0.0,0.0,0.0,0.0,0.0,0.0,0.0,0.0,0.0,0.0,0.0,0.0,0.0,-6.9957,-7.3523,-8.2664,-8.9564,-9.1987,-9.3749,-9.2391,-8.6885,0.0,0.0,0.0,0.0,0.0,0.0,0.0,0.0,0.0,0.0,0.0,0.0,0.0,0.0,0.0,0.0,0.0,0.0,0.0,0.0,0.0,0.0,0.0,0.0,0.0,0.0,0.0,0.0,0.0,0.0,0.0,0.0,0.0,0.0,0.0,0.0,0.0,0.0,0.0,0.0,0.0,0.0,0.0,0.0,0.0,0.0,0.0,0.0,0.0,0.0,0.0,0.0,0.0,0.0,0.0,0.0,0.0,0.0,0.0,0.0,0.0,0.0,0.0,0.0,0.0,0.0,0.0,0.0,0.0,0.0,0.0,0.0,0.0,0.0,0.0,0.0,0.0,0.0,0.0,0.0,0.0,0.0,0.0,0.0,0.0,0.0,0.0,0.0,0.0,0.0,0.0,0.0,0.0,0.0,0.0,0.0,0.0,0.0,0.0,0.0,0.0,0.0,0.0,0.0,-7.1713,-7.9808,-8.6412,-9.1253,-9.3712,-9.2354,-9.0922,-8.9931,0.0,0.0,0.0,0.0,0.0,0.0,0.0,0.0,0.0,0.0,0.0,0.0,0.0,0.0,0.0,0.0,0.0,0.0,0.0,0.0,0.0,0.0,0.0,0.0,0.0,0.0,0.0,0.0,0.0,0.0,0.0,0.0,0.0,0.0,0.0,0.0,0.0,0.0,0.0,0.0,0.0,0.0,0.0,0.0,0.0,0.0,0.0,0.0,0.0,0.0,0.0,0.0,0.0,0.0,0.0,0.0,0.0,0.0,0.0,0.0,0.0,0.0,0.0,0.0,0.0,0.0,0.0,0.0,0.0,0.0,0.0,0.0,0.0,0.0,0.0,0.0,0.0,0.0,0.0,0.0,0.0,0.0,0.0,0.0,0.0,0.0,0.0,0.0,0.0,0.0,0.0,0.0,0.0,0.0,0.0,0.0,0.0,0.0,0.0,0.0,0.0,0.0,0.0,-7.3324,-7.6614,-8.3441,-8.8023,-9.1436,-9.3492,-9.2611,-9.1583,-9.0665,-9.1689,0.0,0.0,0.0,0.0,0.0,0.0,0.0,0.0,0.0,0.0,0.0,0.0,0.0,0.0,0.0,0.0,0.0,0.0,0.0,0.0,0.0,0.0,0.0,0.0,0.0,0.0,0.0,0.0,0.0,0.0,0.0,0.0,0.0,0.0,0.0,0.0,0.0,0.0,0.0,0.0,0.0,0.0,0.0,0.0,0.0,0.0,0.0,0.0,0.0,0.0,0.0,0.0,0.0,0.0,0.0,0.0,0.0,0.0,0.0,0.0,0.0,0.0,0.0,0.0,0.0,0.0,0.0,0.0,0.0,0.0,0.0,0.0,0.0,0.0,0.0,0.0,0.0,0.0,0.0,0.0,0.0,0.0,0.0,0.0,0.0,0.0,0.0,0.0,0.0,0.0,0.0,0.0,0.0,0.0,0.0,0.0,0.0,0.0,0.0,0.0,0.0,0.0,-7.7543,-8.0865,-8.5306,-8.8867,-9.1546,-9.3235,-9.2684,-9.195,-9.1253,-9.184,0.0,0.0,0.0,0.0,0.0,0.0,0.0,0.0,0.0,0.0,0.0,0.0,0.0,0.0,0.0,0.0,0.0,0.0,0.0,0.0,0.0,0.0,0.0,0.0,0.0,0.0,0.0,0.0,0.0,0.0,0.0,0.0,0.0,0.0,0.0,0.0,0.0,0.0,0.0,0.0,0.0,0.0,0.0,0.0,0.0,0.0,0.0,0.0,0.0,0.0,0.0,0.0,0.0,0.0,0.0,0.0,0.0,0.0,0.0,0.0,0.0,0.0,0.0,0.0,0.0,0.0,0.0,0.0,0.0,0.0,0.0,0.0,0.0,0.0,0.0,0.0,0.0,0.0,0.0,0.0,0.0,0.0,0.0,0.0,0.0,0.0,0.0,0.0,0.0,0.0,0.0,0.0,0.0,0.0,0.0,0.0,0.0,0.0,0.0,0.0,0.0,0.0,-7.8195,-8.2113,-8.5416,-8.9344,-9.2391,-9.4079,-9.1436,-9.0592,-9.2794,-9.0886,0.0,0.0,0.0,0.0,0.0,0.0,0.0,0.0,0.0,0.0,0.0,0.0,0.0,0.0,0.0,0.0,0.0,0.0,0.0,0.0,0.0,0.0,0.0,0.0,0.0,0.0,0.0,0.0,0.0,0.0,0.0,0.0,0.0,0.0,0.0,0.0,0.0,0.0,0.0,0.0,0.0,0.0,0.0,0.0,0.0,0.0,0.0,0.0,0.0,0.0,0.0,0.0,0.0,0.0,0.0,0.0,0.0,0.0,0.0,0.0,0.0,0.0,0.0,0.0,0.0,0.0,0.0,0.0,0.0,0.0,0.0,0.0,0.0,0.0,0.0,0.0,0.0,0.0,0.0,0.0,0.0,0.0,0.0,0.0,0.0,0.0,0.0,0.0,0.0,0.0,0.0,0.0,0.0,0.0,0.0,0.0,0.0,0.0,0.0,0.0,0.0,0.0,-8.044,-8.4278,-8.6995,-9.0005,-9.2281,-9.3455,-9.2427,-9.2134,-9.3051,0.0,0.0,0.0,0.0,0.0,0.0,0.0,0.0,0.0,0.0,0.0,0.0,0.0,0.0,0.0,0.0,0.0,0.0,0.0,0.0,0.0,0.0,0.0,0.0,0.0,0.0,0.0,0.0,0.0,0.0,0.0,0.0,0.0,0.0,0.0,0.0,0.0,0.0,0.0,0.0,0.0,0.0,0.0,0.0,0.0,0.0,0.0,0.0,0.0,0.0,0.0,0.0,0.0,0.0,0.0,0.0,0.0,0.0,0.0,0.0,0.0,0.0,0.0,0.0,0.0,0.0,0.0,0.0,0.0,0.0,0.0,0.0,0.0,0.0,0.0,0.0,0.0,0.0,0.0,0.0,0.0,0.0,0.0,0.0,0.0,0.0,0.0,0.0,0.0,0.0,0.0,0.0,0.0,0.0,0.0,0.0,0.0,0.0,0.0,0.0,0.0,0.0,-7.7866,-8.1708,-8.5343,-8.828,-9.0776,-9.2464,-9.3051,-9.2134,-9.1877,-9.2648,0.0,0.0,0.0,0.0,0.0,0.0,0.0,0.0,0.0,0.0,0.0,0.0,0.0,0.0,0.0,0.0,0.0,0.0,0.0,0.0,0.0,0.0,0.0,0.0,0.0,0.0,0.0,0.0,0.0,0.0,0.0,0.0,0.0,0.0,0.0,0.0,0.0,0.0,0.0,0.0,0.0,0.0,0.0,0.0,0.0,0.0,0.0,0.0,0.0,0.0,0.0,0.0,0.0,0.0,0.0,0.0,0.0,0.0,0.0,0.0,0.0,0.0,0.0,0.0,0.0,0.0,0.0,0.0,0.0,0.0,0.0,0.0,0.0,0.0,0.0,0.0,0.0,0.0,0.0,0.0,0.0,0.0,0.0,0.0,0.0,0.0,0.0,0.0,0.0,0.0,0.0,0.0,0.0,0.0,0.0,0.0,0.0,0.0,0.0,0.0,0.0,0.0,-7.8611,-8.1599,-8.4976,-8.9014,-9.162,-9.3088,-9.3088,-9.0078,-8.9234,0.0,0.0,0.0,0.0,0.0,0.0,0.0,0.0,0.0,0.0,0.0,0.0,0.0,0.0,0.0,0.0,0.0,0.0,0.0,0.0,0.0,0.0,0.0,0.0,0.0,0.0,0.0,0.0,0.0,0.0,0.0,0.0,0.0,0.0,0.0,0.0,0.0,0.0,0.0,0.0,0.0,0.0,0.0,0.0,0.0,0.0,0.0,0.0,0.0,0.0,0.0,0.0,0.0,0.0,0.0,0.0,0.0,0.0,0.0,0.0,0.0,0.0,0.0,0.0,0.0,0.0,0.0,0.0,0.0,0.0,0.0,0.0,0.0,0.0,0.0,0.0,0.0,0.0,0.0,0.0,0.0,0.0,0.0,0.0,0.0,0.0,0.0,0.0,0.0,0.0,0.0,0.0,0.0,0.0,0.0,0.0,0.0,0.0,0.0,0.0,0.0,0.0,0.0,-7.9462,-8.2505,-8.5783,-8.9821,-9.14,-9.217,-9.217,-9.0262,-8.9381,-9.0078,0.0,0.0,0.0,0.0,0.0,0.0,0.0,0.0,0.0,0.0,0.0,0.0,0.0,0.0,0.0,0.0,0.0,0.0,0.0,0.0,0.0,0.0,0.0,0.0,0.0,0.0,0.0,0.0,0.0,0.0,0.0,0.0,0.0,0.0,0.0,0.0,0.0,0.0,0.0,0.0,0.0,0.0,0.0,0.0,0.0,0.0,0.0,0.0,0.0,0.0,0.0,0.0,0.0,0.0,0.0,0.0,0.0,0.0,0.0,0.0,0.0,0.0,0.0,0.0,0.0,0.0,0.0,0.0,0.0,0.0,0.0,0.0,0.0,0.0,0.0,0.0,0.0,0.0,0.0,0.0,0.0,0.0,0.0,0.0,0.0,0.0,0.0,0.0,0.0,0.0,0.0,0.0,0.0,0.0,0.0,0.0,0.0,0.0,0.0,0.0,0.0,0.0,-8.0323,-8.3085,-8.6261,-9.0629,-9.1803,-9.217,-9.184,-9.0629,-8.9491,-8.85,0.0,0.0,0.0,0.0,0.0,0.0,0.0,0.0,0.0,0.0,0.0,0.0,0.0,0.0,0.0,0.0,0.0,0.0,0.0,0.0,0.0,0.0,0.0,0.0,0.0,0.0,0.0,0.0,0.0,0.0,0.0,0.0,0.0,0.0,0.0,0.0,0.0,0.0,0.0,0.0,0.0,0.0,0.0,0.0,0.0,0.0,0.0,0.0,0.0,0.0,0.0,0.0,0.0,0.0,0.0,0.0,0.0,0.0,0.0,0.0,0.0,0.0,0.0,0.0,0.0,0.0,0.0,0.0,0.0,0.0,0.0,0.0,0.0,0.0,0.0,0.0,0.0,0.0,0.0,0.0,0.0,0.0,0.0,0.0,0.0,0.0,0.0,0.0,0.0,0.0,0.0,0.0,0.0,0.0,0.0,0.0,0.0,0.0,0.0,0.0,0.0,0.0,-8.0962,-8.3375,-8.6444,-9.1289,-9.2501,-9.2648,-9.1877,-9.0922,-8.9381,-8.7031,0.0,0.0,0.0,0.0,0.0,0.0,0.0,0.0,0.0,0.0,0.0,0.0,0.0,0.0,0.0,0.0,0.0,0.0,0.0,0.0,0.0,0.0,0.0,0.0,0.0,0.0,0.0,0.0,0.0,0.0,0.0,0.0,0.0,0.0,0.0,0.0,0.0,0.0,0.0,0.0,0.0,0.0,0.0,0.0,0.0,0.0,0.0,0.0,0.0,0.0,0.0,0.0,0.0,0.0,0.0,0.0,0.0,0.0,0.0,0.0,-6.222,-6.4447,0.0,0.0,0.0,0.0,0.0,0.0,0.0,0.0,0.0,0.0,0.0,0.0,0.0,0.0,0.0,0.0,0.0,0.0,0.0,0.0,0.0,0.0,0.0,0.0,0.0,0.0,0.0,0.0,0.0,0.0,0.0,0.0,0.0,0.0,0.0,0.0,0.0,0.0,0.0,0.0,-8.0962,-8.3375,-8.6444,-9.1289,-9.195,-9.1987,-9.1803,-8.9895,-8.7949,-8.6151,-8.5637,0.0,0.0,0.0,0.0,0.0,0.0,0.0,0.0,0.0,0.0,0.0,0.0,0.0,0.0,0.0,0.0,0.0,0.0,0.0,0.0,0.0,0.0,0.0,0.0,0.0,0.0,0.0,0.0,0.0,0.0,0.0,0.0,0.0,0.0,0.0,0.0,0.0,0.0,0.0,0.0,0.0,0.0,0.0,0.0,0.0,0.0,0.0,0.0,0.0,0.0,0.0,0.0,0.0,0.0,0.0,0.0,0.0,0.0,0.0,-6.6377,-6.6738,0.0,0.0,0.0,0.0,0.0,0.0,0.0,0.0,0.0,0.0,0.0,0.0,0.0,0.0,0.0,0.0,0.0,0.0,0.0,0.0,0.0,0.0,0.0,0.0,0.0,0.0,0.0,0.0,0.0,0.0,0.0,0.0,0.0,0.0,0.0,0.0,0.0,0.0,0.0,0.0,-8.2213,-8.3846,-8.6444,-9.1289,-9.1803,-9.1803,-9.1803,-8.9931,-8.7949,-8.593,-8.5049,0.0,0.0,0.0,0.0,0.0,0.0,0.0,0.0,0.0,0.0,0.0,0.0,0.0,0.0,0.0,0.0,0.0,0.0,0.0,0.0,0.0,0.0,0.0,0.0,0.0,0.0,0.0,0.0,0.0,0.0,0.0,0.0,0.0,0.0,0.0,0.0,0.0,0.0,0.0,0.0,0.0,0.0,0.0,0.0,0.0,0.0,0.0,0.0,0.0,0.0,0.0,0.0,0.0,-7.0007,-7.2157,-7.3037,-7.527,-7.5303,-7.351,-7.2394,-7.0703,-6.8842,-7.1109,0.0,0.0,0.0,0.0,0.0,0.0,0.0,0.0,0.0,0.0,0.0,0.0,0.0,0.0,0.0,0.0,0.0,0.0,0.0,0.0,0.0,0.0,-7.2282,-7.4364,-7.5853,-7.5794,-7.2467,0.0,0.0,0.0,0.0,0.0,0.0,0.0,0.0,0.0,0.0,0.0,-8.319,-8.4277,-8.6407,-9.1106,-9.1583,-9.1583,-9.1583,-9.0115,-8.8169,-8.5747,-8.4682,-8.3508,0.0,0.0,0.0,0.0,0.0,0.0,0.0,0.0,0.0,0.0,0.0,0.0,0.0,0.0,0.0,0.0,0.0,0.0,0.0,0.0,0.0,0.0,0.0,0.0,0.0,0.0,0.0,0.0,0.0,0.0,0.0,0.0,-3.9157,-3.9976,0.0,0.0,0.0,0.0,0.0,0.0,0.0,0.0,0.0,0.0,0.0,0.0,0.0,-6.2377,-6.3913,-6.9142,-7.1367,-7.0591,-7.5512,-7.6995,-7.5337,-7.7638,-7.8483,-7.8247,-7.8686,0.0,-7.1751,-7.0838,0.0,0.0,0.0,0.0,0.0,0.0,0.0,0.0,0.0,0.0,0.0,0.0,0.0,0.0,0.0,0.0,0.0,0.0,0.0,0.0,0.0,0.0,-7.3651,-7.5724,-7.732,-7.8328,-7.8095,-7.8538,-7.8237,-7.5437,-7.5546,-7.5944,0.0,0.0,0.0,0.0,0.0,0.0,-8.1635,-8.3584,-8.6187,-9.0335,-9.0776,-9.0776,-9.0776,-8.9271,-8.7325,-8.4903,-8.3361,-8.2113,-8.1195,-8.0498,0.0,0.0,0.0,0.0,0.0,0.0,0.0,0.0,0.0,0.0,0.0,0.0,0.0,0.0,0.0,0.0,0.0,0.0,0.0,0.0,0.0,0.0,0.0,0.0,0.0,0.0,0.0,0.0,0.0,-4.076,-4.2268,-4.0914,-4.485,-4.7259,0.0,0.0,0.0,0.0,0.0,0.0,0.0,0.0,0.0,-5.8871,-6.3244,-6.6556,-6.8663,-7.2717,-7.5067,-7.5743,-7.9295,-8.0648,-8.0141,-8.2441,-8.3253,-8.2915,-8.3659,-8.1934,-7.8416,-7.5676,-7.4187,-7.3477,0.0,0.0,0.0,0.0,-7.2766,-7.3916,-7.4864,-7.5202,-7.5202,-7.5202,0.0,0.0,0.0,0.0,0.0,0.0,0.0,-7.1345,-7.1413,-7.3549,-7.6149,-7.7856,-8.0063,-8.1845,-8.1962,-8.1744,-8.0648,-7.702,-7.8017,-7.8966,-7.7507,-7.6502,0.0,0.0,0.0,-7.8267,-8.2855,-8.3746,-8.549,-8.9528,-8.9528,-8.9234,-8.9234,-8.7766,-8.6004,-8.4058,-8.2406,-8.0975,-7.969,-7.9727,-8.0828,0.0,0.0,0.0,0.0,0.0,0.0,0.0,0.0,0.0,0.0,0.0,0.0,0.0,0.0,0.0,0.0,0.0,0.0,0.0,0.0,0.0,0.0,0.0,0.0,0.0,0.0,0.0,0.0,-4.2481,-4.4443,-4.1851,-4.6756,-4.9284,0.0,0.0,0.0,0.0,0.0,0.0,-5.5115,-5.8049,-6.0995,-6.3897,-6.8253,-7.1419,-7.3578,-7.6318,-7.8551,-8.0242,-8.2306,-8.3659,-8.4437,-8.6332,-8.6974,-8.6636,-8.6839,-8.596,-8.4065,-8.0175,-7.7435,-7.5608,-7.3916,-7.3138,-7.3138,-7.4018,-7.5168,-7.6487,-7.801,-7.8416,-7.8077,-7.7164,-7.5845,-7.4052,-7.0906,0.0,0.0,0.0,0.0,-7.2022,-7.2766,-7.5365,-7.824,-8.0333,-8.2821,-8.4813,-8.5076,-8.4749,-8.3014,-7.8613,-7.9669,-8.0718,-7.8919,-7.7892,0.0,-7.925,-7.8442,-7.9103,-8.3177,-8.3544,-8.4719,-8.8133,-8.7766,-8.7288,-8.7288,-8.5783,-8.4278,-8.2884,-8.1489,-8.0057,-7.8662,-7.8956,-7.9653,-8.0681,0.0,0.0,0.0,0.0,0.0,0.0,0.0,0.0,0.0,0.0,0.0,0.0,0.0,0.0,0.0,0.0,0.0,0.0,0.0,0.0,0.0,0.0,0.0,0.0,0.0,0.0,0.0,0.0,0.0,-4.2158,-4.8443,0.0,0.0,0.0,0.0,-5.2037,-5.3832,-5.6728,-6.0757,-6.4107,-6.7912,-7.2085,-7.6274,-7.8857,-7.9735,-8.1968,-8.3152,-8.3287,-8.4877,-8.6027,-8.6771,-8.7583,-8.8294,-8.8835,-8.7482,-8.6839,-8.6399,-8.1934,-7.96,-7.8653,-7.642,-7.642,-7.757,-7.6961,-7.7198,-7.7773,-7.7198,-7.6521,-7.6318,-7.9092,-7.8957,-7.7063,-7.3341,-7.2699,0.0,0.0,-7.2293,-7.3544,-7.4289,-7.6531,-7.9355,-8.2693,-8.4952,-8.6706,-8.774,-8.7329,-8.5416,-8.058,-7.9213,-7.8736,-7.8626,0.0,-7.7635,-7.8516,-7.8589,-7.9176,-8.0938,-8.248,-8.4058,-8.5783,-8.527,-8.4792,-8.4792,-8.3324,-8.2003,-8.1158,-8.0314,-7.947,-7.8626,-7.7855,-7.8185,-7.98,-7.991,0.0,0.0,0.0,0.0,0.0,0.0,0.0,0.0,0.0,0.0,0.0,0.0,0.0,0.0,0.0,0.0,0.0,0.0,0.0,0.0,0.0,0.0,0.0,0.0,0.0,0.0,0.0,0.0,-4.7912,-5.2586,0.0,-5.3174,-5.4072,-5.5269,-5.6555,-5.8112,-6.0516,-6.4205,-6.8201,-7.166,-7.4626,-7.8908,-8.1596,-8.2306,-8.3592,-8.4234,-8.4234,-8.5283,-8.6196,-8.6941,-8.7651,-8.8395,-8.9038,-8.8023,-8.7347,-8.6738,-8.464,-8.2475,-8.0344,-7.8585,-7.7942,-7.801,-7.8247,-7.8788,-7.9431,-7.9634,-7.9532,-7.916,-7.8348,-7.6724,-7.483,-7.351,-7.3274,-7.3477,-7.3443,-7.4153,-7.5202,-7.6454,-7.8936,-8.1676,-8.3904,-8.5621,-8.7048,-8.7989,-8.7142,-8.5416,-8.2663,-8.1452,-8.0571,-7.9543,-7.8699,-7.8259,-7.8552,-7.8112,-7.8369,-8.0021,-8.1195,-8.226,-8.3361,-8.3214,-8.2847,-8.2333,-8.1269,-8.0314,-7.9507,-7.9176,-7.8662,-7.7818,-7.7488,-7.7855,-7.8993,-7.9029,-8.0204,0.0,0.0,0.0,0.0,0.0,0.0,0.0,0.0,0.0,0.0,0.0,0.0,0.0,0.0,0.0,0.0,0.0,0.0,0.0,0.0,0.0,0.0,0.0,0.0,0.0,-4.8324,-5.1991,-5.2836,-5.6822,-5.883,-5.7304,-5.8171,-5.9368,-6.0655,-6.2421,-6.4781,-6.7971,-7.2055,-7.5394,-7.7495,-8.1209,-8.3389,-8.3862,-8.437,-8.464,-8.464,-8.5148,-8.579,-8.6535,-8.7042,-8.7651,-8.8294,-8.7583,-8.6974,-8.6467,-8.5723,-8.4234,-8.2306,-8.1359,-8.0682,-8.0276,-8.0784,-8.1291,-8.1697,-8.1663,-8.1494,-8.0885,-7.845,-7.6623,-7.5303,-7.4796,-7.4627,-7.4728,-7.5236,-7.5912,-7.6758,-7.8044,-8.0593,-8.309,-8.4117,-8.5752,-8.7142,-8.7692,-8.6958,-8.582,-8.4462,-8.3324,-8.2003,-8.0094,-7.958,-7.9396,-7.9396,-7.8699,-7.8736,-8.0388,-8.0828,-8.1195,-8.1746,-8.1525,-8.1048,-8.0277,-7.9433,-7.8736,-7.8222,-7.8185,-7.7928,-7.7341,-7.7598,-7.8002,-7.8589,-7.8589,-7.9653,-8.1782,0.0,0.0,0.0,0.0,0.0,0.0,0.0,0.0,0.0,0.0,0.0,0.0,0.0,0.0,0.0,0.0,0.0,0.0,0.0,0.0,0.0,0.0,0.0,-4.6339,-5.2178,-5.6289,-5.6392,-6.0924,-6.281,-5.9668,-6.2241,-6.4126,-6.4186,-6.658,-6.9332,-7.2331,-7.5895,-7.8869,-8.0997,-8.3415,-8.464,-8.464,-8.464,-8.464,-8.464,-8.464,-8.5046,-8.579,-8.5824,-8.623,-8.6873,-8.6095,-8.579,-8.5723,-8.4945,-8.4606,-8.4606,-8.4606,-8.4606,-8.4573,-8.4539,-8.4505,-8.4268,-8.2881,-8.1866,-8.1021,-7.9634,-7.916,-7.8889,-7.7435,-7.6995,-7.6995,-7.6995,-7.7536,-7.8345,-7.9056,-8.1482,-8.3706,-8.3706,-8.5391,-8.6995,-8.6995,-8.6958,-8.6738,-8.5894,-8.4499,-8.27,-8.0277,-8.0498,-8.1012,-8.0975,-8.0277,0.0,-8.1893,-8.1415,-8.0938,-8.0975,-8.0277,-7.947,-7.8699,-7.7855,-7.7341,-7.7304,-7.7304,-7.7304,-7.7304,-7.8112,-7.8552,-7.8589,-7.8662,-7.9433,-8.1048,0.0,0.0,0.0,0.0,0.0,0.0,0.0,0.0,0.0,0.0,0.0,0.0,0.0,0.0,0.0,0.0,0.0,0.0,0.0,0.0,0.0,-4.6587,-4.9536,-5.0572,-5.4655,-5.8357,-6.0266,-6.3408,-6.5293,-6.4874,-6.6071,-6.7268,-6.8226,-6.9423,-7.1571,-7.5089,-7.7263,-7.958,-8.1787,-8.3683,-8.464,-8.464,-8.464,-8.464,-8.464,-8.5182,-8.5587,-8.579,-8.6332,-8.6704,-8.6873,-8.6095,-8.579,-8.5723,-8.4945,-8.4302,-8.3795,-8.3795,-8.3795,-8.3659,-8.2611,-8.1866,-8.1426,-8.1562,-8.1122,-8.0513,-8.0648,-8.031,-7.9837,-7.9431,-7.9295,-7.9295,-7.9295,-8.0429,-8.1612,-8.1267,-8.3437,-8.5606,-8.4996,-8.5991,-8.6848,-8.6261,-8.6114,-8.571,-8.4352,-8.4168,-8.3691,-8.1856,-8.1232,-8.0791,-8.0204,-7.9433,-7.9103,-7.9543,-7.9396,-7.947,-8.0057,-7.991,-7.969,-7.947,-7.8699,-7.7965,-7.7378,-7.7304,-7.7304,-7.7304,-7.7561,-7.7965,-7.8589,-7.9764,-8.0865,0.0,0.0,0.0,0.0,0.0,0.0,0.0,0.0,0.0,0.0,0.0,0.0,0.0,0.0,0.0,0.0,0.0,0.0,0.0,0.0,0.0,0.0,-5.0918,-5.4235,-5.6153,-5.8575,-6.1194,-6.3827,-6.5981,-6.7508,-6.8196,-6.9064,-6.9931,-7.0679,-7.1607,-7.3386,-7.6077,-7.8149,-8.0194,-8.2083,-8.3784,-8.464,-8.464,-8.464,-8.464,-8.464,-8.508,-8.5317,-8.5317,-8.5757,-8.596,-8.5926,-8.5486,-8.5114,-8.4776,-8.4336,-8.3727,-8.3084,0.0,0.0,0.0,0.0,-8.1291,-8.0716,-8.1122,-8.0818,-8.0276,-8.0682,-8.0547,-8.0209,-8.0209,-7.9972,-7.9735,-7.9735,-8.0569,-8.1318,-8.0997,-8.3101,-8.5195,-8.4912,-8.5664,-8.6371,-8.5894,-8.5527,-8.5013,-8.4095,-8.3728,0.0,-8.281,-8.2039,-8.1342,-8.0865,-7.9543,-7.8846,-7.9507,-7.9029,-7.8772,-7.925,-7.9286,-7.914,-7.8772,-7.8332,0.0,0.0,0.0,-7.7488,-7.7855,-7.7855,0.0,0.0,0.0,-8.0901,-8.1709,-8.2186,0.0,0.0,-8.3361,-8.3728,0.0,0.0,0.0,0.0,0.0,0.0,0.0,0.0,0.0,0.0,0.0,0.0,0.0,0.0,0.0,0.0,-5.5167,-5.832,-6.2037,-6.3049,-6.4306,-6.67,-6.8166,-6.9243,-6.9901,-7.1068,-7.1846,-7.1996,-7.337,-7.48,-7.6646,-7.8808,0.0,0.0,0.0,-8.464,-8.464,-8.464,-8.464,-8.464,-8.4708,-8.4708,-8.464,-8.4708,-8.4708,-8.464,-8.464,-8.42,-8.349,-8.349,-8.3016,-8.234,-8.2983,-8.2813,-8.2171,-8.2171,-8.1731,-8.1156,-8.1156,0.0,0.0,-8.0209,-8.0209,-8.0175,-8.0107,-7.9634,-7.9092,-7.9025,-7.9223,-7.9542,-7.9775,-8.1734,-8.3804,-8.4083,-8.4827,-8.5427,-8.5416,-8.4829,-8.4278,-8.4095,-8.292,-8.215,-8.2884,-8.2406,-8.1966,-8.2039,-8.0094,-7.9103,-8.0571,-7.9396,-7.8516,-7.8699,-7.8662,0.0,-7.7671,-7.7524,-7.7414,-7.7341,-7.7304,-7.7671,-7.8405,-7.8442,-7.8846,-7.9653,-7.9653,-8.0094,-8.1012,-8.1012,-8.1415,-8.2223,-8.3765,-8.4022,0.0,0.0,0.0,0.0,0.0,0.0,0.0,0.0,0.0,0.0,0.0,0.0,0.0,0.0,0.0,-5.4815,-5.8195,-6.1386,-6.4814,-6.5353,-6.5832,-6.6879,-6.8166,-6.9243,-6.9901,-7.0649,-7.1547,-7.2624,-7.415,-7.6242,-7.8935,-8.0788,-8.2458,-8.4143,-8.4392,-8.464,-8.464,-8.464,-8.464,-8.464,-8.5249,0.0,-8.464,-8.5283,-8.5215,-8.464,-8.464,-8.42,-8.349,-8.349,-8.2712,-8.1528,-8.1663,-8.1257,-8.0615,-8.0615,-8.0547,-8.0412,-8.0412,-8.031,-8.0209,-8.0209,-8.0209,-8.0073,-7.9498,-7.9228,0.0,-7.8382,-7.9982,-8.168,-8.1077,-8.2486,-8.4159,-8.4457,-8.399,-8.3375,-8.3008,-8.2774,-8.226,-8.0975,-8.0461,-8.0314,-8.0461,-8.0351,-8.0461,-8.1122,-7.9727,-7.8699,-7.9029,-7.8185,-7.8075,-7.9396,-7.8993,-7.8772,-7.9286,-7.8736,-7.8075,-7.7378,-7.7304,-7.7414,-7.7561,-7.7561,-7.7965,-7.8809,-7.8809,-7.9543,-8.1012,-8.1012,-8.1415,-8.2223,-8.3177,-8.3214,0.0,0.0,0.0,0.0,0.0,0.0,0.0,0.0,0.0,0.0,0.0,-4.3887,-4.6916,0.0,-5.4495,-5.8173,-6.1451,-6.4036,-6.5323,-6.6071,-6.6759,-6.7418,-6.8375,-6.9243,-6.9901,-7.1843,-7.3001,-7.2864,-7.583,-7.8213,-7.9771,-8.1388,-8.2942,-8.45,-8.464,-8.464,-8.464,-8.464,-8.464,-8.464,-8.5012,-8.5012,-8.464,-8.5046,-8.4979,-8.464,-8.464,-8.3998,-8.2881,-8.2137,-8.1393,-8.075,-8.075,-8.0513,-8.0209,-8.0209,-8.0209,-8.0209,-8.0209,-7.9972,-7.9667,-7.9667,-7.9397,-7.9025,-7.8653,-7.8551,-7.8382,-7.7638,-7.9235,-8.0788,-7.9597,-8.1001,-8.2571,-8.1956,-8.1851,-8.1599,-8.0972,-8.0971,-8.0755,-7.9947,-7.947,-7.9323,-7.9727,-7.9103,-7.8846,-7.9653,-7.8736,-7.7965,-7.7965,-7.7598,-7.7635,-7.8479,-7.8185,-7.8112,-7.8516,-7.8185,-7.7781,-7.7341,-7.7304,-7.7304,-7.7304,-7.7304,-7.7708,-7.8589,-7.8993,-7.98,-8.1012,-8.1415,-8.1819,-8.2186,-8.2627,-8.259,0.0,0.0,0.0,0.0,0.0,0.0,0.0,-3.9044,-4.03,-4.1957,-4.424,-4.7082,-5.0934,-5.4911,-5.8512,-6.1208,-6.4006,-6.5712,-6.5443,-6.6311,-6.7148,-6.7537,-6.8315,-6.9123,-6.9901,-7.2915,-7.4211,-7.2817,-7.7089,-7.9814,-7.9579,-8.1523,-8.331,-8.45,-8.464,-8.464,-8.464,-8.464,-8.464,-8.464,-8.464,-8.464,-8.464,-8.464,-8.464,-8.4606,-8.4471,-8.3727,-8.2509,-8.1021,-8.0412,-8.0412,-8.0242,-8.0209,-8.0209,-8.0209,-8.0107,-8.0006,-8.0006,-7.9498,-7.8889,-7.8889,-7.8483,-7.7942,-7.7807,-7.7773,-7.7638,-7.6893,-7.7716,-7.8687,-7.7702,-7.8756,-7.9917,-7.9159,-7.9415,-7.9683,-7.9107,-7.9288,-7.9507,-7.9323,-7.8772,-7.8552,-7.9176,-7.8185,-7.7598,-7.8479,-7.7855,-7.7304,-7.7304,-7.7304,-7.7304,-7.7304,-7.7304,-7.7304,-7.7304,-7.7304,-7.7304,-7.7304,-7.7304,-7.7304,-7.7304,-7.7304,-7.7708,-7.8589,-7.9213,-8.0021,-8.1012,-8.1636,-8.2039,-8.2186,-8.2186,-8.2186,-2.9141,-2.9333,-3.0391,-3.3608,-3.4878,-3.6699,0.0,-4.3125,-4.374,-4.5422,-4.8325,-5.1121,-5.3088,-5.6392,-5.9772,-6.3116,-6.4485,-6.5533,-6.661,-6.6909,-6.6819,-6.6281,-6.7328,-6.8585,-6.9871,-7.1535,-7.2521,-7.2038,-7.6959,-7.9725,-7.8931,-8.232,-8.4392,-8.4606,-8.464,-8.464,-8.464,-8.464,-8.464,-8.464,-8.464,-8.464,-8.464,-8.464,-8.464,-8.4573,-8.393,-8.3524,-8.3253,-8.1765,-8.1156,-8.1088,-8.0445,-8.0209,-8.0209,-8.0209,-7.9803,-7.9228,-7.9228,-7.8754,-7.8111,-7.8111,-7.8044,-7.7874,-7.7232,-7.7029,-7.686,-7.6048,-7.6234,-7.6764,-7.7509,-7.676,-7.6257,-7.7916,-7.7658,-7.7108,-7.727,-7.8049,-7.8516,-7.7745,-7.7524,-7.7488,-7.7561,-7.7451,-7.7598,-7.8479,-7.7855,-7.7304,-7.7304,-7.7304,-7.7304,-7.7304,-7.7304,-7.7304,-7.7304,-7.7304,-7.7304,-7.7304,-7.7304,-7.7304,-7.7304,-7.7304,-7.7708,-7.8589,-7.8699,-7.947,-8.1012,-8.1085,-8.1489,-8.2186,-8.2186,-8.2186,-2.9527,-3.0621,-3.2236,-3.4508,-3.6908,-3.9668,-4.305,-4.4317,-4.5347,-4.733,-5.09,-5.3876,-5.4213,-5.8349,-6.2057,-6.2465,-6.4247,-6.5652,-6.5832,-6.6191,-6.5892,-6.4485,-6.5473,-6.6789,-6.8106,-7.0771,-7.2428,-7.2666,-7.7756,-8.0556,-8.0131,-8.2986,-8.464,-8.464,-8.464,-8.464,-8.464,-8.464,-8.464,-8.464,-8.464,-8.464,-8.464,-8.464,-8.464,-8.4573,-8.3828,-8.3253,-8.278,-8.1731,-8.0784,-8.0006,-7.9701,-7.9566,-7.9566,-7.9566,-7.9363,-7.9058,-7.8619,-7.7976,-7.7367,-7.7367,-7.7029,-7.6521,-7.5811,-7.5574,-7.5466,-7.5356,-7.5464,-7.5755,-7.679,-7.6543,-7.5951,-7.5732,-7.6245,-7.6552,-7.5619,-7.6705,-7.7745,-7.7378,-7.7304,-7.7304,-7.7304,-7.7304,-7.7451,-7.7818,-7.7561,-7.7304,-7.7304,-7.7304,-7.7304,-7.7304,-7.7304,-7.7304,-7.7304,-7.7781,-7.7855,-7.7341,-7.7781,-7.7855,-7.7341,-7.7818,-7.8222,-7.8589,-7.9066,-7.9837,-8.1012,-8.1012,-8.1415,-8.2186,-8.2186,-8.2443,-3.0013,-3.187,-3.4231,-3.59,-3.9177,-4.2534,-4.4493,-4.5924,-4.7503,-4.9876,-5.3459,-5.6046,-5.566,-6.0051,-6.3298,-6.1704,-6.3675,-6.5353,-6.5054,-6.5263,-6.4784,-6.3019,-6.3498,-6.4395,-6.5533,-6.9179,-7.1653,-7.209,-7.7229,-8.0274,-8.0182,-8.2829,-8.4403,-8.4606,-8.464,-8.464,-8.464,-8.464,-8.464,-8.464,-8.464,-8.464,-8.464,-8.464,-8.464,-8.4573,-8.3828,-8.3186,-8.2644,-8.1663,-8.0547,-7.9397,-7.9194,-7.8991,-7.8788,-7.8585,-7.8619,-7.8653,-7.7705,-7.6893,-7.6217,-7.6014,-7.5574,-7.4999,-7.4458,-7.4289,-7.4339,-7.4508,-7.4428,-7.4687,-7.59,-7.5644,-7.4997,-7.4562,-7.5352,-7.5872,-7.4973,-7.6063,-7.7304,-7.7304,-7.7304,-7.7304,-7.7304,-7.7304,-7.7304,-7.7304,-7.7304,-7.7304,-7.7304,-7.7304,-7.7304,-7.7304,-7.7304,-7.7304,-7.7304,-7.7892,-7.7965,-7.7378,-7.7892,-7.8075,-7.7671,-7.8038,-7.8479,-7.8919,-7.9029,-7.9727,-8.1012,-8.0791,-8.1305,-8.2517,-8.2517,-8.2957,-3.02,-3.2791,-3.5819,-3.8503,-4.1433,-4.4443,-4.7154,-4.9063,-5.1068,-5.3843,-5.634,-5.7922,-5.785,-6.0779,-6.2793,-6.1646,-6.291,-6.4276,-6.4934,-6.4485,-6.3588,-6.2271,-6.1613,-6.1493,-6.2181,-6.6545,-6.9294,-6.9196,-7.4729,-7.799,-7.7864,-8.1448,-8.3862,-8.4606,-8.464,-8.464,-8.464,-8.464,-8.464,-8.464,-8.464,-8.464,-8.464,-8.464,-8.464,-8.4573,-8.3828,-8.349,-8.3355,-8.19,-8.0851,-8.0107,-7.9397,-7.8653,-7.7942,-7.7232,-7.7401,-7.7807,-7.6284,-7.5303,-7.4559,-7.3815,-7.3578,-7.3544,-7.351,-7.351,-7.351,-7.3569,-7.3061,-7.299,-7.4967,-7.3421,-7.221,-7.5084,-7.5012,-7.4645,-7.558,-7.6563,-7.7304,-7.7304,-7.7304,-7.7304,-7.7304,-7.7304,-7.7304,-7.7304,-7.7304,-7.7304,-7.7304,-7.7304,-7.7304,-7.7304,-7.7304,-7.7304,-7.7304,-7.7341,-7.7341,-7.7304,-7.7341,-7.7708,-7.8516,-7.7781,-7.8112,-7.9727,-7.8185,-7.8589,-8.1012,-8.0204,-8.1048,-8.3361,-8.3361,-8.3801,-3.2384,-3.5254,-3.8224,-4.109,-4.412,-4.7054,-4.9113,-5.0594,-5.1758,-5.2756,-5.3579,-5.3895,-5.3245,-5.5725,-5.8078,-5.8869,-6.1056,-6.3109,-6.4186,-6.4545,-6.3558,-6.0475,-6.1463,-6.1822,-6.0266,-6.323,-6.6447,-6.9697,-7.4033,-7.7333,-7.9251,-8.2494,-8.437,-8.4606,-8.464,-8.464,-8.464,-8.464,-8.464,-8.464,-8.464,-8.464,-8.464,-8.464,-8.4336,-8.3862,-8.3625,-8.2949,-8.1934,-8.0953,-7.9837,-7.8619,-7.7333,-7.7029,-7.7063,-7.527,-7.5405,-7.6318,-7.5337,-7.483,-7.4492,-7.3713,-7.3477,-7.3409,-7.2902,-7.2766,-7.2813,-7.3033,-7.241,-7.2293,-7.5001,-7.4487,-7.3729,-7.544,-7.6027,-7.6197,-7.5891,-7.6563,-7.7304,-7.7304,-7.7304,-7.7304,-7.7304,-7.7304,-7.7304,-7.7304,-7.7304,-7.7304,-7.7304,-7.7304,-7.7304,-7.7304,-7.7818,-7.8185,-7.8185,-7.914,-7.9543,-7.8993,-7.947,-7.9653,-7.9396,-7.9617,-7.9764,-7.98,-7.9764,-8.0167,-8.1012,-8.0718,-8.1562,-8.3398,-8.3398,-8.4132,-3.491,-3.821,-4.1201,-4.3762,-4.6652,-4.9088,-5.0167,-5.1147,-5.1758,-5.1762,-5.1523,-5.0922,-4.9917,-5.1627,-5.3617,-5.4969,-5.7459,-6.0146,-6.263,-6.3139,-6.248,-6.0416,-6.1253,-6.1433,-5.9967,-6.1373,-6.4141,-6.8444,-7.2717,-7.6201,-7.8746,-8.2327,-8.4336,-8.4606,-8.464,-8.464,-8.464,-8.464,-8.464,-8.464,-8.464,-8.464,-8.4606,-8.4336,-8.3964,-8.3456,-8.2949,-8.2171,-8.119,-8.0209,-7.9092,-7.7874,-7.6623,-7.6115,-7.5912,-7.4424,-7.4322,-7.4796,-7.4086,-7.3815,-7.368,-7.2935,-7.2699,-7.2631,-7.2157,-7.2022,-7.2067,-7.2193,-7.183,-7.183,-7.4158,-7.4234,-7.4082,-7.551,-7.6264,-7.6728,-7.6396,-7.6856,-7.7304,-7.7304,-7.7304,-7.7304,-7.7304,-7.7304,-7.7304,-7.7304,-7.7304,-7.7304,-7.7304,-7.7304,-7.7451,-7.7745,-7.8259,-7.8699,-7.8993,-7.9984,-8.0351,-7.98,-8.0277,-8.0461,-8.0241,-8.0461,-8.0608,-8.0645,-8.0865,-8.1305,-8.1856,-8.1856,-8.27,-8.4278,-8.4278,-8.4976,-3.7798,-4.1324,-4.4468,-4.6677,-4.8837,-5.0393,-5.0343,-5.077,-5.1144,-5.1031,-5.0049,-4.8948,-4.7867,-4.8506,-4.9653,-5.0788,-5.2845,-5.6017,-6.0565,-6.0685,-6.0745,-6.1942,-6.1044,-6.0595,-6.1194,-6.1313,-6.269,-6.6042,-7.0882,-7.4622,-7.6805,-8.1082,-8.3896,-8.4606,-8.464,-8.464,-8.464,-8.464,-8.464,-8.464,-8.464,-8.4606,-8.4539,-8.3828,-8.3456,-8.3321,-8.19,-8.1257,-8.1054,-7.9634,-7.8619,-7.7874,-7.7096,-7.5912,-7.4593,-7.4525,-7.4052,-7.3341,-7.2597,-7.236,-7.2293,-7.1548,-7.1312,-7.1312,-7.1312,-7.1312,-7.1312,-7.1312,-7.1312,-7.1546,-7.2498,-7.2797,-7.3332,-7.5334,-7.5787,-7.6094,-7.7082,-7.7304,-7.7304,-7.7304,-7.7304,-7.7341,-7.7378,-7.7378,-7.7378,-7.7378,-7.7414,-7.7414,-7.7341,-7.7378,-7.7708,-7.8516,-7.8662,-7.9029,-7.98,-7.9874,-7.991,-7.991,-7.991,-8.0277,-8.1048,-8.0314,-8.0645,-8.215,-8.1489,-8.1893,-8.3398,-8.3471,-8.4278,-8.5783,-8.5783,-8.6224,-4.0794,-4.3737,-4.61,-4.7908,-4.9389,-5.0193,-4.9389,-4.9314,-4.8812,-4.6747,-4.4801,-4.3264,-4.2703,-4.4508,-4.7234,-5.0829,-5.4612,-5.8411,-6.2061,-6.281,-6.278,-6.2181,-6.3079,-6.3647,-6.3288,-6.4186,-6.6279,-6.9694,-7.2389,-7.4992,-7.7393,-8.1846,-8.4437,-8.4606,-8.464,-8.464,-8.464,-8.464,-8.464,-8.464,-8.464,-8.4336,-8.3761,-8.3592,-8.2881,-8.1832,-8.146,-8.0682,-7.96,-7.8653,-7.7841,-7.7063,-7.5709,-7.4965,-7.4492,-7.3375,-7.2834,-7.2563,-7.1853,-7.1954,-7.2293,-7.1548,-7.1312,-7.1312,-7.1312,-7.1312,-7.1312,-7.1312,-7.1312,-7.1546,-7.2498,-7.2797,-7.3332,-7.5334,-7.5787,-7.6094,-7.7082,-7.7304,-7.7304,-7.7304,-7.7304,-7.7524,-7.8148,-7.8259,-7.8259,-7.8259,-7.8772,-7.8699,-7.7488,-7.7892,-7.8369,-7.8589,-7.9653,-8.0461,-8.0681,-8.1232,-8.1599,-8.1599,-8.1599,-8.1672,-8.1893,-8.1709,-8.1782,-8.2186,-8.259,-8.2994,-8.3398,-8.4022,-8.4792,-8.5783,-8.5783,-8.6224,-4.3397,-4.5874,-4.7682,-4.8837,-4.959,-4.959,-4.7757,-4.7129,-4.6024,-4.276,-4.0727,-3.9272,-3.8582,-4.0345,-4.3258,-4.7595,-5.1836,-5.6226,-6.0715,-6.2391,-6.3318,-6.3767,-6.4784,-6.5413,-6.5323,-6.6251,-6.8243,-7.1526,-7.3664,-7.5926,-7.873,-8.2476,-8.464,-8.464,-8.464,-8.464,-8.464,-8.464,-8.4471,-8.4133,-8.4133,-8.3727,-8.3016,-8.2678,-8.2069,-8.1257,-8.0615,-7.987,-7.8991,-7.757,-7.6758,-7.6217,-7.4695,-7.3916,-7.3544,-7.2699,-7.2191,-7.1853,-7.1447,-7.1582,-7.1853,-7.1447,-7.1312,-7.1312,-7.1312,-7.1312,-7.1312,-7.1312,-7.1312,-7.1457,-7.1969,-7.2498,-7.3171,-7.4757,-7.551,-7.6094,-7.7082,-7.7304,-7.7304,-7.7304,-7.7304,-7.7598,-7.8442,-7.8589,-7.8699,-7.9066,-7.9507,-7.9433,-7.8516,-7.8809,-7.925,-7.9617,-8.0461,-8.1158,-8.1489,-8.1929,-8.2186,-8.2186,-8.2186,-8.2186,-8.2186,-8.2553,-8.2553,-8.2186,-8.3691,-8.4278,-8.3948,-8.5086,-8.5894,-8.6334,-8.6334,-8.6591,-4.566,-4.7631,-4.8912,-4.9464,-4.9439,-4.856,-4.5874,-4.4644,-4.2986,-3.912,-3.7487,-3.6383,-3.5203,-3.6584,-3.9305,-4.3585,-4.7695,-5.2502,-5.865,-6.1164,-6.3258,-6.5712,-6.6251,-6.67,-6.7448,-6.8106,-6.9725,-7.2672,-7.4944,-7.7431,-8.02,-8.3012,-8.464,-8.464,-8.464,-8.464,-8.464,-8.464,-8.4234,-8.349,-8.349,-8.305,-8.2238,-8.1596,-8.1224,-8.1054,-7.9701,-7.9058,-7.8788,-7.6589,-7.5642,-7.5405,-7.4018,-7.3037,-7.2394,-7.2394,-7.1954,-7.1312,-7.1312,-7.1312,-7.1312,-7.1312,-7.1312,-7.1312,-7.1312,-7.1312,-7.1312,-7.1312,-7.1312,-7.1312,-7.1312,-7.1917,-7.288,-7.385,-7.483,-7.5891,-7.6856,-7.7181,-7.7304,-7.7304,-7.7414,-7.7781,-7.8626,-7.8846,-7.914,-7.9837,-8.0021,-8.0057,-7.9947,-7.9947,-8.0241,-8.0938,-8.1122,-8.1452,-8.215,-8.2186,-8.226,-8.2333,-8.226,-8.226,-8.2333,-8.303,-8.3067,-8.237,-8.4609,-8.5453,-8.4756,-8.6261,-8.6995,-8.6995,-8.6995,-8.6995,-4.6906,-4.8184,-4.8912,-4.9464,-4.856,-4.6954,-4.4618,-4.261,-4.0124,-3.6232,-3.4926,-3.3997,-3.239,-3.4842,-3.8972,-4.4864,-4.896,-5.3759,-6.0633,-6.278,-6.4246,-6.5832,-6.7478,-6.8944,-7.0111,-7.0829,-7.2478,-7.5366,-7.7263,-7.9095,-8.088,-8.3314,-8.464,-8.464,-8.464,-8.464,-8.464,-8.464,-8.4234,-8.349,-8.349,-8.278,-8.1494,-8.1359,-8.0953,-8.0344,-7.9498,-7.8754,-7.8044,-7.6386,-7.5337,-7.4695,-7.3815,-7.3037,-7.2394,-7.2394,-7.1954,-7.1312,-7.1312,-7.1312,-7.1312,-7.1312,-7.1312,-7.1312,-7.1312,-7.1312,-7.1312,-7.1312,-7.1312,-7.1312,-7.1312,-7.1457,-7.183,-7.2797,-7.385,-7.483,-7.5823,-7.6728,-7.7304,-7.7304,-7.7892,-7.8626,-7.9433,-8.0131,-8.0645,-8.0791,-8.1342,-8.1525,-8.0865,-8.0791,-8.0865,-8.1012,-8.1599,-8.2039,-8.2186,-8.2186,-8.248,-8.3177,-8.2553,-8.248,-8.3177,-8.3361,-8.3361,-8.3214,-8.4903,-8.571,-8.56,-8.6554,-8.6995,-8.6995,-8.6995,-8.6995,-4.7832,-4.8987,-4.969,-4.9967,-4.856,-4.625,-4.2861,-4.0601,-3.8115,-3.4223,-3.3194,-3.2767,-3.1964,-3.4048,-3.7439,-4.2328,-4.5602,-5.0271,-5.7945,-6.0116,-6.2331,-6.6071,-6.7986,-6.9512,-7.0769,-7.1517,-7.3023,-7.5582,-7.7674,-7.9591,-8.167,-8.3582,-8.464,-8.464,-8.464,-8.464,-8.464,-8.4234,-8.3659,-8.2915,-8.2543,-8.1765,-8.0716,-8.0716,-8.0513,-8.0141,-7.9025,-7.8314,-7.7807,-7.5506,-7.4356,-7.3916,-7.28,-7.2157,-7.1853,-7.1853,-7.1616,-7.1312,-7.1312,-7.1312,-7.1312,-7.1312,-7.1312,-7.1312,-7.1312,-7.1312,-7.1312,-7.1312,-7.1312,-7.1312,-7.1312,-7.1312,-7.1546,-7.2582,-7.4005,-7.5369,-7.633,-7.7285,-7.8002,-7.8002,-7.8662,-7.947,-8.0277,-8.0388,-8.0645,-8.1489,-8.1599,-8.1599,-8.1636,-8.1636,-8.1636,-8.1636,-8.2333,-8.281,-8.281,-8.3214,-8.3618,-8.4022,-8.3654,-8.3618,-8.4022,-8.4425,-8.4462,-8.4022,-8.56,-8.6224,-8.5783,-8.6628,-8.6995,-8.6995,-8.6995,-8.6995,-4.8184,-4.949,-5.0393,-5.0268,-4.841,-4.5547,-4.1605,-3.9019,-3.6483,-3.2943,-3.2114,-3.2014,-3.1888,-3.3204,-3.5488,-3.9506,-4.2166,-4.6628,-5.4869,-5.7573,-6.0745,-6.6131,-6.8226,-6.9722,-7.0979,-7.1727,-7.2983,-7.4887,-7.7492,-8.0033,-8.2538,-8.3893,-8.464,-8.464,-8.464,-8.4539,-8.4403,-8.3795,-8.305,-8.2171,-8.1562,-8.0885,-8.0175,-8.004,-7.9972,-7.987,-7.8382,-7.7739,-7.7536,-7.4661,-7.3477,-7.3341,-7.1887,-7.1312,-7.1312,-7.1312,-7.1312,-7.1312,-7.1312,-7.1312,-7.1312,-7.1312,-7.1312,-7.1312,-7.1312,-7.1312,-7.1312,-7.1312,-7.1312,-7.1312,-7.1312,-7.1312,-7.16,-7.2797,-7.4642,-7.6348,-7.7375,-7.8259,-7.8809,-7.8626,-7.9396,-8.0204,-8.0645,-8.0498,-8.0718,-8.2003,-8.1672,-8.1489,-8.2113,-8.2333,-8.2443,-8.2443,-8.303,-8.3471,-8.3654,-8.4242,-8.4682,-8.4866,-8.4682,-8.4682,-8.4866,-8.5453,-8.549,-8.4866,-8.6261,-8.6701,-8.604,-8.6701,-8.6995,-8.6995,-8.6995,-8.6995,-4.7682,-4.9188,-5.0293,-4.9791,-4.723,-4.4217,-4.1806,-3.8417,-3.5102,-3.2717,-3.1813,-3.1311,-3.0859,-3.1266,-3.3446,-3.8699,-4.1583,-4.5995,-5.4201,-5.8501,-6.2151,-6.5682,-6.8345,-7.038,-7.1667,-7.2415,-7.3073,-7.4001,-7.759,-8.1056,-8.4251,-8.45,-8.464,-8.464,-8.464,-8.4302,-8.3625,-8.3524,-8.278,-8.1393,-8.1325,-8.0885,-8.0175,-7.9532,-7.9228,-7.9126,-7.7638,-7.6995,-7.6826,-7.4458,-7.3477,-7.3341,-7.1887,-7.1312,-7.1312,-7.1312,-7.1312,-7.1312,-7.1312,-7.1312,-7.1312,-7.1312,-7.1312,-7.1312,-7.1312,-7.1312,-7.1312,-7.1312,-7.1312,-7.1312,-7.1312,-7.1312,-7.1742,-7.3729,-7.5585,-7.7181,-7.8254,-7.9103,-7.947,-7.8736,-7.9837,-8.0681,-8.0021,-8.1048,-8.2039,-8.2186,-8.215,-8.2113,-8.2186,-8.2847,-8.3287,-8.3287,-8.3361,-8.3728,-8.4425,-8.4572,-8.4903,-8.5637,-8.5013,-8.4939,-8.5637,-8.5747,-8.5747,-8.5673,-8.6554,-8.6958,-8.6885,-8.6958,-8.6995,-8.6995,-8.6995,-8.6995,-4.7255,-4.9389,-5.0795,-5.0243,-4.7606,-4.4292,-4.1078,-3.7864,-3.4901,-3.2667,-3.2039,-3.1712,-3.1185,-3.126,-3.2632,-3.6515,-3.7585,-4.083,-4.925,-5.1798,-5.5508,-6.278,-6.5263,-6.7837,-7.1517,-7.2146,-7.3082,-7.5234,-7.7175,-7.9771,-8.2942,-8.4035,-8.464,-8.464,-8.464,-8.4471,-8.4167,-8.3287,-8.2543,-8.1934,-8.0615,-7.9837,-7.9532,-7.8754,-7.845,-7.8382,-7.7367,-7.6893,-7.6724,-7.4424,-7.3477,-7.3341,-7.1887,-7.1312,-7.1312,-7.1312,-7.1312,-7.1312,-7.1312,-7.1312,-7.1312,-7.1312,-7.1312,-7.1312,-7.1312,-7.1312,-7.1312,-7.1312,-7.1312,-7.1312,-7.1312,-7.1776,-7.2853,-7.5327,-7.6515,-7.7434,-7.8986,-7.9947,-8.0424,-8.0094,-8.0938,-8.1636,-8.1305,-8.1379,-8.1636,-8.2113,-8.1782,-8.1636,-8.215,-8.292,-8.3618,-8.4058,-8.4572,-8.4976,-8.5306,-8.5783,-8.6187,-8.6518,-8.6224,-8.6187,-8.6518,-8.6518,-8.6518,-8.6518,-8.6848,-8.6995,-8.6995,-8.6995,-8.6995,-8.7031,-8.7509,-8.7729,-4.5673,-4.8335,-5.0142,-4.959,-4.6954,-4.3664,-4.0425,-3.7287,-3.4575,-3.2817,-3.234,-3.2039,-3.1486,-3.1512,-3.2478,-3.4871,-3.5454,-3.8201,-4.5947,-4.7698,-5.1199,-5.9368,-6.1493,-6.4336,-6.9632,-7.1547,-7.3425,-7.564,-7.7268,-7.9033,-8.1388,-8.3421,-8.464,-8.464,-8.4403,-8.42,-8.3964,-8.2712,-8.1866,-8.1426,-7.987,-7.8991,-7.8754,-7.801,-7.7671,-7.7604,-7.6657,-7.6352,-7.6352,-7.4086,-7.3274,-7.3341,-7.1887,-7.1312,-7.1312,-7.1312,-7.1312,-7.1312,-7.1312,-7.1312,-7.1312,-7.1312,-7.1312,-7.1312,-7.1312,-7.1312,-7.1312,-7.1312,-7.1312,-7.1435,-7.1961,-7.2843,-7.4221,-7.6769,-7.7796,-7.8571,-7.9856,-8.0561,-8.0904,-8.0984,-8.1403,-8.1709,-8.1791,-8.1562,-8.1562,-8.2113,-8.1709,-8.1562,-8.2113,-8.3104,-8.3985,-8.4535,-8.5527,-8.6151,-8.6151,-8.6885,-8.7362,-8.7362,-8.7362,-8.7362,-8.7362,-8.7142,-8.6995,-8.6995,-8.6995,-8.6995,-8.6995,-8.7252,-8.7362,-8.7362,-8.8169,-8.8573,-4.2585,-4.5422,-4.7832,-4.7305,-4.4669,-4.1756,-4.0074,-3.6684,-3.3746,-3.3194,-3.2616,-3.2039,-3.1486,-3.1838,-3.2731,-3.4327,-3.6619,-4.0039,-4.5505,-4.8566,-5.1708,-5.5748,-5.7393,-6.0266,-6.5562,-7.0799,-7.4151,-7.4809,-7.7963,-7.9803,-7.9803,-8.283,-8.464,-8.464,-8.3896,-8.3152,-8.2441,-8.1663,-8.0581,-7.916,-7.9126,-7.872,-7.7976,-7.7232,-7.6927,-7.6826,-7.5303,-7.5033,-7.554,-7.3308,-7.2834,-7.3341,-7.1887,-7.1312,-7.1312,-7.1312,-7.1312,-7.1312,-7.1312,-7.1312,-7.1312,-7.1312,-7.1312,-7.1312,-7.1312,-7.1312,-7.1312,-7.1312,-7.1312,-7.1715,-7.348,-7.4773,-7.596,-7.7739,-7.9585,-8.0975,-8.0975,-8.0754,-8.0694,-8.0927,-8.079,-8.0694,-8.0992,-8.1672,-8.2186,-8.2186,-8.2186,-8.2186,-8.2186,-8.3581,-8.4609,-8.4609,-8.604,-8.6995,-8.6995,-8.7729,-8.8206,-8.8206,-8.8206,-8.8206,-8.8206,-8.7435,-8.6995,-8.6995,-8.6995,-8.6995,-8.6995,-8.7802,-8.8206,-8.8206,-8.9014,-8.9417,-3.9145,-4.1455,-4.3288,-4.2735,-4.1254,-3.9471,-3.7789,-3.5604,-3.3746,-3.3194,-3.2943,-3.2516,-3.1562,-3.2164,-3.3224,-3.4473,-3.6688,-3.9507,-4.3081,-4.7052,-5.1558,-5.6885,-6.3857,-6.8704,-6.9901,-7.2385,-7.3791,-7.3552,-7.4497,-7.6084,-7.8243,-7.9309,-8.1058,-8.3723,-8.3625,-8.3152,-8.2408,-8.1663,-8.0784,-7.9837,-7.8822,-7.7942,-7.7198,-7.6454,-7.5811,-7.5303,-7.483,-7.4458,-7.4086,-7.2902,-7.2529,-7.2665,-7.1684,-7.1312,-7.1312,-7.1312,-7.1312,-7.1312,-7.1312,-7.1312,-7.1312,-7.1312,-7.1312,-7.1312,-7.1312,-7.1312,-7.1312,-7.1312,-7.1742,-7.2755,-7.4562,-7.5747,-7.7162,-7.9543,-8.0561,-8.1158,-8.1709,-8.1154,-8.0839,-8.1622,-8.159,-8.1635,-8.2531,-8.3324,-8.3838,-8.3838,-8.3838,-8.3838,-8.3838,-8.4756,-8.5416,-8.5416,-8.6371,-8.6995,-8.6995,-8.7252,-8.7619,-8.8169,-8.7692,-8.7619,-8.8169,-8.7435,-8.6995,-8.6995,-8.7545,-8.7839,-8.7839,-8.8647,-8.9307,-8.9858,-9.0115,-9.0519,-3.6257,-3.8241,-3.9747,-3.9597,-3.8592,-3.7337,-3.6282,-3.4776,-3.3495,-3.3144,-3.3068,-3.2792,-3.1863,-3.2777,-3.3875,-3.4278,-3.6687,-3.9276,-4.1849,-4.6049,-5.1079,-5.7034,-6.5173,-7.0141,-6.9722,-7.1996,-7.3343,-7.2954,-7.3496,-7.4957,-7.7572,-7.828,-7.9767,-8.2135,-8.2509,-8.2441,-8.2002,-8.0987,-8.0107,-7.9329,-7.7841,-7.6893,-7.642,-7.5337,-7.4762,-7.4593,-7.4018,-7.368,0.0,-7.2394,-7.2157,-7.2326,-7.1616,-7.1312,-7.1312,-7.1312,-7.1312,-7.1312,-7.1312,-7.1312,-7.1312,-7.1312,-7.1312,-7.1312,-7.1312,-7.1312,-7.1401,-7.1776,-7.2364,-7.3264,-7.5494,-7.6518,-7.7615,-7.9975,-8.0791,-8.1158,-8.1636,-8.1117,-8.102,-8.2355,-8.2172,-8.2287,-8.3631,-8.4278,-8.4609,-8.4609,-8.4609,-8.4609,-8.4609,-8.5306,-8.5783,-8.5783,-8.6518,-8.6995,-8.6995,-8.7288,-8.7655,-8.8169,-8.7729,-8.7692,-8.8169,-8.7435,-8.7142,-8.7472,-8.7949,-8.8353,-8.8647,-8.9454,-9.0298,-9.1069,-9.1069,-9.1326,0.0,-3.5554,-3.686,-3.7437,-3.6433,-3.5328,-3.5353,-3.4173,0.0,-3.3068,-3.3068,-3.2918,-3.2416,-3.3617,-3.4545,-3.4123,-3.6837,-3.9737,-4.1753,-4.6048,-5.1139,-5.6974,-6.281,-6.6311,-6.6221,-7.0231,-7.2834,-7.2774,-7.4195,-7.5714,-7.723,-7.8926,-7.9812,-7.9871,-8.075,-8.1088,-8.1054,-7.9769,-7.872,-7.7874,-7.642,-7.5709,-7.5642,-7.4153,-7.3883,-7.4458,-7.3037,-7.2766,-7.324,-7.1853,-7.1718,-7.2259,-7.1582,-7.1312,-7.1312,-7.1312,-7.1312,-7.1312,-7.1312,-7.1312,-7.1312,-7.1312,-7.1312,-7.1312,-7.1312,-7.1401,-7.16,-7.2498,-7.288,-7.3667,-7.6303,-7.7047,-7.7575,-7.9352,-8.0424,-8.1012,-8.1012,-8.0754,-8.1165,-8.3014,-8.2572,-8.2505,-8.4364,-8.4719,-8.4756,-8.4756,-8.4756,-8.4756,-8.4756,-8.5416,-8.5894,-8.5894,-8.6554,-8.6995,-8.6995,-8.7729,-8.8206,-8.828,-8.828,-8.8316,-8.8353,-8.7619,-8.7545,-8.828,-8.8353,-8.8793,-8.9601,-9.0335,-9.1069,-9.1803,-9.1803,-9.1803,-3.1662,0.0,-3.239,-3.3345,-3.3294,-3.3119,0.0,-3.3345,-3.3068,-3.3068,-3.3068,-3.3169,-3.3445,-3.4159,-3.5205,-3.6814,-3.9311,-4.1728,-4.3517,-5.0677,-5.7633,-6.257,-6.7059,-6.9363,-6.8405,-7.062,-7.1906,-7.1427,-7.1728,-7.2448,-7.3468,-7.5539,-7.6697,-7.6826,-7.8657,-7.9363,-7.8754,-7.8991,-7.845,-7.713,-7.6183,-7.5709,-7.5642,-7.4153,-7.3578,-7.3713,-7.28,-7.2191,-7.1785,-7.1447,-7.1413,-7.1548,-7.1379,-7.1312,-7.1312,-7.1312,-7.1312,-7.1312,-7.1312,-7.1312,-7.1312,-7.1312,-7.1312,-7.1312,-7.1312,-7.183,-7.2498,-7.2714,-7.3928,-7.5371,-7.6692,-7.7595,-7.8483,-7.9517,-8.0424,-8.1012,-8.1012,-8.0754,-8.1165,-8.3014,-8.3009,-8.3302,-8.5207,-8.604,-8.6444,-8.6444,-8.6444,-8.6444,-8.6444,-8.6591,-8.6738,-8.6738,-8.6885,-8.6995,-8.6995,-8.7729,-8.8463,-8.9087,-8.9124,-8.9417,-9.0005,-8.9271,-8.894,-8.9124,-8.9711,-9.0445,-9.1253,-9.1436,-9.162,-9.1803,-9.1803,-9.1803,-3.1512,-3.1336,-3.1562,-3.239,-3.2616,-3.2742,-3.3319,-3.3269,-3.3068,-3.3068,-3.3068,-3.3244,-3.3796,-3.4946,-3.63,-3.7626,-4.0717,-4.4347,-4.837,-5.4476,-6.0296,-6.4934,-6.7897,-6.9632,-6.9842,-7.029,-7.053,-7.05,-7.0201,-7.0918,-7.2724,-7.3938,-7.5144,-7.6273,-7.7445,-7.8077,-7.7976,-7.8077,-7.7502,-7.6352,-7.5202,-7.4695,-7.4627,-7.3172,-7.2665,-7.2935,-7.2225,-7.1684,-7.1312,-7.1312,-7.1312,-7.1312,-7.1312,-7.1312,-7.1312,-7.1312,-7.1312,-7.1312,-7.1312,-7.1312,-7.1312,-7.1312,-7.1312,-7.1401,-7.183,-7.2666,-7.3492,-7.3492,-7.461,-7.6,-7.6941,-7.7907,-7.8699,-7.914,-8.0167,-8.1012,-8.1012,-8.1167,-8.1838,-8.3625,-8.3797,-8.4314,-8.6045,-8.6701,-8.6995,-8.6995,-8.6995,-8.6995,-8.6995,-8.6995,-8.6995,-8.6995,-8.6995,-8.6995,-8.6995,-8.8096,-8.8793,-8.8867,-8.9197,-8.9601,-9.0041,-8.9638,-8.9601,-8.9968,-9.0739,-9.1363,-9.1803,-9.1803,-9.1803,-9.1803,-9.1803,-9.1803,-3.2441,-3.2591,-3.2767,-3.3018,-3.3068,-3.3194,-3.3671,-3.342,-3.3068,-3.3068,-3.3068,-3.3294,-3.4022,-3.5955,-3.7675,-3.8309,-4.2424,-4.7758,-5.4192,-5.7603,-6.1044,-6.5473,-6.7178,-6.8615,-7.029,-6.9572,-6.9243,-6.9782,-6.9303,-7.016,-7.273,-7.3259,-7.4225,-7.5965,-7.6492,-7.6893,-7.7299,-7.6792,-7.6149,-7.5337,-7.3984,-7.3375,-7.3443,-7.1988,-7.1718,-7.236,-7.1616,-7.1312,-7.1312,-7.1312,-7.1312,-7.1312,-7.1312,-7.1312,-7.1312,-7.1312,-7.1312,-7.1312,-7.1312,-7.1312,-7.1312,-7.1312,-7.1367,-7.1688,-7.2498,-7.365,-7.4535,-7.4535,-7.5299,-7.63,-7.7265,-7.8075,-7.8626,-7.8736,-7.991,-8.1048,-8.1158,-8.1819,-8.2847,-8.4462,-8.4792,-8.527,-8.6738,-8.6995,-8.6995,-8.6995,-8.6995,-8.7031,-8.7178,-8.7105,-8.7105,-8.7362,-8.7142,-8.7068,-8.7178,-8.8573,-8.9124,-8.8426,-8.9271,-8.9784,-8.9784,-8.9784,-9.0115,-9.0776,-9.1436,-9.1803,-9.1803,-9.1803,-9.1803,-9.1803,-9.1803,-9.1803,-3.352,-3.4324,-3.4726,-3.3395,-3.3068,-3.3093,-3.3194,-3.3144,-3.3068,-3.3068,-3.3068,-3.352,-3.5027,-3.7236,-3.9754,-4.2223,-4.734,-5.2905,-5.8411,-6.0116,-6.2091,-6.5592,-6.7178,-6.8076,-6.8405,-6.8764,-6.9034,-6.9153,-6.9064,-6.9181,-6.969,-7.2154,-7.3113,-7.2184,-7.4594,-7.5337,-7.4187,-7.4695,-7.4593,-7.3815,-7.2969,-7.2902,-7.3443,-7.1988,-7.1718,-7.236,-7.1616,-7.1312,-7.1312,-7.1312,-7.1312,-7.1312,-7.1312,-7.1312,-7.1312,-7.1312,-7.1312,-7.1312,-7.1312,-7.1312,-7.1312,-7.1312,-7.1917,-7.2582,-7.2714,-7.4082,-7.558,-7.558,-7.6264,-7.7265,-7.816,-7.8516,-7.8772,-7.9433,-8.0314,-8.1195,-8.1856,-8.2663,-8.3691,-8.5306,-8.56,-8.5894,-8.6848,-8.6995,-8.6995,-8.6995,-8.6995,-8.7252,-8.7949,-8.7435,-8.7545,-8.8904,-8.7839,-8.7288,-8.7949,-8.8867,-8.9381,-8.9234,-9.0629,-9.1436,-9.1436,-9.1436,-9.1473,-9.162,-9.173,-9.1803,-9.1803,-9.1803,-9.1803,-9.1803,-9.1803,-9.1803,-3.3395,-3.4048,-3.455,-3.4073,-3.4424,-3.47,-3.4098,-3.3972,-3.4048,-3.4349,-3.4399,-3.4981,-3.7062,-3.9752,-4.3357,-4.8519,-5.2723,-5.6496,-5.9638,-6.1283,-6.3258,-6.6191,-6.6759,-6.7478,-6.8914,-6.8046,-6.7537,-6.7897,-6.791,-6.8335,-6.9098,-7.1167,-7.2335,-7.2467,-7.3433,-7.3265,-7.1832,-7.167,-7.2083,-7.2902,-7.2563,-7.236,-7.2293,-7.1616,-7.1481,-7.1785,-7.1447,-7.1312,-7.1312,-7.1312,-7.1312,-7.1312,-7.1312,-7.1312,-7.1312,-7.1312,-7.1312,-7.1312,-7.1312,-7.1312,-7.1401,-7.1917,-7.2414,-7.3009,-7.4082,-7.5048,-7.5787,-7.5787,-7.6563,-7.7414,-7.7818,-7.8135,-7.8632,-7.9526,-8.029,-8.1146,-8.2531,-8.3141,-8.3875,-8.549,-8.5783,-8.604,-8.6885,-8.6995,-8.6995,-8.6995,-8.6995,-8.7142,-8.7509,-8.7619,-8.7949,-8.8683,-8.85,-8.8463,-8.883,-8.9601,-9.0225,-9.0665,-9.14,-9.1803,-9.1803,-9.1803,-9.1803,-9.1803,-9.1803,-9.1803,-9.1803,-9.1803,-9.1803,-9.1803,-9.1803,-9.1803,-3.3395,-3.3771,-3.4223,-3.4776,-3.5454,-3.5881,-3.5554,-3.5403,-3.5529,-3.6358,-3.6408,-3.6937,-3.9122,-4.2751,-4.7452,-5.3863,-5.7244,-5.9608,-6.1253,-6.281,-6.4635,-6.6939,-6.649,-6.6879,-6.9064,-6.7148,-6.5981,-6.649,-6.6888,-6.762,-6.8946,-7.0457,-7.1848,-7.2969,-7.2597,-7.1799,-7.0557,-6.9993,-7.0343,-7.1631,-7.1631,-7.1546,-7.1312,-7.1312,-7.1312,-7.1312,-7.1312,-7.1312,-7.1312,-7.1312,-7.1312,-7.1312,-7.1312,-7.1312,-7.1312,-7.1312,-7.1312,-7.1312,-7.1312,-7.1312,-7.1457,-7.2498,-7.2962,-7.3412,-7.4976,-7.558,-7.5718,-7.551,-7.6027,-7.67,-7.7112,-7.7538,-7.8206,-7.9727,-8.0495,-8.1418,-8.327,-8.3838,-8.4285,-8.5471,-8.5903,-8.6192,-8.6569,-8.6819,-8.6995,-8.6995,-8.7178,-8.7288,-8.7288,-8.7839,-8.8353,-8.872,-8.8977,-8.9271,-8.9674,-9.0262,-9.0959,-9.173,-9.1803,-9.1803,-9.1803,-9.1803,-9.1803,-9.1803,-9.1803,-9.1803,-9.1803,-9.1803,-9.1803,-9.1803,-9.1803,-9.1803,-3.4324,-3.4625,-3.4801,-3.5353,-3.5152,-3.5353,-3.7312,-3.7387,-3.7462,-3.9069,-3.8994,-3.9018,-4.0421,-4.5846,-5.1495,-5.6109,-5.9668,-6.269,-6.5233,-6.5712,-6.6311,-6.7747,-6.6789,-6.6311,-6.7119,-6.5922,-6.5114,-6.5173,-6.6369,-6.7433,-6.8275,-7.0196,-7.132,-7.1424,-7.209,-7.1965,-7.1199,-7.1131,-7.0608,-6.9379,-6.9379,-7.011,-7.1312,-7.1312,-7.1312,-7.1312,-7.1312,-7.1312,-7.1312,-7.1312,-7.1312,-7.1312,-7.1312,-7.1312,-7.1312,-7.1312,-7.1312,-7.1312,-7.1312,-7.1312,-7.1457,-7.2498,-7.3412,-7.4234,-7.4385,-7.5048,-7.558,-7.4684,-7.446,-7.4935,-7.662,-7.6911,-7.7401,-8.0253,-8.1332,-8.2215,-8.4113,-8.5086,-8.5544,-8.5366,-8.6138,-8.6605,-8.5619,-8.632,-8.6995,-8.6995,-8.7655,-8.8096,-8.8096,-8.8169,-8.8757,-9.0262,-8.916,-8.8904,-9.0408,-9.0592,-9.0959,-9.173,-9.1803,-9.1803,-9.1803,-9.1803,-9.1803,-9.1803,-9.1803,-9.1803,-9.1803,-9.1803,-9.1803,-9.1803,-9.1803,-9.1803,-3.3596,-3.4198,-3.4851,-3.5403,-3.5655,-3.6232,-3.8115,-3.8919,-3.9722,-4.1404,-4.2409,-4.3713,-4.5951,-5.0223,-5.4345,-5.7228,-6.0864,-6.3617,-6.4635,-6.5832,-6.664,-6.6759,-6.6311,-6.6101,-6.634,-6.5173,-6.4718,-6.5582,-6.6652,-6.766,-6.8728,-7.0424,-7.0958,-7.0076,-7.0309,-6.9514,-6.7502,-6.8306,-6.8503,-6.7974,-6.9633,-7.0791,-7.1312,-7.1312,-7.1312,-7.1312,-7.1312,-7.1312,-7.1312,-7.1312,-7.1312,-7.1312,-7.1312,-7.1312,-7.1312,-7.1312,-7.1312,-7.1312,-7.1312,-7.1312,-7.1457,-7.2498,-7.3044,-7.3492,-7.4082,-7.4535,-7.4684,-7.365,-7.3332,-7.3685,-7.4965,-7.596,-7.7067,-7.8813,-8.0549,-8.2324,-8.4186,-8.464,-8.5009,-8.6174,-8.6138,-8.6064,-8.632,-8.6749,-8.7178,-8.7655,-8.8023,-8.839,-8.8904,-8.9381,-8.9931,-9.0555,-9.0519,-9.0702,-9.1289,-9.1363,-9.1473,-9.1767,-9.1803,-9.1803,-9.1803,-9.1803,-9.1803,-9.1803,-9.1803,-9.1803,-9.1803,-9.1803,-9.1803,-9.1803,-9.1803,-9.1803,-3.2792,-3.3345,-3.4098,-3.4851,-3.5579,-3.681,-3.9546,-4.0752,-4.1907,-4.4091,-4.554,-4.7276,-5.024,-5.3198,-5.5897,-5.8082,-6.1553,-6.4066,-6.4306,-6.5503,-6.6191,-6.5742,-6.5503,-6.5383,-6.5383,-6.4366,-6.4141,-6.5106,-6.6009,-6.6958,-6.7874,-6.902,-6.9207,-6.8275,-6.8046,-6.7325,-6.6121,-6.7048,-6.788,-6.8536,-7.0389,-7.1312,-7.1312,-7.1312,-7.1312,-7.1312,-7.1312,-7.1312,-7.1312,-7.1312,-7.1312,-7.1312,-7.1312,-7.1312,-7.1312,-7.1312,-7.1312,-7.1312,-7.1312,-7.1312,-7.1457,-7.2498,-7.2797,-7.2962,-7.365,-7.3885,-7.365,-7.2582,-7.2364,-7.2651,-7.3852,-7.5187,-7.6533,-7.8239,-8.0442,-8.2613,-8.4222,-8.4859,-8.5337,-8.6282,-8.6138,-8.5991,-8.6392,-8.6969,-8.7582,-8.8133,-8.8288,-8.8618,-8.931,-8.9752,-9.019,-9.052,-9.1326,-9.1803,-9.1803,-9.1803,-9.1803,-9.1803,-9.1803,-9.1803,-9.1803,-9.1803,-9.1803,-9.1803,-9.1803,-9.1803,-9.1803,-9.1803,-9.1803,-9.1803,-9.1803,-9.1803,-3.2215,-3.224,-3.2516,-3.3646,-3.4751,-3.6885,-4.1856,-4.2986,-4.3915,-4.7255,-4.8195,-4.9439,-5.255,-5.4333,-5.6077,-5.868,-6.1852,-6.4216,-6.4904,-6.5024,-6.5024,-6.5024,-6.4425,-6.4006,-6.3977,-6.3438,-6.3079,-6.3079,-6.429,-6.5111,-6.5111,-6.5805,-6.6241,-6.6209,-6.5536,-6.6096,-6.8097,-6.813,-6.9217,-7.1278,-7.1312,-7.1312,-7.1312,-7.1312,-7.1312,-7.1312,-7.1312,-7.1312,-7.1312,-7.1312,-7.1312,-7.1312,-7.1312,-7.1312,-7.1312,-7.1312,-7.1312,-7.1312,-7.1312,-7.1312,-7.1457,-7.2414,-7.2797,-7.2797,-7.2797,-7.2797,-7.2582,-7.16,-7.1312,-7.1715,-7.348,-7.4545,-7.593,-7.9069,-8.1441,-8.3265,-8.4332,-8.5857,-8.6642,-8.5544,-8.6247,-8.6679,-8.5544,-8.6903,-8.8206,-8.8206,-8.8535,-8.8915,-8.9348,-8.908,-8.9283,-9.0447,-9.1326,-9.1803,-9.1803,-9.1803,-9.1803,-9.1803,-9.1803,-9.1803,-9.1803,-9.1803,-9.1803,-9.1803,-9.1803,-9.1803,-9.1803,-9.1803,-9.1803,-9.1803,-9.1803,-9.1803,-3.2918,-3.3395,-3.4148,-3.4876,-3.6759,-3.9346,-4.2785,-4.3564,-4.5143,-5.0857,-5.2888,-5.4055,-5.5329,-5.6878,-5.8201,-5.8979,-6.1493,-6.3438,-6.3617,-6.4455,-6.4695,-6.3767,-6.3857,-6.3827,-6.3378,-6.3199,-6.3478,-6.4401,-6.4923,-6.5326,-6.5845,-6.6033,-6.5479,-6.4079,-6.386,-6.3963,-6.4563,-6.5504,-6.6807,-6.8327,-6.9783,-7.0804,-7.1312,-7.1312,-7.1312,-7.1312,-7.1312,-7.1312,-7.1312,-7.1312,-7.1312,-7.1312,-7.1312,-7.1312,-7.1312,-7.1312,-7.1312,-7.1312,-7.1312,-7.1312,-7.1401,-7.1688,-7.1742,-7.1742,-7.1742,-7.1742,-7.1688,-7.1401,-7.1312,-7.158,-7.2858,-7.4706,-7.6831,-7.9068,-8.0876,-8.2431,-8.323,-8.3651,-8.4127,-8.5093,-8.5544,-8.5954,-8.6428,-8.7408,-8.839,-8.8977,-8.8898,-8.9039,-8.9718,-9.051,-9.1069,-9.1436,-9.1657,-9.1803,-9.1803,-9.1803,-9.1803,-9.1803,-9.1803,-9.1803,-9.1803,-9.1803,-9.1803,-9.1803,-9.1803,-9.1803,-9.1803,-9.1803,-9.1803,-9.1803,-9.1803,-9.1803,-3.2767,-3.3395,-3.4349,-3.5579,-3.7965,-4.1115,-4.5206,-4.6964,-4.9222,-5.4386,-5.5842,-5.6731,-5.8487,-5.8918,-5.9368,-6.0146,-6.1852,-6.3079,-6.3079,-6.3767,-6.3947,-6.3169,-6.3408,-6.3498,-6.3109,-6.2839,-6.3003,-6.3812,-6.3648,-6.3626,-6.3735,-6.3527,-6.2674,-6.1186,-6.1298,-6.1783,-6.2543,-6.419,-6.5853,-6.7412,-6.8997,-6.9992,-7.0466,-7.1041,-7.1312,-7.1312,-7.1312,-7.1312,-7.1312,-7.1312,-7.1312,-7.1312,-7.1312,-7.1312,-7.1312,-7.1312,-7.1312,-7.1312,-7.1312,-7.1312,-7.1312,-7.1312,-7.1312,-7.1312,-7.1312,-7.1312,-7.1312,-7.1312,-7.1312,-7.1681,-7.3307,-7.5229,-7.7103,-7.8639,-8.0443,-8.2142,-8.3338,-8.3394,-8.3761,-8.5661,-8.5991,-8.632,-8.7329,-8.7704,-8.8252,-8.9055,-8.9247,-8.9465,-8.9934,-9.106,-9.1803,-9.1803,-9.1803,-9.1803,-9.1803,-9.1803,-9.1803,-9.1803,-9.1803,-9.1803,-9.1803,-9.1803,-9.1803,-9.1803,-9.1803,-9.1803,-9.1803,-9.1803,-9.1803,-9.1803,-9.1803,-9.1803,-3.2265,-3.2817,-3.3771,-3.6081,-3.8919,-4.2645,-4.8484,-5.205,-5.4815,-5.7492,-5.7633,-5.8201,-6.1595,-6.0685,-6.0057,-6.1882,-6.269,-6.3079,-6.3079,-6.3079,-6.3079,-6.3079,-6.3019,-6.2989,-6.2989,-6.2331,-6.1912,-6.1912,-6.1313,-6.0625,-5.9937,-5.9338,-5.871,-5.8052,-5.8573,-5.9875,-6.1852,-6.3865,-6.5791,-6.7692,-6.8504,-6.8944,-6.9045,-7.0466,-7.1109,-7.1109,-7.1109,-7.1109,-7.1109,-7.1109,-7.1142,-7.121,-7.121,-7.1244,-7.1312,-7.1312,-7.1312,-7.1312,-7.1312,-7.1312,-7.1312,-7.1312,-7.1312,-7.1312,-7.1312,-7.1312,-7.1312,-7.1312,-7.1312,-7.1851,-7.4343,-7.586,-7.6996,-7.8027,-7.9937,-8.2069,-8.4012,-8.4174,-8.4531,-8.6496,-8.6892,-8.7186,-8.7919,-8.7805,-8.7861,-8.8654,-8.9537,-9.0087,-9.0006,-9.106,-9.1803,-9.1803,-9.1803,-9.1803,-9.1803,-9.1803,-9.1803,-9.1803,-9.1803,-9.1803,-9.1803,-9.1803,-9.1803,-9.1803,-9.1803,-9.1803,-9.1803,-9.1803,-9.1803,-9.1803,-9.1803,-9.1803,-3.3922,-3.4274,-3.5102,-3.8191,-4.2359,-4.6522,-4.9571,-5.3409,-5.6845,-5.8355,-6.0268,-6.1957,-6.278,-6.251,-6.2361,-6.278,-6.2989,-6.3079,-6.3079,-6.3079,-6.3079,-6.3079,-6.263,-6.2301,-6.2301,-6.1224,-6.0505,-6.0505,-5.9907,-5.9249,-5.859,-5.8411,-5.8022,-5.7334,-5.8329,-5.9624,-6.1116,-6.3023,-6.4794,-6.617,-6.6948,-6.759,-6.8199,-6.9147,-6.9586,-6.9586,-6.9586,-6.9586,-6.9586,-6.9586,-6.9925,-7.0432,-7.0432,-7.0804,-7.1312,-7.1312,-7.1312,-7.1312,-7.1312,-7.1312,-7.1312,-7.1312,-7.1312,-7.1312,-7.1312,-7.1312,-7.1312,-7.1312,-7.1312,-7.1749,-7.3687,-7.5439,-7.7139,-7.8819,-7.9383,-8.0256,-8.2718,-8.2583,-8.2691,-8.5178,-8.6126,-8.6634,-8.6778,-8.6941,-8.7406,-8.8223,-9.0095,-9.106,-9.0087,-9.106,-9.1803,-9.1803,-9.1803,-9.1803,-9.1803,-9.1803,-9.1803,-9.1803,-9.1803,-9.1803,-9.1803,-9.1803,-9.1803,-9.1803,-9.1803,-9.1803,-9.1803,-9.1803,-9.1803,-9.1803,-9.1803,-9.1803,-3.3696,-3.47,-3.6634,-4.1304,-4.5221,-4.8585,-5.0998,-5.4279,-5.706,-5.8577,-6.1143,-6.3079,-6.3079,-6.3079,-6.3079,-6.3079,-6.281,-6.26,-6.26,-6.2331,-6.2121,-6.2121,-6.1822,-6.1613,-6.1613,-6.0416,-5.9608,-5.9608,-5.871,-5.7872,-5.7214,-5.7184,-5.7015,-5.6564,-5.8052,-5.9249,-6.0193,-6.2524,-6.4003,-6.4647,-6.5392,-6.5967,-6.6373,-6.7861,-6.8538,-6.8538,-6.8538,-6.8741,-6.9113,-6.9485,-6.9857,-7.0229,-7.0601,-7.0973,-7.1312,-7.1312,-7.1312,-7.1312,-7.1312,-7.1312,-7.1312,-7.1312,-7.1312,-7.1312,-7.1312,-7.1312,-7.1312,-7.1312,-7.1312,-7.1783,-7.3963,-7.5614,-7.7281,-7.954,-8.0182,-8.1004,-8.3266,-8.3146,-8.3323,-8.5375,-8.6102,-8.6449,-8.668,-8.7193,-8.7763,-8.8152,-8.9724,-9.0907,-9.0907,-9.1435,-9.1803,-9.1803,-9.1803,-9.1803,-9.1803,-9.1803,-9.1803,-9.1803,-9.1803,-9.1803,-9.1803,-9.1803,-9.1803,-9.1803,-9.1803,-9.1803,-9.1803,-9.1803,-9.1803,-9.1803,-9.2244,-9.2427,-3.3169,-3.5177,-3.8391,-4.384,-4.6778,-4.8989,-5.1575,-5.3955,-5.6076,-5.7505,-6.047,-6.272,-6.272,-6.272,-6.272,-6.272,-6.2271,-6.1942,-6.1942,-6.1463,-6.1104,-6.1104,-6.0924,-6.0775,-6.0775,-5.9458,-5.859,-5.859,-5.7453,-5.6496,-5.5867,-5.6011,-5.6009,-5.5782,-5.7693,-5.8874,-5.9301,-6.1924,-6.3328,-6.3328,-6.4208,-6.4478,-6.4275,-6.6237,-6.7218,-6.7354,-6.7455,-6.7895,-6.8571,-6.9451,-6.9857,-7.006,-7.0838,-7.121,-7.1312,-7.1312,-7.1312,-7.1312,-7.1312,-7.1312,-7.1312,-7.1312,-7.1312,-7.1312,-7.1312,-7.1312,-7.1312,-7.1312,-7.1558,-7.2342,-7.4787,-7.6243,-7.783,-8.0479,-8.1744,-8.2721,-8.429,-8.4499,-8.4849,-8.6102,-8.6289,-8.6287,-8.6842,-8.7619,-8.8223,-8.8491,-8.9558,-9.0637,-9.1694,-9.1803,-9.1803,-9.1803,-9.1803,-9.1803,-9.1803,-9.1803,-9.1803,-9.1803,-9.1803,-9.1877,-9.2024,-9.2024,-9.2024,-9.2024,-9.1877,-9.1877,-9.2024,-9.1877,-9.1877,-9.2024,-9.2758,-9.3161,-3.4223,-3.7161,-4.0626,-4.3338,-4.5347,-4.705,-4.8232,-5.1255,-5.3924,-5.4157,-5.8002,-6.1373,-6.1373,-6.1373,-6.1373,-6.1373,-6.1313,-6.1253,-6.1253,-6.1164,-6.1104,-6.1104,-6.0086,-5.9368,-5.9368,-5.7663,-5.6555,-5.6555,-5.5867,-5.5149,-5.4491,-5.5353,-5.5655,-5.5039,-5.7152,-5.8363,-5.8429,-6.1153,-6.255,-6.255,-6.3937,-6.3937,-6.2719,-6.3666,-6.4444,-6.5087,-6.5696,-6.6034,-6.6237,-6.7624,-6.8605,-6.9316,-7.006,-7.0737,-7.1312,-7.1312,-7.1312,-7.1312,-7.1312,-7.1312,-7.1312,-7.1312,-7.1312,-7.1312,-7.1312,-7.1312,-7.1312,-7.1312,-7.2448,-7.4059,-7.597,-7.7834,-7.9792,-8.2372,-8.3636,-8.429,-8.4572,-8.4936,-8.55,-8.6211,-8.5851,-8.562,-8.6394,-8.7422,-8.8579,-8.9558,-9.083,-9.162,-9.1803,-9.1803,-9.1803,-9.1803,-9.1803,-9.1803,-9.1803,-9.1803,-9.1803,-9.1803,-9.1803,-9.2134,-9.2905,-9.2941,-9.2941,-9.2941,-9.217,-9.217,-9.2941,-9.217,-9.217,-9.2941,-9.3051,-9.3455,-3.5554,-3.7563,-3.9873,-4.3011,-4.4593,-4.5648,-4.6753,-5.0075,-5.2812,-5.2508,-5.5892,-5.9099,-5.9847,-6.0296,-6.0416,-6.0057,-5.9997,-5.9847,-5.9488,-5.9428,-5.9308,-5.8919,-5.8351,-5.7992,-5.7992,-5.6885,-5.6017,-5.5658,-5.4999,-5.4341,-5.3683,-5.4721,-5.5285,-5.5285,-5.7242,-5.8455,-5.8719,-6.029,-6.1095,-6.1129,-6.1772,-6.1975,-6.1772,-6.211,-6.2922,-6.4038,-6.4749,-6.5324,-6.5797,-6.7286,-6.8098,-6.8504,-6.9282,-7.0026,-7.0635,-7.0229,-7.0601,-7.1244,-7.0838,-7.0973,-7.1312,-7.1312,-7.1312,-7.1312,-7.1312,-7.1688,-7.2142,-7.2142,-7.305,-7.4413,-7.6164,-7.7601,-7.9243,-8.1887,-8.361,-8.4719,-8.5159,-8.5592,-8.5894,-8.5728,-8.5263,-8.524,-8.6281,-8.7398,-8.8579,-8.9842,-9.0984,-9.1803,-9.1803,-9.1803,-9.1803,-9.1803,-9.1803,-9.1803,-9.1803,-9.1803,-9.1803,-9.1803,-9.1803,-9.217,-9.3051,-9.3088,-9.3529,-9.4446,-9.3198,-9.2464,-9.2354,-9.2464,-9.2721,-9.3125,-9.4006,-9.463,-3.6182,-3.7262,-3.8567,-4.1756,-4.3162,-4.4041,-4.502,-4.8409,-5.1237,-5.0934,-5.3781,-5.6615,-5.7453,-5.8411,-5.8979,-5.865,-5.8471,-5.8231,-5.7902,-5.7723,-5.7483,-5.7124,-5.6795,-5.6615,-5.6615,-5.6047,-5.5388,-5.473,-5.4221,-5.3751,-5.3416,-5.4268,-5.5065,-5.5693,-5.7117,-5.8163,-5.8727,-5.9471,-5.9911,-6.0114,-6.0114,-6.0419,-6.0994,-6.1231,-6.1907,-6.299,-6.3937,-6.4749,-6.5527,-6.7015,-6.7726,-6.7996,-6.8808,-6.9451,-6.9857,-6.9519,-7.0094,-7.0973,-7.0601,-7.0838,-7.1312,-7.1312,-7.1312,-7.1312,-7.1312,-7.1969,-7.2714,-7.2498,-7.349,-7.4869,-7.5916,-7.7496,-7.9364,-8.1557,-8.3338,-8.478,-8.5767,-8.6126,-8.606,-8.5411,-8.5103,-8.5412,-8.6672,-8.7861,-8.9014,-9.0284,-9.1249,-9.1803,-9.1803,-9.1803,-9.1803,-9.1803,-9.1803,-9.1803,-9.1803,-9.1803,-9.1803,-9.1803,-9.2024,-9.2501,-9.3382,-9.3602,-9.4263,-9.5474,-9.4336,-9.3382,-9.2758,-9.3198,-9.3529,-9.3749,-9.4923,-9.5621,-3.5454,-3.6408,-3.7538,-3.8818,-4.0325,-4.1656,-4.2233,-4.5501,-4.8332,-4.8304,-5.1497,-5.4192,-5.3593,-5.5059,-5.6555,-5.7124,-5.6705,-5.6526,-5.7064,-5.6645,-5.6466,-5.7034,-5.6017,-5.5299,-5.5299,-5.47,-5.4012,-5.3324,-5.3264,-5.3481,-5.3835,-5.4183,-5.4952,-5.608,-5.6653,-5.72,-5.7949,-5.8693,-5.9404,-6.0114,-6.0114,-6.0114,-6.0182,-6.096,-6.1332,-6.1501,-6.2956,-6.4005,-6.4783,-6.6271,-6.7286,-6.7996,-6.8808,-6.9113,-6.9248,-6.9891,-7.0195,-7.0331,-7.1007,-7.1278,-7.1312,-7.1312,-7.1312,-7.1312,-7.1312,-7.1969,-7.2582,-7.16,-7.3871,-7.6226,-7.5436,-7.839,-8.185,-8.2754,-8.3549,-8.456,-8.6114,-8.6132,-8.5745,-8.5325,-8.5797,-8.6672,-8.7861,-8.91,-9.0284,-9.1509,-9.1803,-9.1803,-9.1803,-9.1803,-9.1803,-9.1803,-9.1803,-9.1803,-9.1803,-9.1803,-9.1803,-9.1803,-9.2574,-9.3382,-9.4189,-9.496,-9.5437,-9.5511,-9.5437,-9.5364,-9.5327,-9.4593,-9.463,-9.5401,-9.5474,-9.5914,-3.6006,-3.6358,-3.701,-3.8492,-3.9597,-4.0325,-4.0526,-4.4201,-4.7308,-4.6533,-4.9919,-5.2725,-5.2037,-5.3563,-5.485,-5.461,-5.476,-5.482,-5.461,-5.476,-5.482,-5.461,-5.4162,-5.3892,-5.3892,-5.3683,-5.3264,-5.2606,-5.2157,-5.2057,-5.2507,-5.2965,-5.3696,-5.4744,-5.5655,-5.6461,-5.7171,-5.7915,-5.8423,-5.8693,-5.8693,-5.893,-5.9404,-5.9708,-6.0385,-6.1332,-6.1873,-6.3057,-6.4681,-6.5696,-6.6542,-6.7218,-6.7523,-6.7929,-6.8368,-6.8639,-6.935,-7.0229,-7.05,-7.0906,-7.1312,-7.1312,-7.1312,-7.1312,-7.1312,-7.1969,-7.2714,-7.2364,-7.3906,-7.579,-7.6608,-7.8815,-8.1305,-8.3214,-8.4304,-8.4744,-8.4369,-8.4502,-8.47,-8.4797,-8.568,-8.6769,-8.7952,-8.9221,-9.0443,-9.162,-9.1803,-9.1803,-9.1803,-9.1803,-9.1803,-9.1803,-9.1803,-9.1803,-9.1803,-9.1803,-9.1803,-9.1803,-9.2611,-9.3455,-9.4263,-9.507,-9.5768,-9.6282,-9.6282,-9.5768,-9.474,-9.496,-9.5217,-9.5511,-9.6025,-9.6428,-3.6358,-3.6483,-3.6985,-3.8492,-3.8994,-3.917,-3.9371,-4.2443,-4.5258,-4.4955,-4.7884,-5.0579,-5.0538,-5.1648,-5.2606,-5.2815,-5.3054,-5.3114,-5.2875,-5.3234,-5.3354,-5.2905,-5.2845,-5.2845,-5.2845,-5.2845,-5.2486,-5.1618,-5.1139,-5.1183,-5.1996,-5.2327,-5.311,-5.4542,-5.5295,-5.5953,-5.6427,-5.6934,-5.7171,-5.7171,-5.7408,-5.778,-5.8287,-5.8795,-5.9708,-6.0926,-6.1197,-6.255,-6.4647,-6.5121,-6.5899,-6.6812,-6.6812,-6.7117,-6.759,-6.8098,-6.8944,-6.9891,-7.0398,-7.0906,-7.1312,-7.1312,-7.1312,-7.1312,-7.1312,-7.1969,-7.2714,-7.2364,-7.3906,-7.5777,-7.7006,-7.9093,-8.1495,-8.3459,-8.4058,-8.3798,-8.2691,-8.3259,-8.4253,-8.4729,-8.598,-8.7398,-8.8579,-8.9842,-9.0907,-9.1694,-9.1803,-9.1803,-9.1803,-9.1803,-9.1803,-9.1803,-9.1803,-9.1803,-9.1803,-9.1803,-9.1913,-9.2207,-9.3015,-9.3859,-9.4666,-9.5474,-9.6171,-9.6685,-9.6685,-9.6171,-9.5107,-9.5658,-9.5914,-9.5914,-9.6465,-9.6685,0.0,0.0,0.0,-3.8542,-3.8417,-3.8165,-3.8668,-4.0279,-4.203,-4.3298,-4.5562,-4.773,-4.9014,-4.9224,-4.9853,-5.1768,-5.1558,-5.1379,-5.2007,-5.2127,-5.2127,-5.2127,-5.2127,-5.2157,-5.2157,-5.2157,-5.1618,-5.0331,-5.0212,-5.09,-5.2428,-5.2557,-5.353,-5.5612,-5.5716,-5.5716,-5.5683,-5.5716,-5.5716,-5.5716,-5.6461,-5.6799,-5.6867,-5.8321,-5.9404,-6.0148,-6.0926,-6.2516,-6.458,-6.458,-6.5459,-6.6779,-6.6812,-6.6812,-6.7015,-6.8538,-6.9113,-6.9316,-7.0804,-7.1312,-7.1312,-7.1312,-7.1312,-7.1312,-7.1312,-7.1969,-7.2582,-7.1634,-7.3822,-7.6552,-7.6481,-7.9522,-8.2749,-8.3444,-8.2661,-8.1836,-8.1393,-8.2805,-8.4335,-8.5132,-8.6872,-8.8543,-8.9842,-9.0984,-9.1803,-9.1803,-9.1803,-9.1803,-9.1803,-9.1803,-9.1803,-9.1803,-9.1803,-9.1803,-9.1803,-9.1803,-9.2207,-9.3051,-9.3859,-9.4703,-9.5474,-9.6282,-9.6685,-9.6685,-9.6685,-9.6685,-9.6685,-9.6685,-9.6685,-9.6685,-9.6685,-9.6685,-3.7437,0.0,0.0,0.0,0.0,0.0,-3.7287,-3.9427,-4.1719,-4.2251,-4.4627,-4.6945,-4.7732,-4.8237,-4.8745,-4.9284,-4.9613,-4.9883,-5.0062,-5.0062,-5.0242,-5.072,-5.078,-5.096,-5.1439,-5.105,-5.0631,-5.0272,-4.9998,-5.0714,-5.2365,-5.402,-5.4812,-5.4905,-5.5446,-5.5446,-5.4905,-5.5446,-5.5716,-5.5716,-5.6461,-5.6799,-5.6833,-5.778,-5.8896,-6.0114,-6.0351,-6.1704,-6.3869,-6.4377,-6.5155,-6.6068,-6.6609,-6.6812,-6.7015,-6.8538,-6.9113,-6.9316,-7.0804,-7.1312,-7.1312,-7.1312,-7.1312,-7.1312,-7.1312,-7.1457,-7.1791,-7.2011,-7.3791,-7.6161,-7.9198,-8.2191,-8.4166,-8.268,-8.2152,-8.2024,-8.2439,-8.2941,-8.3746,-8.5028,-8.7054,-8.8911,-8.9888,-9.102,-9.1803,-9.1803,-9.1803,-9.1803,-9.1803,-9.1803,-9.1803,-9.1803,-9.1803,-9.1803,-9.1803,-9.2391,-9.2831,-9.3088,-9.441,-9.529,-9.5511,-9.6282,-9.6685,-9.6685,-9.6685,-9.6685,-9.6685,-9.6685,-9.6685,-9.6685,-9.6685,-9.6685,-3.8216,-3.8366,-3.8391,-3.8542,0.0,0.0,-3.7638,-3.8783,-4.0305,-4.0896,-4.2609,-4.4369,-4.5508,-4.6459,-4.711,-4.711,-4.7911,-4.8536,-4.8805,-4.9105,-4.9314,-4.9404,-4.9912,-5.0272,-5.0391,-5.0301,-5.0122,-4.9853,-5.0075,-5.1265,-5.3531,-5.4995,-5.5513,-5.5074,-5.5175,-5.4905,-5.416,-5.4566,-5.4803,-5.4803,-5.5547,-5.6055,-5.6393,-5.7103,-5.8423,-6.0114,-6.0114,-6.14,-6.3565,-6.4309,-6.5019,-6.5764,-6.6508,-6.7015,-6.7421,-6.8639,-6.9282,-6.9722,-7.0906,-7.1312,-7.1312,-7.1312,-7.1312,-7.1312,-7.1312,-7.1312,-7.1447,-7.2191,-7.4385,-7.7232,-8.0117,-8.2371,-8.3515,-8.1826,-8.1667,-8.2014,-8.2464,-8.3326,-8.4476,-8.6345,-8.7871,-8.9184,-9.0528,-9.136,-9.1803,-9.1803,-9.1803,-9.1803,-9.1803,-9.1803,-9.1803,-9.1803,-9.1803,-9.1803,-9.1803,-9.2611,-9.3235,-9.3565,-9.4813,-9.5658,-9.5988,-9.6465,-9.6685,-9.6685,-9.6685,-9.6685,-9.6685,-9.6685,-9.6685,-9.6685,-9.6685,-9.6685,-3.8793,-3.8969,-3.917,-4.0099,-3.9697,0.0,-3.8818,-3.8517,-3.8612,-3.9764,-4.0499,-4.1443,-4.3121,-4.4414,-4.5178,-4.5302,-4.6314,-4.7314,-4.8087,-4.8686,-4.8895,-4.8446,-4.9434,-4.9942,-4.9434,-4.9912,-4.9972,-4.9314,-5.0432,-5.2454,-5.5303,-5.5794,-5.5886,-5.5716,-5.5074,-5.4329,-5.3518,-5.3518,-5.3518,-5.3518,-5.4329,-5.5074,-5.575,-5.6562,-5.8084,-6.0114,-6.0114,-6.14,-6.3565,-6.4309,-6.5019,-6.5764,-6.6609,-6.732,-6.7996,-6.891,-6.962,-7.0297,-7.1041,-7.1312,-7.1312,-7.1312,-7.1312,-7.1312,-7.1312,-7.1379,-7.1616,-7.2576,-7.566,-7.8868,-7.9845,-8.0946,-8.1633,-8.0859,-8.1332,-8.1968,-8.206,-8.3826,-8.6072,-8.8468,-8.8902,-8.9507,-9.1473,-9.1803,-9.1803,-9.1803,-9.1803,-9.1803,-9.1803,-9.1803,-9.1803,-9.1803,-9.1803,-9.184,-9.195,-9.2758,-9.3565,-9.4373,-9.518,-9.5951,-9.6685,-9.6685,-9.6685,-9.6685,-9.6685,-9.6685,-9.6685,-9.6685,-9.6685,-9.6685,-9.6685,-9.6685,-3.9245,-3.9521,-3.9471,-3.9245,-3.9697,0.0,-3.8492,-3.9145,-4.0159,-4.0578,-4.1037,-4.1692,-4.2653,-4.3454,-4.4088,-4.4637,-4.5341,-4.6195,-4.7285,-4.7608,-4.8027,-4.8955,-4.9284,-4.9613,-5.0002,-5.0152,-4.9972,-4.9314,-5.1639,-5.4129,-5.6371,-5.7133,-5.6934,-5.575,-5.5581,-5.4871,-5.3518,-5.3518,-5.3518,-5.3518,-5.4871,-5.5581,-5.575,-5.707,-5.8558,-6.0114,-6.0114,-6.14,-6.3565,-6.4309,-6.5019,-6.5831,-6.7151,-6.776,-6.8064,-6.9451,-7.006,-7.0297,-7.1041,-7.1312,-7.1312,-7.1312,-7.1312,-7.1312,-7.1312,-7.1718,-7.261,-7.4822,-7.7006,-7.8742,-7.951,-8.0393,-8.0869,-8.0365,-8.1119,-8.2152,-8.3103,-8.487,-8.6846,-8.8911,-8.9313,-8.9825,-9.1546,-9.1803,-9.1803,-9.1803,-9.1803,-9.1803,-9.1803,-9.1803,-9.1803,-9.1803,-9.1803,-9.206,-9.2794,-9.3602,-9.441,-9.5217,-9.6025,-9.6539,-9.6685,-9.6685,-9.6685,-9.6685,-9.6685,-9.6685,-9.6685,-9.6685,-9.6685,-9.6685,-9.6685,-9.6685,-3.9546,-3.9697,-3.9622,-3.9346,-3.9697,0.0,0.0,-3.9094,-3.9726,-3.9822,-4.0024,-4.0404,-4.1071,-4.2452,-4.3582,-4.4047,-4.5367,-4.655,-4.7222,-4.7578,-4.8147,-4.9134,-4.9553,-4.9763,-4.9763,-5.0032,-5.0517,-5.1413,-5.3579,-5.5365,-5.6429,-5.7352,-5.6954,-5.4935,-5.54,-5.5006,-5.3518,-5.3518,-5.3518,-5.3518,-5.4634,-5.5344,-5.575,-5.6867,-5.8355,-6.0114,-6.0114,-6.1603,-6.4072,-6.4444,-6.5459,-6.6846,-6.7624,-6.8368,-6.9147,-6.9891,-7.0432,-7.0804,-7.1176,-7.1312,-7.1312,-7.1312,-7.1312,-7.1312,-7.1312,-7.209,-7.3322,-7.4923,-7.6508,-7.7707,-7.7672,-7.8802,-7.9933,-7.9933,-8.1355,-8.3103,-8.4207,-8.6005,-8.7742,-8.9091,-8.9748,-9.0408,-9.1583,-9.1803,-9.1803,-9.1803,-9.1803,-9.1803,-9.1803,-9.1803,-9.1803,-9.1803,-9.217,-9.2648,-9.3051,-9.4226,-9.507,-9.5474,-9.6282,-9.6685,-9.6685,-9.6685,-9.6685,-9.6685,-9.6685,-9.6685,-9.6685,-9.6685,-9.6685,-9.6685,-9.6685,-9.6685,-3.9672,-3.9772,-3.9823,-3.9722,-3.9848,-3.9848,0.0,0.0,0.0,-3.9044,-3.9019,-3.912,-3.9471,-4.1512,-4.3218,-4.3504,-4.5389,-4.7108,-4.7638,-4.8027,-4.8476,-4.9015,-4.9763,-4.9972,-4.9344,-4.9853,-5.118,-5.3502,-5.4794,-5.5683,-5.6086,-5.703,-5.6512,-5.4293,-5.5219,-5.5074,-5.3721,-5.3585,-5.3585,-5.3721,-5.4465,-5.5209,-5.5953,-5.6697,-5.8152,-6.0114,-6.025,-6.1975,-6.4613,-6.4749,-6.6102,-6.8132,-6.8132,-6.8977,-7.0195,-7.0364,-7.0804,-7.1312,-7.1312,-7.1312,-7.1312,-7.1312,-7.1312,-7.1379,-7.165,-7.2563,-7.368,-7.4559,-7.5709,-7.6555,-7.6048,-7.7561,-7.9371,-7.9822,-8.1996,-8.4207,-8.5123,-8.6976,-8.861,-8.9271,-9.0188,-9.1033,-9.1693,-9.1803,-9.1803,-9.1803,-9.1803,-9.1803,-9.1803,-9.1803,-9.1803,-9.1803,-9.2574,-9.3161,-9.3308,-9.4666,-9.5584,-9.5731,-9.6355,-9.6685,-9.6685,-9.6685,-9.6685,-9.6685,-9.6685,-9.6685,-9.6685,-9.6685,-9.6685,-9.6685,-9.6685,-9.6795,-3.9572,-4.0049,-4.03,-3.9823,-4.0425,-4.0877,-3.9848,0.0,-4.0199,-3.9697,0.0,-3.9471,-3.9044,0.0,0.0,-4.3381,-4.472,-4.6456,-4.8776,-4.8596,-4.8327,-4.8386,-4.9494,-4.9972,-4.9344,-4.9853,-5.1213,-5.3672,-5.3533,-5.3994,-5.5569,-5.6137,-5.5919,-5.4974,-5.5487,-5.531,-5.4465,-5.3822,-5.3822,-5.4465,-5.5243,-5.5987,-5.6697,-5.7442,-5.8626,-6.0148,-6.0858,-6.2482,-6.4647,-6.529,-6.6914,-6.8977,-6.8977,-6.9451,-7.0263,-7.0939,-7.1244,-7.1312,-7.1312,-7.1312,-7.1312,-7.1312,-7.1312,-7.1548,-7.2834,-7.3341,-7.3781,-7.5168,-7.5709,-7.598,-7.6589,-7.8195,-7.9787,-8.0524,-8.2984,-8.5123,-8.5278,-8.7413,-8.9307,-8.9381,-9.0629,-9.1693,-9.1767,-9.1803,-9.1803,-9.1803,-9.1803,-9.1803,-9.1803,-9.1803,-9.1803,-9.1803,-9.2574,-9.3382,-9.4079,-9.4997,-9.5804,-9.6539,-9.6649,-9.6685,-9.6685,-9.6685,-9.6685,-9.6685,-9.6685,-9.6685,-9.6685,-9.6685,-9.6685,-9.6685,-9.6685,-9.7089,-3.9622,-4.0099,-4.0375,-3.9823,-4.0275,-4.0752,-4.0275,-4.035,-4.0551,-4.0626,0.0,0.0,0.0,0.0,0.0,0.0,-4.4627,-4.6072,-4.7851,-4.8207,-4.8416,-4.8805,-4.9344,-4.9733,-4.9823,-5.1001,-5.2365,-5.3771,-5.4267,-5.4466,-5.4606,-5.5992,-5.602,-5.4244,-5.5595,-5.5784,-5.46,-5.4735,-5.4735,-5.46,-5.5784,-5.6494,-5.6833,-5.8017,-5.9099,-6.0182,-6.14,-6.2956,-6.4647,-6.5392,-6.6745,-6.8436,-6.891,-6.9823,-7.0872,-7.121,-7.1312,-7.1312,-7.1312,-7.1312,-7.1312,-7.1312,-7.1312,-7.1515,-7.2529,-7.3138,-7.3713,-7.4762,-7.5371,-7.5777,-7.6115,-7.7912,-7.9907,-8.0894,-8.328,-8.5468,-8.6138,-8.7923,-8.9417,-8.9417,-9.0702,-9.1803,-9.1803,-9.1803,-9.1803,-9.1803,-9.1803,-9.1803,-9.1803,-9.1803,-9.1803,-9.1803,-9.3015,-9.3932,-9.4263,-9.5474,-9.6355,-9.6685,-9.6685,-9.6685,-9.6685,-9.6685,-9.6685,-9.6685,-9.7163,-9.7163,-9.6685,-9.764,-9.7603,-9.6685,-9.6685,-9.7126,-3.9697,-4.0099,-4.0375,-3.9823,-4.0099,-4.0526,-4.0526,-4.0526,-4.0676,-4.1229,-4.1028,0.0,0.0,0.0,-4.2278,-4.3781,0.0,-4.5927,-4.7374,-4.7818,-4.8207,-4.8686,-4.9045,-4.9583,-5.0421,-5.1698,-5.2671,-5.3346,-5.4006,-5.4215,-5.3745,-5.5655,-5.5945,-5.4173,-5.607,-5.6494,-5.5209,-5.5547,-5.5547,-5.5209,-5.6292,-5.7002,-5.7442,-5.8524,-5.9641,-6.0791,-6.211,-6.3531,-6.4952,-6.5696,-6.6745,-6.7996,-6.8808,-6.9891,-7.1041,-7.1244,-7.1312,-7.1312,-7.1312,-7.1312,-7.1312,-7.1312,-7.1447,-7.1751,-7.2462,-7.3206,-7.395,-7.4695,-7.5303,-7.5838,-7.6386,-7.8327,-8.0543,-8.1815,-8.4217,-8.6281,-8.7149,-8.861,-8.9748,-8.9748,-9.0849,-9.1803,-9.1803,-9.1803,-9.1803,-9.1803,-9.1803,-9.1803,-9.1803,-9.1803,-9.1803,-9.1803,-9.3088,-9.4042,-9.4263,-9.5584,-9.6465,-9.6685,-9.6685,-9.6685,-9.6685,-9.6685,-9.6685,-9.6685,-9.7273,-9.7273,-9.6685,-9.786,-9.786,-9.6722,-9.6942,-9.7456,-3.9697,-4.0099,-4.0375,-3.9823,-4.0099,-4.0526,-4.0526,-4.0526,-4.0676,-4.1229,-4.1329,-4.1304,-4.1304,-4.1853,-4.2998,-4.4936,-4.5327,0.0,0.0,-4.7728,-4.7339,-4.7369,-4.8506,-4.9763,-5.1079,-5.1199,-5.1498,-5.2222,-5.1683,-5.1892,-5.3181,-5.4804,-5.5697,-5.5581,-5.7066,-5.7476,-5.6731,-5.6055,-5.6055,-5.6731,-5.6799,-5.7543,-5.893,-5.8998,-6.0216,-6.2347,-6.3125,-6.4309,-6.5696,-6.6474,-6.7218,-6.7996,-6.8808,-6.9553,-7.0297,-7.1041,-7.1312,-7.1312,-7.1312,-7.1312,-7.1312,-7.1312,-7.1785,-7.2496,-7.324,-7.3984,-7.4728,-7.5473,-7.5676,-7.6096,-7.8038,-7.9878,-8.1825,-8.3678,-8.6138,-8.8169,-8.8169,-8.9417,-9.0555,-9.0555,-9.1216,-9.1803,-9.1803,-9.1803,-9.1803,-9.1803,-9.1803,-9.1803,-9.1803,-9.1803,-9.1803,-9.1803,-9.2611,-9.3455,-9.4226,-9.507,-9.5878,-9.6649,-9.6685,-9.6685,-9.6685,-9.6685,-9.6685,-9.6685,-9.6722,-9.6722,-9.6685,-9.6759,-9.6759,-9.6722,-9.7493,-9.83,-4.0149,-4.0651,-4.0927,-4.0375,-4.0651,-4.0978,-4.0601,-4.1078,-4.1656,-4.1831,-4.2183,-4.2308,-4.1957,-4.2525,-4.3371,-4.4453,-4.5411,-4.6421,0.0,-4.7818,-4.8117,-4.8566,-4.8985,-4.9613,-5.0481,-5.096,-5.1498,-5.2157,-5.2007,-5.2067,-5.2516,-5.4237,-5.5065,-5.4973,-5.6592,-5.7205,-5.6799,-5.7543,-5.778,-5.7543,-5.8524,-5.9235,-5.9742,-6.0283,-6.1197,-6.2448,-6.37,-6.4783,-6.5797,-6.7015,-6.7658,-6.803,-6.9316,-6.9958,-7.0297,-7.1041,-7.1312,-7.1312,-7.1312,-7.1312,-7.1312,-7.1312,-7.1819,-7.2462,-7.2699,-7.3646,-7.4661,-7.4897,-7.6266,-7.7754,-7.8445,-8.0941,-8.3379,-8.4051,-8.5846,-8.7545,-8.8096,-8.905,-8.9968,-9.0519,-9.1253,-9.1803,-9.1803,-9.1803,-9.1803,-9.1803,-9.1803,-9.1803,-9.1803,-9.1803,-9.1803,-9.1803,-9.2574,-9.3418,-9.4226,-9.5547,-9.6428,-9.6685,-9.6685,-9.6685,-9.6685,-9.6685,-9.6685,-9.6685,-9.7199,-9.7236,-9.6685,-9.7787,-9.775,-9.6722,-9.808,-9.8851,-4.0124,-4.0475,-4.0701,-4.0551,-4.0777,-4.1053,-4.1078,-4.1656,-4.2208,-4.2409,-4.2735,-4.3083,-4.3118,-4.3412,-4.4028,-4.5122,-4.5893,-4.6596,0.0,-4.7878,-4.8536,-4.9194,-4.9464,-4.9883,-5.0511,-5.096,-5.1289,-5.1498,-5.1708,-5.1858,-5.1858,-5.4175,-5.55,-5.5357,-5.7215,-5.805,-5.7611,-5.8558,-5.8761,-5.8321,-5.9505,-6.0385,-6.0926,-6.1467,-6.2381,-6.3632,-6.458,-6.5561,-6.6542,-6.7523,-6.8064,-6.8436,-6.9688,-7.0195,-7.0297,-7.1041,-7.1312,-7.1312,-7.1312,-7.1312,-7.1345,-7.1616,-7.2191,-7.2834,-7.3105,-7.4018,-7.5195,-7.6139,-7.7456,-7.8954,-8.0591,-8.2576,-8.4383,-8.5081,-8.6354,-8.7655,-8.8463,-8.9271,-9.0078,-9.0886,-9.1436,-9.1803,-9.1803,-9.1803,-9.1803,-9.1803,-9.1803,-9.1803,-9.1803,-9.1803,-9.1803,-9.1803,-9.2281,-9.3088,-9.4189,-9.5768,-9.6685,-9.6685,-9.6685,-9.6685,-9.6685,-9.6685,-9.6979,-9.753,-9.7493,-9.7493,-9.7566,-9.8007,-9.7713,-9.6722,-9.808,-9.8851]},{"header":{"parameterUnit":"m.s-1","parameterCategory":1,"la1":30.6,"la2":29.2853,"lo1":-89.7004,"lo2":-87.6739,"dy":0.0162,"dx":0.0183,"nx":112,"ny":82,"refTime":"2024-04-02T18:00:00:Z","depth":0,"parameterNumber":3,"parameterNumberName":"V-component_of_WINDS"},"data":[0.0,0.0,0.0,0.0,0.0,0.0,0.0,0.0,0.0,0.0,0.0,0.0,0.0,0.0,0.0,0.0,0.0,0.0,0.0,0.0,0.0,0.0,0.0,0.0,0.0,0.0,0.0,0.0,0.0,0.0,0.0,0.0,0.0,0.0,0.0,0.0,0.0,0.0,0.0,0.0,0.0,0.0,0.0,0.0,0.0,0.0,0.0,0.0,0.0,0.0,0.0,0.0,0.0,0.0,0.0,0.0,0.0,0.0,0.0,0.0,0.0,0.0,0.0,0.0,0.0,0.0,0.0,0.0,0.0,0.0,0.0,0.0,0.0,0.0,0.0,0.0,0.0,0.0,0.0,0.0,0.0,0.0,0.0,0.0,0.0,0.0,0.0,0.0,0.0,0.0,-2.9336,-2.9705,-3.1319,-3.2599,-3.348,-3.4122,-3.3627,-3.1623,0.0,0.0,0.0,0.0,0.0,0.0,0.0,0.0,0.0,0.0,0.0,0.0,0.0,0.0,0.0,0.0,0.0,0.0,0.0,0.0,0.0,0.0,0.0,0.0,0.0,0.0,0.0,0.0,0.0,0.0,0.0,0.0,0.0,0.0,0.0,0.0,0.0,0.0,0.0,0.0,0.0,0.0,0.0,0.0,0.0,0.0,0.0,0.0,0.0,0.0,0.0,0.0,0.0,0.0,0.0,0.0,0.0,0.0,0.0,0.0,0.0,0.0,0.0,0.0,0.0,0.0,0.0,0.0,0.0,0.0,0.0,0.0,0.0,0.0,0.0,0.0,0.0,0.0,0.0,0.0,0.0,0.0,0.0,0.0,0.0,0.0,0.0,0.0,0.0,0.0,0.0,0.0,0.0,0.0,0.0,0.0,0.0,0.0,0.0,0.0,0.0,0.0,0.0,0.0,-3.0996,-3.0038,-3.1665,-3.3213,-3.4108,-3.3614,-3.3093,-3.2732,0.0,0.0,0.0,0.0,0.0,0.0,0.0,0.0,0.0,0.0,0.0,0.0,0.0,0.0,0.0,0.0,0.0,0.0,0.0,0.0,0.0,0.0,0.0,0.0,0.0,0.0,0.0,0.0,0.0,0.0,0.0,0.0,0.0,0.0,0.0,0.0,0.0,0.0,0.0,0.0,0.0,0.0,0.0,0.0,0.0,0.0,0.0,0.0,0.0,0.0,0.0,0.0,0.0,0.0,0.0,0.0,0.0,0.0,0.0,0.0,0.0,0.0,0.0,0.0,0.0,0.0,0.0,0.0,0.0,0.0,0.0,0.0,0.0,0.0,0.0,0.0,0.0,0.0,0.0,0.0,0.0,0.0,0.0,0.0,0.0,0.0,0.0,0.0,0.0,0.0,0.0,0.0,0.0,0.0,0.0,0.0,0.0,0.0,0.0,0.0,0.0,0.0,0.0,-3.1502,-3.0179,-3.0576,-3.2038,-3.328,-3.4028,-3.3708,-3.3334,-3.3,-3.4509,0.0,0.0,0.0,0.0,0.0,0.0,0.0,0.0,0.0,0.0,0.0,0.0,0.0,0.0,0.0,0.0,0.0,0.0,0.0,0.0,0.0,0.0,0.0,0.0,0.0,0.0,0.0,0.0,0.0,0.0,0.0,0.0,0.0,0.0,0.0,0.0,0.0,0.0,0.0,0.0,0.0,0.0,0.0,0.0,0.0,0.0,0.0,0.0,0.0,0.0,0.0,0.0,0.0,0.0,0.0,0.0,0.0,0.0,0.0,0.0,0.0,0.0,0.0,0.0,0.0,0.0,0.0,0.0,0.0,0.0,0.0,0.0,0.0,0.0,0.0,0.0,0.0,0.0,0.0,0.0,0.0,0.0,0.0,0.0,0.0,0.0,0.0,0.0,0.0,0.0,0.0,0.0,0.0,0.0,0.0,0.0,0.0,0.0,0.0,0.0,0.0,0.0,-3.1329,-2.9432,-3.1049,-3.2345,-3.332,-3.3935,-3.3734,-3.3467,-3.3213,-3.3427,0.0,0.0,0.0,0.0,0.0,0.0,0.0,0.0,0.0,0.0,0.0,0.0,0.0,0.0,0.0,0.0,0.0,0.0,0.0,0.0,0.0,0.0,0.0,0.0,0.0,0.0,0.0,0.0,0.0,0.0,0.0,0.0,0.0,0.0,0.0,0.0,0.0,0.0,0.0,0.0,0.0,0.0,0.0,0.0,0.0,0.0,0.0,0.0,0.0,0.0,0.0,0.0,0.0,0.0,0.0,0.0,0.0,0.0,0.0,0.0,0.0,0.0,0.0,0.0,0.0,0.0,0.0,0.0,0.0,0.0,0.0,0.0,0.0,0.0,0.0,0.0,0.0,0.0,0.0,0.0,0.0,0.0,0.0,0.0,0.0,0.0,0.0,0.0,0.0,0.0,0.0,0.0,0.0,0.0,0.0,0.0,0.0,0.0,0.0,0.0,0.0,0.0,-3.1593,-2.9887,-3.1089,-3.2519,-3.3627,-3.4242,-3.328,-3.2973,-3.3774,-3.308,0.0,0.0,0.0,0.0,0.0,0.0,0.0,0.0,0.0,0.0,0.0,0.0,0.0,0.0,0.0,0.0,0.0,0.0,0.0,0.0,0.0,0.0,0.0,0.0,0.0,0.0,0.0,0.0,0.0,0.0,0.0,0.0,0.0,0.0,0.0,0.0,0.0,0.0,0.0,0.0,0.0,0.0,0.0,0.0,0.0,0.0,0.0,0.0,0.0,0.0,0.0,0.0,0.0,0.0,0.0,0.0,0.0,0.0,0.0,0.0,0.0,0.0,0.0,0.0,0.0,0.0,0.0,0.0,0.0,0.0,0.0,0.0,0.0,0.0,0.0,0.0,0.0,0.0,0.0,0.0,0.0,0.0,0.0,0.0,0.0,0.0,0.0,0.0,0.0,0.0,0.0,0.0,0.0,0.0,0.0,0.0,0.0,0.0,0.0,0.0,0.0,0.0,-3.25,-3.0675,-3.1664,-3.2759,-3.3587,-3.4015,-3.3641,-3.3534,-3.3868,0.0,0.0,0.0,0.0,0.0,0.0,0.0,0.0,0.0,0.0,0.0,0.0,0.0,0.0,0.0,0.0,0.0,0.0,0.0,0.0,0.0,0.0,0.0,0.0,0.0,0.0,0.0,0.0,0.0,0.0,0.0,0.0,0.0,0.0,0.0,0.0,0.0,0.0,0.0,0.0,0.0,0.0,0.0,0.0,0.0,0.0,0.0,0.0,0.0,0.0,0.0,0.0,0.0,0.0,0.0,0.0,0.0,0.0,0.0,0.0,0.0,0.0,0.0,0.0,0.0,0.0,0.0,0.0,0.0,0.0,0.0,0.0,0.0,0.0,0.0,0.0,0.0,0.0,0.0,0.0,0.0,0.0,0.0,0.0,0.0,0.0,0.0,0.0,0.0,0.0,0.0,0.0,0.0,0.0,0.0,0.0,0.0,0.0,0.0,0.0,0.0,0.0,-3.5897,-3.3012,-3.1062,-3.2131,-3.304,-3.3654,-3.3868,-3.3534,-3.344,-3.3721,0.0,0.0,0.0,0.0,0.0,0.0,0.0,0.0,0.0,0.0,0.0,0.0,0.0,0.0,0.0,0.0,0.0,0.0,0.0,0.0,0.0,0.0,0.0,0.0,0.0,0.0,0.0,0.0,0.0,0.0,0.0,0.0,0.0,0.0,0.0,0.0,0.0,0.0,0.0,0.0,0.0,0.0,0.0,0.0,0.0,0.0,0.0,0.0,0.0,0.0,0.0,0.0,0.0,0.0,0.0,0.0,0.0,0.0,0.0,0.0,0.0,0.0,0.0,0.0,0.0,0.0,0.0,0.0,0.0,0.0,0.0,0.0,0.0,0.0,0.0,0.0,0.0,0.0,0.0,0.0,0.0,0.0,0.0,0.0,0.0,0.0,0.0,0.0,0.0,0.0,0.0,0.0,0.0,0.0,0.0,0.0,0.0,0.0,0.0,0.0,0.0,0.0,-3.624,-3.2968,-3.0929,-3.2398,-3.3347,-3.3881,-3.3881,-3.2786,-3.2478,0.0,0.0,0.0,0.0,0.0,0.0,0.0,0.0,0.0,0.0,0.0,0.0,0.0,0.0,0.0,0.0,0.0,0.0,0.0,0.0,0.0,0.0,0.0,0.0,0.0,0.0,0.0,0.0,0.0,0.0,0.0,0.0,0.0,0.0,0.0,0.0,0.0,0.0,0.0,0.0,0.0,0.0,0.0,0.0,0.0,0.0,0.0,0.0,0.0,0.0,0.0,0.0,0.0,0.0,0.0,0.0,0.0,0.0,0.0,0.0,0.0,0.0,0.0,0.0,0.0,0.0,0.0,0.0,0.0,0.0,0.0,0.0,0.0,0.0,0.0,0.0,0.0,0.0,0.0,0.0,0.0,0.0,0.0,0.0,0.0,0.0,0.0,0.0,0.0,0.0,0.0,0.0,0.0,0.0,0.0,0.0,0.0,0.0,0.0,0.0,0.0,0.0,0.0,-3.6633,-3.3125,-3.1223,-3.2692,-3.3267,-3.3547,-3.3547,-3.2853,-3.2532,-3.2786,0.0,0.0,0.0,0.0,0.0,0.0,0.0,0.0,0.0,0.0,0.0,0.0,0.0,0.0,0.0,0.0,0.0,0.0,0.0,0.0,0.0,0.0,0.0,0.0,0.0,0.0,0.0,0.0,0.0,0.0,0.0,0.0,0.0,0.0,0.0,0.0,0.0,0.0,0.0,0.0,0.0,0.0,0.0,0.0,0.0,0.0,0.0,0.0,0.0,0.0,0.0,0.0,0.0,0.0,0.0,0.0,0.0,0.0,0.0,0.0,0.0,0.0,0.0,0.0,0.0,0.0,0.0,0.0,0.0,0.0,0.0,0.0,0.0,0.0,0.0,0.0,0.0,0.0,0.0,0.0,0.0,0.0,0.0,0.0,0.0,0.0,0.0,0.0,0.0,0.0,0.0,0.0,0.0,0.0,0.0,0.0,0.0,0.0,0.0,0.0,0.0,0.0,-3.6817,-3.3358,-3.1396,-3.2986,-3.3414,-3.3547,-3.3427,-3.2986,-3.2572,-3.2211,0.0,0.0,0.0,0.0,0.0,0.0,0.0,0.0,0.0,0.0,0.0,0.0,0.0,0.0,0.0,0.0,0.0,0.0,0.0,0.0,0.0,0.0,0.0,0.0,0.0,0.0,0.0,0.0,0.0,0.0,0.0,0.0,0.0,0.0,0.0,0.0,0.0,0.0,0.0,0.0,0.0,0.0,0.0,0.0,0.0,0.0,0.0,0.0,0.0,0.0,0.0,0.0,0.0,0.0,0.0,0.0,0.0,0.0,0.0,0.0,0.0,0.0,0.0,0.0,0.0,0.0,0.0,0.0,0.0,0.0,0.0,0.0,0.0,0.0,0.0,0.0,0.0,0.0,0.0,0.0,0.0,0.0,0.0,0.0,0.0,0.0,0.0,0.0,0.0,0.0,0.0,0.0,0.0,0.0,0.0,0.0,0.0,0.0,0.0,0.0,0.0,0.0,-3.711,-3.3474,-3.1463,-3.3227,-3.3668,-3.3721,-3.344,-3.3093,-3.2532,-3.1677,0.0,0.0,0.0,0.0,0.0,0.0,0.0,0.0,0.0,0.0,0.0,0.0,0.0,0.0,0.0,0.0,0.0,0.0,0.0,0.0,0.0,0.0,0.0,0.0,0.0,0.0,0.0,0.0,0.0,0.0,0.0,0.0,0.0,0.0,0.0,0.0,0.0,0.0,0.0,0.0,0.0,0.0,0.0,0.0,0.0,0.0,0.0,0.0,0.0,0.0,0.0,0.0,0.0,0.0,0.0,0.0,0.0,0.0,0.0,0.0,-3.9448,-3.9493,0.0,0.0,0.0,0.0,0.0,0.0,0.0,0.0,0.0,0.0,0.0,0.0,0.0,0.0,0.0,0.0,0.0,0.0,0.0,0.0,0.0,0.0,0.0,0.0,0.0,0.0,0.0,0.0,0.0,0.0,0.0,0.0,0.0,0.0,0.0,0.0,0.0,0.0,0.0,0.0,-3.711,-3.3474,-3.1463,-3.3227,-3.3467,-3.348,-3.3414,-3.2719,-3.2011,-3.1356,-3.1169,0.0,0.0,0.0,0.0,0.0,0.0,0.0,0.0,0.0,0.0,0.0,0.0,0.0,0.0,0.0,0.0,0.0,0.0,0.0,0.0,0.0,0.0,0.0,0.0,0.0,0.0,0.0,0.0,0.0,0.0,0.0,0.0,0.0,0.0,0.0,0.0,0.0,0.0,0.0,0.0,0.0,0.0,0.0,0.0,0.0,0.0,0.0,0.0,0.0,0.0,0.0,0.0,0.0,0.0,0.0,0.0,0.0,0.0,0.0,-4.008,-3.9705,0.0,0.0,0.0,0.0,0.0,0.0,0.0,0.0,0.0,0.0,0.0,0.0,0.0,0.0,0.0,0.0,0.0,0.0,0.0,0.0,0.0,0.0,0.0,0.0,0.0,0.0,0.0,0.0,0.0,0.0,0.0,0.0,0.0,0.0,0.0,0.0,0.0,0.0,0.0,0.0,-3.5747,-3.3028,-3.1463,-3.3227,-3.3414,-3.3414,-3.3414,-3.2732,-3.2011,-3.1276,-3.0955,0.0,0.0,0.0,0.0,0.0,0.0,0.0,0.0,0.0,0.0,0.0,0.0,0.0,0.0,0.0,0.0,0.0,0.0,0.0,0.0,0.0,0.0,0.0,0.0,0.0,0.0,0.0,0.0,0.0,0.0,0.0,0.0,0.0,0.0,0.0,0.0,0.0,0.0,0.0,0.0,0.0,0.0,0.0,0.0,0.0,0.0,0.0,0.0,0.0,0.0,0.0,0.0,0.0,-4.1237,-4.166,-4.2168,-4.3457,-4.3476,-4.2441,-4.1797,-4.082,-3.9746,-4.1055,0.0,0.0,0.0,0.0,0.0,0.0,0.0,0.0,0.0,0.0,0.0,0.0,0.0,0.0,0.0,0.0,0.0,0.0,0.0,0.0,0.0,0.0,-4.1522,-4.2288,-4.0971,-3.9667,-3.9757,0.0,0.0,0.0,0.0,0.0,0.0,0.0,0.0,0.0,0.0,0.0,-3.4034,-3.2351,-3.145,-3.316,-3.3334,-3.3334,-3.3334,-3.2799,-3.2091,-3.1209,-3.0822,-3.0394,0.0,0.0,0.0,0.0,0.0,0.0,0.0,0.0,0.0,0.0,0.0,0.0,0.0,0.0,0.0,0.0,0.0,0.0,0.0,0.0,0.0,0.0,0.0,0.0,0.0,0.0,0.0,0.0,0.0,0.0,0.0,0.0,-4.1625,-3.9628,0.0,0.0,0.0,0.0,0.0,0.0,0.0,0.0,0.0,0.0,0.0,0.0,0.0,-3.993,-4.0717,-4.1545,-4.162,-4.1168,-4.3817,-4.4453,-4.3496,-4.4824,-4.5312,-4.5176,-4.543,0.0,-4.1426,-4.0898,0.0,0.0,0.0,0.0,0.0,0.0,0.0,0.0,0.0,0.0,0.0,0.0,0.0,0.0,0.0,0.0,0.0,0.0,0.0,0.0,0.0,0.0,-4.1882,-4.0052,-4.0036,-3.9695,-3.7249,-3.5173,-3.4018,-3.5377,-3.3635,-3.2628,0.0,0.0,0.0,0.0,0.0,0.0,-3.3606,-3.2085,-3.137,-3.2879,-3.304,-3.304,-3.304,-3.2492,-3.1784,-3.0902,-3.0341,-2.9887,-2.9553,-2.9299,0.0,0.0,0.0,0.0,0.0,0.0,0.0,0.0,0.0,0.0,0.0,0.0,0.0,0.0,0.0,0.0,0.0,0.0,0.0,0.0,0.0,0.0,0.0,0.0,0.0,0.0,0.0,0.0,0.0,-4.371,-4.2639,-3.9338,-4.0383,-4.0721,0.0,0.0,0.0,0.0,0.0,0.0,0.0,0.0,0.0,-4.2381,-4.1465,-4.0986,-4.1053,-4.2407,-4.334,-4.373,-4.5781,-4.6562,-4.6269,-4.7598,-4.8066,-4.7871,-4.8301,-4.7305,-4.5273,-4.3691,-4.2832,-4.2422,0.0,0.0,0.0,0.0,-4.2012,-4.2676,-4.3223,-4.3418,-4.3418,-4.3418,0.0,0.0,0.0,0.0,0.0,0.0,0.0,-4.1191,-4.123,-4.1189,-4.0916,-4.0529,-3.8834,-3.6868,-3.5638,-3.3442,-3.1768,-3.3091,-3.1719,-3.0708,-3.1315,-3.1298,0.0,0.0,0.0,-3.024,-3.1805,-3.1103,-3.1116,-3.2585,-3.2585,-3.2478,-3.2478,-3.1944,-3.1303,-3.0595,-2.9993,-2.9472,-2.9005,-2.9018,-2.9419,0.0,0.0,0.0,0.0,0.0,0.0,0.0,0.0,0.0,0.0,0.0,0.0,0.0,0.0,0.0,0.0,0.0,0.0,0.0,0.0,0.0,0.0,0.0,0.0,0.0,0.0,0.0,0.0,-4.3798,-4.3106,-3.8686,-4.0466,-4.1354,0.0,0.0,0.0,0.0,0.0,0.0,-4.5031,-4.4341,-4.3708,-4.3302,-4.3064,-4.2913,-4.248,-4.4062,-4.5351,-4.6328,-4.7519,-4.8301,-4.875,-4.9844,-5.0215,-5.0019,-5.0137,-4.9629,-4.8535,-4.6289,-4.4707,-4.3652,-4.2676,-4.2226,-4.2226,-4.2734,-4.3398,-4.416,-4.5039,-4.5273,-4.5078,-4.4551,-4.3789,-4.2754,-4.0937,0.0,0.0,0.0,0.0,-4.1582,-4.2012,-4.1133,-4.0296,-4.0491,-3.7743,-3.4914,-3.4373,-3.232,-3.0831,-3.0966,-3.0184,-2.9379,-2.8724,-2.835,0.0,-2.8845,-2.8551,-2.8791,-3.0274,-3.0408,-3.0835,-3.2078,-3.1944,-3.177,-3.177,-3.1223,-3.0675,-3.0167,-2.9659,-2.9138,-2.8631,-2.8738,-2.8991,-2.9366,0.0,0.0,0.0,0.0,0.0,0.0,0.0,0.0,0.0,0.0,0.0,0.0,0.0,0.0,0.0,0.0,0.0,0.0,0.0,0.0,0.0,0.0,0.0,0.0,0.0,0.0,0.0,0.0,0.0,-3.8293,-4.1741,0.0,0.0,0.0,0.0,-4.3664,-4.5171,-4.6143,-4.6201,-4.5938,-4.5592,-4.5482,-4.5604,-4.5758,-4.6035,-4.7324,-4.8008,-4.8086,-4.9004,-4.9668,-5.0098,-5.0566,-5.0976,-5.1289,-5.0508,-5.0137,-4.9883,-4.7305,-4.5957,-4.541,-4.4121,-4.4121,-4.4785,-4.4433,-4.457,-4.4902,-4.457,-4.418,-4.4062,-4.5664,-4.5586,-4.4492,-4.2344,-4.1973,0.0,0.0,-4.1738,-4.2461,-4.2891,-4.1769,-4.0433,-3.9221,-3.738,-3.5031,-3.2805,-3.2001,-3.1089,-2.9528,-2.8831,-2.8657,-2.8617,0.0,-2.8257,-2.8577,-2.8604,-2.8818,-2.9459,-3.002,-3.0595,-3.1223,-3.1036,-3.0862,-3.0862,-3.0327,-2.9847,-2.9539,-2.9232,-2.8925,-2.8617,-2.8337,-2.8457,-2.9045,-2.9085,0.0,0.0,0.0,0.0,0.0,0.0,0.0,0.0,0.0,0.0,0.0,0.0,0.0,0.0,0.0,0.0,0.0,0.0,0.0,0.0,0.0,0.0,0.0,0.0,0.0,0.0,0.0,0.0,-4.352,-4.5311,0.0,-4.4618,-4.5372,-4.6376,-4.7456,-4.8761,-5.0331,-5.1993,-5.0007,-4.9251,-5.0099,-4.8118,-4.7109,-4.7519,-4.8262,-4.8633,-4.8633,-4.9238,-4.9766,-5.0195,-5.0605,-5.1035,-5.1406,-5.082,-5.043,-5.0078,-4.8867,-4.7617,-4.6387,-4.5371,-4.5,-4.5039,-4.5176,-4.5488,-4.5859,-4.5976,-4.5918,-4.5703,-4.5234,-4.4297,-4.3203,-4.2441,-4.2305,-4.2422,-4.2402,-4.2812,-4.3418,-4.4141,-4.175,-3.9176,-3.9125,-3.6124,-3.2979,-3.2243,-3.1717,-3.1089,-3.0087,-2.9646,-2.9325,-2.8951,-2.8644,-2.8484,-2.8591,-2.843,-2.8524,-2.9125,-2.9553,-2.994,-3.0341,-3.0287,-3.0154,-2.9967,-2.9579,-2.9232,-2.8938,-2.8818,-2.8631,-2.8323,-2.8203,-2.8337,-2.8751,-2.8764,-2.9192,0.0,0.0,0.0,0.0,0.0,0.0,0.0,0.0,0.0,0.0,0.0,0.0,0.0,0.0,0.0,0.0,0.0,0.0,0.0,0.0,0.0,0.0,0.0,0.0,0.0,-4.6058,-4.6813,-4.6746,-4.8531,-4.9364,-4.8083,-4.8812,-4.9816,-5.0896,-5.2377,-5.3878,-5.5288,-5.3075,-5.1817,-5.2271,-4.9521,-4.8144,-4.8418,-4.8711,-4.8867,-4.8867,-4.916,-4.9531,-4.9961,-5.0254,-5.0605,-5.0976,-5.0566,-5.0215,-4.9922,-4.9492,-4.8633,-4.7519,-4.6973,-4.6582,-4.6348,-4.6641,-4.6933,-4.7168,-4.7148,-4.7051,-4.6699,-4.5293,-4.4238,-4.3476,-4.3183,-4.3086,-4.3144,-4.3437,-4.3828,-4.4316,-4.5058,-4.1954,-3.8745,-3.9224,-3.5301,-3.1717,-3.1917,-3.165,-3.1236,-3.0742,-3.0327,-2.9847,-2.9152,-2.8965,-2.8898,-2.8898,-2.8644,-2.8657,-2.9259,-2.9419,-2.9553,-2.9753,-2.9673,-2.9499,-2.9219,-2.8911,-2.8657,-2.847,-2.8457,-2.8364,-2.815,-2.8243,-2.839,-2.8604,-2.8604,-2.8991,-2.9766,0.0,0.0,0.0,0.0,0.0,0.0,0.0,0.0,0.0,0.0,0.0,0.0,0.0,0.0,0.0,0.0,0.0,0.0,0.0,0.0,0.0,0.0,0.0,-4.2462,-4.7188,-4.98,-4.7529,-5.1122,-5.2703,-5.0067,-5.2226,-5.3808,-5.3858,-5.5867,-5.6647,-5.5502,-5.4636,-5.3448,-5.185,-4.9873,-4.8867,-4.8867,-4.8867,-4.8867,-4.8867,-4.8867,-4.9101,-4.9531,-4.9551,-4.9785,-5.0156,-4.9707,-4.9531,-4.9492,-4.9043,-4.8848,-4.8848,-4.8848,-4.8848,-4.8828,-4.8808,-4.8789,-4.8652,-4.7851,-4.7266,-4.6777,-4.5976,-4.5703,-4.5547,-4.4707,-4.4453,-4.4453,-4.4453,-4.4766,-4.5005,-4.5413,-4.2191,-3.8811,-3.8811,-3.5152,-3.1664,-3.1664,-3.165,-3.157,-3.1263,-3.0755,-3.01,-2.9219,-2.9299,-2.9486,-2.9472,-2.9219,0.0,-2.9806,-2.9633,-2.9459,-2.9472,-2.9219,-2.8925,-2.8644,-2.8337,-2.815,-2.8136,-2.8136,-2.8136,-2.8136,-2.843,-2.8591,-2.8604,-2.8631,-2.8911,-2.9499,0.0,0.0,0.0,0.0,0.0,0.0,0.0,0.0,0.0,0.0,0.0,0.0,0.0,0.0,0.0,0.0,0.0,0.0,0.0,0.0,0.0,-4.4597,-4.5391,-4.5936,-4.7931,-4.9621,-5.0569,-5.3206,-5.4787,-5.4436,-5.544,-5.6445,-5.7248,-5.8252,-5.8476,-5.7618,-5.5878,-5.393,-5.2355,-5.0034,-4.8867,-4.8867,-4.8867,-4.8867,-4.8867,-4.918,-4.9414,-4.9531,-4.9844,-5.0058,-5.0156,-4.9707,-4.9531,-4.9492,-4.9043,-4.8672,-4.8379,-4.8379,-4.8379,-4.8301,-4.7695,-4.7266,-4.7012,-4.709,-4.6836,-4.6484,-4.6562,-4.6367,-4.6094,-4.5859,-4.5781,-4.5781,-4.5781,-4.4812,-4.3623,-4.3438,-4.0021,-3.6558,-3.6298,-3.3873,-3.161,-3.1396,-3.1343,-3.1196,-3.0702,-3.0635,-3.0461,-2.9793,-2.9566,-2.9406,-2.9192,-2.8911,-2.8791,-2.8951,-2.8898,-2.8925,-2.9138,-2.9085,-2.9005,-2.8925,-2.8644,-2.8377,-2.8163,-2.8136,-2.8136,-2.8136,-2.823,-2.8377,-2.8604,-2.9032,-2.9432,0.0,0.0,0.0,0.0,0.0,0.0,0.0,0.0,0.0,0.0,0.0,0.0,0.0,0.0,0.0,0.0,0.0,0.0,0.0,0.0,0.0,0.0,-4.6658,-4.8406,-4.9245,-5.0028,-5.1348,-5.3557,-5.5365,-5.6646,-5.7223,-5.7951,-5.8679,-5.9307,-6.0085,-5.9959,-5.864,-5.6519,-5.4347,-5.2545,-5.0094,-4.8867,-4.8867,-4.8867,-4.8867,-4.8867,-4.9121,-4.9258,-4.9258,-4.9512,-4.9629,-4.9609,-4.9355,-4.9141,-4.8945,-4.8691,-4.834,-4.7969,0.0,0.0,0.0,0.0,-4.6933,-4.6601,-4.6836,-4.666,-4.6348,-4.6582,-4.6504,-4.6308,-4.6308,-4.6172,-4.6035,-4.6035,-4.5121,-4.3923,-4.2615,-3.9637,-3.6823,-3.5389,-3.3313,-3.1436,-3.1263,-3.1129,-3.0942,-3.0608,-3.0474,0.0,-3.014,-2.986,-2.9606,-2.9432,-2.8951,-2.8698,-2.8938,-2.8764,-2.8671,-2.8845,-2.8858,-2.8804,-2.8671,-2.8511,0.0,0.0,0.0,-2.8203,-2.8337,-2.8337,0.0,0.0,0.0,-2.9446,-2.974,-2.9913,0.0,0.0,-3.0341,-3.0474,0.0,0.0,0.0,0.0,0.0,0.0,0.0,0.0,0.0,0.0,0.0,0.0,0.0,0.0,0.0,0.0,-4.9239,-5.0921,-5.2287,-5.2904,-5.3959,-5.5968,-5.7198,-5.8102,-5.8654,-5.9633,-6.0286,-6.0412,-6.1021,-6.0572,-5.8283,-5.6473,0.0,0.0,0.0,-4.8867,-4.8867,-4.8867,-4.8867,-4.8867,-4.8906,-4.8906,-4.8867,-4.8906,-4.8906,-4.8867,-4.8867,-4.8613,-4.8203,-4.8203,-4.793,-4.7539,-4.791,-4.7812,-4.7441,-4.7441,-4.7187,-4.6855,-4.6855,0.0,0.0,-4.6308,-4.6308,-4.6289,-4.625,-4.5976,-4.5664,-4.5625,-4.528,-4.4318,-4.1749,-3.9864,-3.7751,-3.5044,-3.2987,-3.1516,-3.1089,-3.0875,-3.0675,-3.0608,-3.0181,-2.99,-3.0167,-2.9993,-2.9833,-2.986,-2.9152,-2.8791,-2.9325,-2.8898,-2.8577,-2.8644,-2.8631,0.0,-2.827,-2.8217,-2.8177,-2.815,-2.8136,-2.827,-2.8537,-2.8551,-2.8698,-2.8991,-2.8991,-2.9152,-2.9486,-2.9486,-2.9633,-2.9927,-3.0488,-3.0581,0.0,0.0,0.0,0.0,0.0,0.0,0.0,0.0,0.0,0.0,0.0,0.0,0.0,0.0,0.0,-4.9573,-5.0588,-5.1967,-5.4386,-5.4838,-5.5239,-5.6118,-5.7198,-5.8102,-5.8654,-5.9282,-6.0035,-6.0939,-5.9511,-5.7976,-5.6564,-5.4236,-5.2027,-4.9564,-4.9216,-4.8867,-4.8867,-4.8867,-4.8867,-4.8867,-4.9219,0.0,-4.8867,-4.9238,-4.9199,-4.8867,-4.8867,-4.8613,-4.8203,-4.8203,-4.7754,-4.707,-4.7148,-4.6914,-4.6543,-4.6543,-4.6504,-4.6426,-4.6426,-4.6367,-4.6308,-4.6308,-4.6308,-4.623,-4.5898,-4.5742,0.0,-4.5254,-4.2527,-3.9618,-3.8889,-3.7157,-3.486,-3.2209,-3.2662,-3.3052,-3.0623,-3.0127,-2.994,-2.9472,-2.9285,-2.9232,-2.9285,-2.9245,-2.9285,-2.9526,-2.9018,-2.8644,-2.8764,-2.8457,-2.8417,-2.8898,-2.8751,-2.8671,-2.8858,-2.8657,-2.8417,-2.8163,-2.8136,-2.8177,-2.823,-2.823,-2.8377,-2.8684,-2.8684,-2.8951,-2.9486,-2.9486,-2.9633,-2.9927,-3.0274,-3.0287,0.0,0.0,0.0,0.0,0.0,0.0,0.0,0.0,0.0,0.0,0.0,-4.8528,-4.8583,0.0,-5.0155,-5.0792,-5.2253,-5.3733,-5.4813,-5.544,-5.6018,-5.657,-5.7374,-5.8102,-5.8654,-5.8698,-5.9379,-6.114,-5.845,-5.6564,-5.5856,-5.3615,-5.1326,-4.9032,-4.8867,-4.8867,-4.8867,-4.8867,-4.8867,-4.8867,-4.9082,-4.9082,-4.8867,-4.9101,-4.9062,-4.8867,-4.8867,-4.8496,-4.7851,-4.7422,-4.6992,-4.6621,-4.6621,-4.6484,-4.6308,-4.6308,-4.6308,-4.6308,-4.6308,-4.6172,-4.5996,-4.5996,-4.584,-4.5625,-4.541,-4.5351,-4.5254,-4.4824,-4.2352,-3.984,-3.9253,-3.7771,-3.5903,-3.4157,-3.3695,-3.3383,-3.1692,-3.0274,-2.9392,-2.9098,-2.8925,-2.8871,-2.9018,-2.8791,-2.8698,-2.8991,-2.8657,-2.8377,-2.8377,-2.8243,-2.8257,-2.8564,-2.8457,-2.843,-2.8577,-2.8457,-2.831,-2.815,-2.8136,-2.8136,-2.8136,-2.8136,-2.8283,-2.8604,-2.8751,-2.9045,-2.9486,-2.9633,-2.978,-2.9913,-3.0074,-3.006,0.0,0.0,0.0,0.0,0.0,0.0,0.0,-4.8001,-4.8027,-5.0002,-4.9785,-4.9614,-5.0712,-5.143,-5.1767,-5.1816,-5.3708,-5.5139,-5.4913,-5.5641,-5.6344,-5.6671,-5.7323,-5.8001,-5.8654,-5.774,-5.8241,-6.0831,-5.7304,-5.5111,-5.5722,-5.3195,-5.0803,-4.9032,-4.8867,-4.8867,-4.8867,-4.8867,-4.8867,-4.8867,-4.8867,-4.8867,-4.8867,-4.8867,-4.8867,-4.8848,-4.8769,-4.834,-4.7637,-4.6777,-4.6426,-4.6426,-4.6328,-4.6308,-4.6308,-4.6308,-4.625,-4.6191,-4.6191,-4.5898,-4.5547,-4.5547,-4.5312,-4.5,-4.4922,-4.4902,-4.4824,-4.4394,-4.2857,-4.0962,-3.9805,-3.8838,-3.7691,-3.6075,-3.4737,-3.3618,-3.2767,-3.0634,-2.8938,-2.8871,-2.8671,-2.8591,-2.8818,-2.8457,-2.8243,-2.8564,-2.8337,-2.8136,-2.8136,-2.8136,-2.8136,-2.8136,-2.8136,-2.8136,-2.8136,-2.8136,-2.8136,-2.8136,-2.8136,-2.8136,-2.8136,-2.8136,-2.8283,-2.8604,-2.8831,-2.9125,-2.9486,-2.9713,-2.986,-2.9913,-2.9913,-2.9913,-5.0473,-4.8818,-4.7704,-4.89,-4.7568,-4.6973,0.0,-5.1623,-5.2127,-5.4132,-5.4621,-5.4343,-5.3088,-5.3048,-5.3348,-5.3431,-5.411,-5.4988,-5.5892,-5.6143,-5.6068,-5.5616,-5.6495,-5.7549,-5.8629,-5.6902,-5.6915,-6.018,-5.4894,-5.2519,-5.5012,-5.1439,-4.9216,-4.8848,-4.8867,-4.8867,-4.8867,-4.8867,-4.8867,-4.8867,-4.8867,-4.8867,-4.8867,-4.8867,-4.8867,-4.8828,-4.8457,-4.8223,-4.8066,-4.7207,-4.6855,-4.6816,-4.6445,-4.6308,-4.6308,-4.6308,-4.6074,-4.5742,-4.5742,-4.5469,-4.5098,-4.5098,-4.5058,-4.4961,-4.459,-4.4473,-4.4375,-4.3906,-4.1823,-3.9324,-3.7386,-3.7854,-3.7813,-3.3677,-3.417,-3.4735,-3.2402,-3.0156,-2.8577,-2.8297,-2.8217,-2.8203,-2.823,-2.819,-2.8243,-2.8564,-2.8337,-2.8136,-2.8136,-2.8136,-2.8136,-2.8136,-2.8136,-2.8136,-2.8136,-2.8136,-2.8136,-2.8136,-2.8136,-2.8136,-2.8136,-2.8136,-2.8283,-2.8604,-2.8644,-2.8925,-2.9486,-2.9513,-2.9659,-2.9913,-2.9913,-2.9913,-4.9385,-4.7835,-4.6904,-4.7063,-4.7454,-4.8551,-5.1533,-5.2815,-5.4042,-5.6406,-5.6037,-5.5547,-5.6632,-5.5129,-5.3945,-5.5022,-5.5115,-5.5089,-5.5239,-5.5541,-5.529,-5.411,-5.4938,-5.6043,-5.7148,-5.6042,-5.608,-5.7801,-5.3691,-5.1815,-5.3038,-5.0357,-4.8867,-4.8867,-4.8867,-4.8867,-4.8867,-4.8867,-4.8867,-4.8867,-4.8867,-4.8867,-4.8867,-4.8867,-4.8867,-4.8828,-4.8398,-4.8066,-4.7793,-4.7187,-4.6641,-4.6191,-4.6016,-4.5937,-4.5937,-4.5937,-4.582,-4.5644,-4.5391,-4.5019,-4.4668,-4.4668,-4.4473,-4.418,-4.3769,-4.3633,-4.3351,-4.1556,-4.0125,-3.8808,-3.6627,-3.6509,-3.6839,-3.6122,-3.4747,-3.3484,-3.347,-3.0796,-2.8297,-2.8163,-2.8136,-2.8136,-2.8136,-2.8136,-2.819,-2.8323,-2.823,-2.8136,-2.8136,-2.8136,-2.8136,-2.8136,-2.8136,-2.8136,-2.8136,-2.831,-2.8337,-2.815,-2.831,-2.8337,-2.815,-2.8323,-2.847,-2.8604,-2.8778,-2.9058,-2.9486,-2.9486,-2.9633,-2.9913,-2.9913,-3.0007,-4.8265,-4.7249,-4.6685,-4.6998,-4.8596,-5.069,-5.3025,-5.473,-5.6362,-5.8139,-5.7078,-5.6537,-5.8653,-5.5998,-5.4061,-5.6048,-5.5596,-5.4838,-5.4587,-5.4762,-5.4361,-5.2879,-5.3281,-5.4034,-5.4988,-5.4781,-5.523,-5.6577,-5.3078,-5.1387,-5.232,-5.0015,-4.873,-4.8848,-4.8867,-4.8867,-4.8867,-4.8867,-4.8867,-4.8867,-4.8867,-4.8867,-4.8867,-4.8867,-4.8867,-4.8828,-4.8398,-4.8027,-4.7715,-4.7148,-4.6504,-4.584,-4.5723,-4.5605,-4.5488,-4.5371,-4.5391,-4.541,-4.4863,-4.4394,-4.4004,-4.3887,-4.3633,-4.3301,-4.2988,-4.2891,-4.2488,-4.0665,-3.9992,-3.9087,-3.6406,-3.6487,-3.7188,-3.6568,-3.4539,-3.299,-3.3576,-3.0925,-2.8136,-2.8136,-2.8136,-2.8136,-2.8136,-2.8136,-2.8136,-2.8136,-2.8136,-2.8136,-2.8136,-2.8136,-2.8136,-2.8136,-2.8136,-2.8136,-2.8136,-2.835,-2.8377,-2.8163,-2.835,-2.8417,-2.827,-2.8404,-2.8564,-2.8724,-2.8764,-2.9018,-2.9486,-2.9406,-2.9593,-3.0034,-3.0034,-3.0194,-4.7177,-4.6614,-4.6469,-4.9727,-5.1394,-5.2965,-5.6196,-5.8471,-5.9793,-5.9537,-5.8597,-5.7922,-5.8103,-5.5207,-5.363,-5.5995,-5.4928,-5.3934,-5.4486,-5.411,-5.3356,-5.2251,-5.1699,-5.1599,-5.2176,-5.2696,-5.4382,-5.7549,-5.2569,-5.089,-5.4016,-5.0401,-4.8418,-4.8848,-4.8867,-4.8867,-4.8867,-4.8867,-4.8867,-4.8867,-4.8867,-4.8867,-4.8867,-4.8867,-4.8867,-4.8828,-4.8398,-4.8203,-4.8125,-4.7285,-4.668,-4.625,-4.584,-4.541,-4.5,-4.459,-4.4687,-4.4922,-4.4043,-4.3476,-4.3047,-4.2617,-4.248,-4.2461,-4.2441,-4.2441,-4.2441,-4.2261,-4.197,-4.0667,-3.6362,-3.822,-3.9411,-3.3038,-3.3201,-3.4018,-3.1887,-2.9774,-2.8136,-2.8136,-2.8136,-2.8136,-2.8136,-2.8136,-2.8136,-2.8136,-2.8136,-2.8136,-2.8136,-2.8136,-2.8136,-2.8136,-2.8136,-2.8136,-2.8136,-2.815,-2.815,-2.8136,-2.815,-2.8283,-2.8577,-2.831,-2.843,-2.9018,-2.8457,-2.8604,-2.9486,-2.9192,-2.9499,-3.0341,-3.0341,-3.0501,-4.561,-4.6997,-4.8706,-5.0516,-5.3284,-5.6077,-5.853,-6.0296,-6.141,-6.1226,-5.8986,-5.7042,-5.6849,-5.3579,-5.1609,-5.3708,-5.331,-5.2955,-5.3858,-5.416,-5.3331,-5.0745,-5.1574,-5.1875,-5.0569,-5.1891,-5.3569,-5.4944,-5.2808,-5.1672,-5.1959,-4.9813,-4.8711,-4.8848,-4.8867,-4.8867,-4.8867,-4.8867,-4.8867,-4.8867,-4.8867,-4.8867,-4.8867,-4.8867,-4.8691,-4.8418,-4.8281,-4.7891,-4.7305,-4.6738,-4.6094,-4.5391,-4.4648,-4.4473,-4.4492,-4.3457,-4.3535,-4.4062,-4.3496,-4.3203,-4.3008,-4.2558,-4.2422,-4.2383,-4.209,-4.2012,-4.1616,-3.986,-4.0344,-4.0072,-3.418,-3.4734,-3.596,-3.2217,-3.091,-3.0592,-3.1241,-2.9774,-2.8136,-2.8136,-2.8136,-2.8136,-2.8136,-2.8136,-2.8136,-2.8136,-2.8136,-2.8136,-2.8136,-2.8136,-2.8136,-2.8136,-2.8323,-2.8457,-2.8457,-2.8804,-2.8951,-2.8751,-2.8925,-2.8991,-2.8898,-2.8978,-2.9032,-2.9045,-2.9032,-2.9179,-2.9486,-2.9379,-2.9686,-3.0354,-3.0354,-3.0621,-4.6327,-4.8469,-5.0879,-5.2617,-5.5598,-5.8501,-5.9787,-6.0954,-6.141,-6.0072,-5.7474,-5.5329,-5.4714,-5.0956,-4.8916,-5.171,-5.0835,-5.0469,-5.2553,-5.298,-5.2427,-5.0695,-5.1398,-5.1548,-5.0318,-5.1498,-5.2874,-5.4199,-5.2832,-5.1883,-5.1874,-4.9712,-4.8691,-4.8848,-4.8867,-4.8867,-4.8867,-4.8867,-4.8867,-4.8867,-4.8867,-4.8867,-4.8848,-4.8691,-4.8476,-4.8183,-4.7891,-4.7441,-4.6875,-4.6308,-4.5664,-4.4961,-4.4238,-4.3945,-4.3828,-4.2969,-4.291,-4.3183,-4.2773,-4.2617,-4.2539,-4.2109,-4.1973,-4.1933,-4.166,-4.1582,-4.119,-3.9606,-4.0021,-4.0021,-3.4975,-3.4813,-3.5137,-3.2052,-3.0426,-2.9453,-3.0093,-2.9118,-2.8136,-2.8136,-2.8136,-2.8136,-2.8136,-2.8136,-2.8136,-2.8136,-2.8136,-2.8136,-2.8136,-2.8136,-2.819,-2.8297,-2.8484,-2.8644,-2.8751,-2.9112,-2.9245,-2.9045,-2.9219,-2.9285,-2.9205,-2.9285,-2.9339,-2.9352,-2.9432,-2.9593,-2.9793,-2.9793,-3.01,-3.0675,-3.0675,-3.0929,-4.9037,-5.103,-5.2995,-5.5628,-5.8201,-6.0057,-5.9997,-6.0505,-5.9882,-5.6181,-5.438,-5.2951,-5.1556,-4.7667,-4.5898,-4.9692,-4.7791,-4.7004,-5.082,-5.0921,-5.0971,-5.1975,-5.1222,-5.0845,-5.1348,-5.1448,-5.2603,-5.5171,-5.269,-5.1767,-5.3281,-5.0175,-4.8437,-4.8848,-4.8867,-4.8867,-4.8867,-4.8867,-4.8867,-4.8867,-4.8867,-4.8848,-4.8808,-4.8398,-4.8183,-4.8105,-4.7285,-4.6914,-4.6797,-4.5976,-4.5391,-4.4961,-4.4512,-4.3828,-4.3066,-4.3027,-4.2754,-4.2344,-4.1914,-4.1777,-4.1738,-4.1308,-4.1172,-4.1172,-4.1172,-4.1172,-4.1172,-4.1172,-4.1172,-4.0685,-3.8548,-3.7896,-3.6762,-3.2366,-3.1392,-3.0744,-2.8628,-2.8136,-2.8136,-2.8136,-2.8136,-2.815,-2.8163,-2.8163,-2.8163,-2.8163,-2.8177,-2.8177,-2.815,-2.8163,-2.8283,-2.8577,-2.8631,-2.8764,-2.9045,-2.9072,-2.9085,-2.9085,-2.9085,-2.9219,-2.9499,-2.9232,-2.9352,-2.99,-2.9659,-2.9806,-3.0354,-3.0381,-3.0675,-3.1223,-3.1223,-3.1383,-5.0152,-5.2587,-5.494,-5.7094,-5.886,-5.9817,-5.886,-5.877,-5.7915,-5.4493,-5.1994,-4.9551,-4.6807,-4.5094,-4.4824,-4.6986,-4.7683,-4.9012,-5.2076,-5.2703,-5.2678,-5.2176,-5.2929,-5.3406,-5.3105,-5.3858,-5.4394,-5.4696,-5.2352,-5.1782,-5.394,-5.0648,-4.875,-4.8848,-4.8867,-4.8867,-4.8867,-4.8867,-4.8867,-4.8867,-4.8867,-4.8691,-4.8359,-4.8262,-4.7851,-4.7246,-4.7031,-4.6582,-4.5957,-4.541,-4.4941,-4.4492,-4.3711,-4.3281,-4.3008,-4.2363,-4.2051,-4.1894,-4.1484,-4.1543,-4.1738,-4.1308,-4.1172,-4.1172,-4.1172,-4.1172,-4.1172,-4.1172,-4.1172,-4.0685,-3.8548,-3.7896,-3.6762,-3.2366,-3.1392,-3.0744,-2.8628,-2.8136,-2.8136,-2.8136,-2.8136,-2.8217,-2.8444,-2.8484,-2.8484,-2.8484,-2.8671,-2.8644,-2.8203,-2.835,-2.8524,-2.8604,-2.8991,-2.9285,-2.9366,-2.9566,-2.97,-2.97,-2.97,-2.9726,-2.9806,-2.974,-2.9766,-2.9913,-3.006,-3.0207,-3.0354,-3.0581,-3.0862,-3.1223,-3.1223,-3.1383,-5.2412,-5.467,-5.6825,-5.8201,-5.9099,-5.9099,-5.6915,-5.6166,-5.485,-5.096,-4.8536,-4.639,-4.3994,-4.2329,-4.214,-4.4383,-4.5459,-4.7179,-5.0946,-5.2352,-5.313,-5.3507,-5.4361,-5.4888,-5.4813,-5.5591,-5.5757,-5.4884,-5.2787,-5.1939,-5.2605,-5.0294,-4.8867,-4.8867,-4.8867,-4.8867,-4.8867,-4.8867,-4.8769,-4.8574,-4.8574,-4.834,-4.793,-4.7734,-4.7383,-4.6914,-4.6543,-4.6113,-4.5605,-4.4785,-4.4316,-4.4004,-4.3125,-4.2676,-4.2461,-4.1973,-4.168,-4.1484,-4.125,-4.1328,-4.1484,-4.125,-4.1172,-4.1172,-4.1172,-4.1172,-4.1172,-4.1172,-4.1172,-4.0841,-3.9688,-3.8548,-3.7082,-3.3676,-3.2052,-3.0744,-2.8628,-2.8136,-2.8136,-2.8136,-2.8136,-2.8243,-2.8551,-2.8604,-2.8644,-2.8778,-2.8938,-2.8911,-2.8577,-2.8684,-2.8845,-2.8978,-2.9285,-2.9539,-2.9659,-2.982,-2.9913,-2.9913,-2.9913,-2.9913,-2.9913,-3.0047,-3.0047,-2.9913,-3.0461,-3.0675,-3.0555,-3.0969,-3.1263,-3.1423,-3.1423,-3.1517,-5.49,-5.6765,-5.8291,-5.8949,-5.8919,-5.7872,-5.467,-5.3204,-5.1229,-4.6621,-4.4676,-4.3359,-4.1953,-3.975,-3.9305,-4.2644,-4.2944,-4.4446,-4.9213,-5.1322,-5.308,-5.5139,-5.5591,-5.5968,-5.6595,-5.7148,-5.6968,-5.5763,-5.3952,-5.2228,-5.0848,-4.9633,-4.8867,-4.8867,-4.8867,-4.8867,-4.8867,-4.8867,-4.8633,-4.8203,-4.8203,-4.7949,-4.748,-4.7109,-4.6894,-4.6797,-4.6016,-4.5644,-4.5488,-4.4219,-4.3672,-4.3535,-4.2734,-4.2168,-4.1797,-4.1797,-4.1543,-4.1172,-4.1172,-4.1172,-4.1172,-4.1172,-4.1172,-4.1172,-4.1172,-4.1172,-4.1172,-4.1172,-4.1172,-4.1172,-4.1172,-3.9864,-3.7737,-3.5621,-3.3512,-3.1241,-2.9118,-2.8473,-2.8136,-2.8136,-2.8177,-2.831,-2.8617,-2.8698,-2.8804,-2.9058,-2.9125,-2.9138,-2.9098,-2.9098,-2.9205,-2.9459,-2.9526,-2.9646,-2.99,-2.9913,-2.994,-2.9967,-2.994,-2.994,-2.9967,-3.0221,-3.0234,-2.998,-3.0795,-3.1102,-3.0849,-3.1396,-3.1664,-3.1664,-3.1664,-3.1664,-5.6149,-5.7423,-5.8291,-5.8949,-5.7872,-5.5957,-5.3174,-5.078,-4.7818,-4.318,-4.1624,-4.0516,-3.8601,-3.8696,-4.0181,-4.3514,-4.4863,-4.6938,-5.1103,-5.2678,-5.3909,-5.5239,-5.662,-5.7851,-5.883,-5.9433,-5.9217,-5.8092,-5.5878,-5.3602,-5.1526,-4.9813,-4.8867,-4.8867,-4.8867,-4.8867,-4.8867,-4.8867,-4.8633,-4.8203,-4.8203,-4.7793,-4.7051,-4.6973,-4.6738,-4.6387,-4.5898,-4.5469,-4.5058,-4.4101,-4.3496,-4.3125,-4.2617,-4.2168,-4.1797,-4.1797,-4.1543,-4.1172,-4.1172,-4.1172,-4.1172,-4.1172,-4.1172,-4.1172,-4.1172,-4.1172,-4.1172,-4.1172,-4.1172,-4.1172,-4.1172,-4.0841,-4.0021,-3.7896,-3.5621,-3.3512,-3.1407,-2.9453,-2.8136,-2.8136,-2.835,-2.8617,-2.8911,-2.9165,-2.9352,-2.9406,-2.9606,-2.9673,-2.9432,-2.9406,-2.9432,-2.9486,-2.97,-2.986,-2.9913,-2.9913,-3.002,-3.0274,-3.0047,-3.002,-3.0274,-3.0341,-3.0341,-3.0287,-3.0902,-3.1196,-3.1156,-3.1503,-3.1664,-3.1664,-3.1664,-3.1664,-5.7004,-5.8381,-5.9219,-5.9548,-5.7872,-5.5119,-5.1079,-4.8386,-4.5424,-4.0786,-3.9559,-3.905,-3.8093,-3.8148,-3.9109,-4.1415,-4.2339,-4.4281,-4.8838,-5.0444,-5.2302,-5.544,-5.7047,-5.8328,-5.9382,-6.001,-5.9662,-5.8259,-5.6175,-5.4192,-5.203,-4.9974,-4.8867,-4.8867,-4.8867,-4.8867,-4.8867,-4.8633,-4.8301,-4.7871,-4.7656,-4.7207,-4.6601,-4.6601,-4.6484,-4.6269,-4.5625,-4.5215,-4.4922,-4.3594,-4.293,-4.2676,-4.2031,-4.166,-4.1484,-4.1484,-4.1348,-4.1172,-4.1172,-4.1172,-4.1172,-4.1172,-4.1172,-4.1172,-4.1172,-4.1172,-4.1172,-4.1172,-4.1172,-4.1172,-4.1172,-4.1172,-4.0685,-3.839,-3.5298,-3.2381,-3.026,-2.9088,-2.839,-2.839,-2.8631,-2.8925,-2.9219,-2.9259,-2.9352,-2.9659,-2.97,-2.97,-2.9713,-2.9713,-2.9713,-2.9713,-2.9967,-3.014,-3.014,-3.0287,-3.0434,-3.0581,-3.0448,-3.0434,-3.0581,-3.0728,-3.0742,-3.0581,-3.1156,-3.1383,-3.1223,-3.153,-3.1664,-3.1664,-3.1664,-3.1664,-5.7423,-5.8979,-6.0057,-5.9907,-5.7693,-5.4281,-4.9583,-4.6501,-4.3479,-3.926,-3.8272,-3.8153,-3.8003,-3.7696,-3.789,-3.8992,-3.9666,-4.1618,-4.6245,-4.8309,-5.0971,-5.5491,-5.7248,-5.8504,-5.9558,-6.0186,-5.9896,-5.8771,-5.656,-5.4237,-5.1827,-4.9911,-4.8867,-4.8867,-4.8867,-4.8808,-4.873,-4.8379,-4.7949,-4.7441,-4.709,-4.6699,-4.6289,-4.6211,-4.6172,-4.6113,-4.5254,-4.4883,-4.4766,-4.3105,-4.2422,-4.2344,-4.1504,-4.1172,-4.1172,-4.1172,-4.1172,-4.1172,-4.1172,-4.1172,-4.1172,-4.1172,-4.1172,-4.1172,-4.1172,-4.1172,-4.1172,-4.1172,-4.1172,-4.1172,-4.1172,-4.1172,-4.0509,-3.7896,-3.4213,-3.0846,-2.8737,-2.8484,-2.8684,-2.8617,-2.8898,-2.9192,-2.9352,-2.9299,-2.9379,-2.9847,-2.9726,-2.9659,-2.9887,-2.9967,-3.0007,-3.0007,-3.0221,-3.0381,-3.0448,-3.0662,-3.0822,-3.0889,-3.0822,-3.0822,-3.0889,-3.1102,-3.1116,-3.0889,-3.1396,-3.1557,-3.1316,-3.1557,-3.1664,-3.1664,-3.1664,-3.1664,-5.6825,-5.862,-5.9937,-5.9338,-5.6286,-5.2695,-4.9823,-4.5783,-4.1833,-3.899,-3.7913,-3.7315,-3.6776,-3.7097,-3.7638,-3.8363,-4.0332,-4.2891,-4.5885,-4.9088,-5.2151,-5.5114,-5.7349,-5.9056,-6.0136,-6.0763,-6.1316,-6.1546,-5.7939,-5.3904,-4.938,-4.9032,-4.8867,-4.8867,-4.8867,-4.8672,-4.8281,-4.8223,-4.7793,-4.6992,-4.6953,-4.6699,-4.6289,-4.5918,-4.5742,-4.5683,-4.4824,-4.4453,-4.4355,-4.2988,-4.2422,-4.2344,-4.1504,-4.1172,-4.1172,-4.1172,-4.1172,-4.1172,-4.1172,-4.1172,-4.1172,-4.1172,-4.1172,-4.1172,-4.1172,-4.1172,-4.1172,-4.1172,-4.1172,-4.1172,-4.1172,-4.1172,-4.0178,-3.596,-3.3258,-3.1183,-2.9063,-2.8791,-2.8925,-2.8657,-2.9058,-2.9366,-2.9125,-2.9499,-2.986,-2.9913,-2.99,-2.9887,-2.9913,-3.0154,-3.0314,-3.0314,-3.0341,-3.0474,-3.0728,-3.0782,-3.0902,-3.1169,-3.0942,-3.0915,-3.1169,-3.1209,-3.1209,-3.1183,-3.1503,-3.165,-3.1623,-3.165,-3.1664,-3.1664,-3.1664,-3.1664,-5.6316,-5.886,-6.0535,-5.9877,-5.6735,-5.2785,-4.8955,-4.5125,-4.1594,-3.8931,-3.8182,-3.7793,-3.7165,-3.7255,-3.721,-3.6515,-3.6935,-3.8577,-4.1878,-4.3463,-4.6577,-5.2678,-5.4762,-5.6922,-6.001,-6.0537,-6.0512,-5.9844,-5.8685,-5.5856,-5.1326,-4.9748,-4.8867,-4.8867,-4.8867,-4.8769,-4.8594,-4.8086,-4.7656,-4.7305,-4.6543,-4.6094,-4.5918,-4.5469,-4.5293,-4.5254,-4.4668,-4.4394,-4.4297,-4.2969,-4.2422,-4.2344,-4.1504,-4.1172,-4.1172,-4.1172,-4.1172,-4.1172,-4.1172,-4.1172,-4.1172,-4.1172,-4.1172,-4.1172,-4.1172,-4.1172,-4.1172,-4.1172,-4.1172,-4.1172,-4.1172,-4.0197,-3.8127,-3.3932,-3.2282,-3.1285,-2.9335,-2.9098,-2.9272,-2.9152,-2.9459,-2.9713,-2.9593,-2.9619,-2.9713,-2.9887,-2.9766,-2.9713,-2.99,-3.0181,-3.0434,-3.0595,-3.0782,-3.0929,-3.1049,-3.1223,-3.137,-3.149,-3.1383,-3.137,-3.149,-3.149,-3.149,-3.149,-3.161,-3.1664,-3.1664,-3.1664,-3.1664,-3.1677,-3.1851,-3.1931,-5.4431,-5.7603,-5.9757,-5.9099,-5.5957,-5.2037,-4.8177,-4.4436,-4.1205,-3.911,-3.8542,-3.8182,-3.7524,-3.7554,-3.7034,-3.5176,-3.5146,-3.641,-3.907,-4.0023,-4.2961,-4.9816,-5.1599,-5.3984,-5.8428,-6.0035,-6.0527,-5.9898,-5.8756,-5.6896,-5.3615,-5.0621,-4.8867,-4.8867,-4.873,-4.8613,-4.8476,-4.7754,-4.7266,-4.7012,-4.6113,-4.5605,-4.5469,-4.5039,-4.4844,-4.4805,-4.4258,-4.4082,-4.4082,-4.2773,-4.2305,-4.2344,-4.1504,-4.1172,-4.1172,-4.1172,-4.1172,-4.1172,-4.1172,-4.1172,-4.1172,-4.1172,-4.1172,-4.1172,-4.1172,-4.1172,-4.1172,-4.1172,-4.1172,-4.1036,-4.0506,-3.8731,-3.62,-3.2784,-3.1432,-3.0752,-2.946,-2.992,-3.045,-2.9676,-3.0233,-3.0753,-2.9972,-2.9686,-2.9686,-2.9887,-2.974,-2.9686,-2.9887,-3.0247,-3.0568,-3.0768,-3.1129,-3.1356,-3.1356,-3.1623,-3.1797,-3.1797,-3.1797,-3.1797,-3.1797,-3.1717,-3.1664,-3.1664,-3.1664,-3.1664,-3.1664,-3.1757,-3.1797,-3.1797,-3.2091,-3.2238,-5.075,-5.4132,-5.7004,-5.6376,-5.3234,-4.9763,-4.7758,-4.3718,-4.0217,-3.9559,-3.8871,-3.8182,-3.7524,-3.7943,-3.7487,-3.478,-3.6301,-3.8162,-3.8865,-4.0752,-4.3388,-4.6778,-4.8159,-5.0569,-5.5013,-5.9408,-6.222,-6.2772,-5.8483,-5.5879,-5.5879,-5.1507,-4.8867,-4.8867,-4.8437,-4.8008,-4.7598,-4.7148,-4.6523,-4.5703,-4.5683,-4.5449,-4.5019,-4.459,-4.4414,-4.4355,-4.3476,-4.332,-4.3613,-4.2324,-4.2051,-4.2344,-4.1504,-4.1172,-4.1172,-4.1172,-4.1172,-4.1172,-4.1172,-4.1172,-4.1172,-4.1172,-4.1172,-4.1172,-4.1172,-4.1172,-4.1172,-4.1172,-4.1172,-4.0781,-3.8865,-3.6671,-3.4617,-3.2798,-3.0949,-2.9472,-2.9472,-3.1606,-3.2602,-3.0056,-3.1621,-3.2602,-2.988,-2.9726,-2.9913,-2.9913,-2.9913,-2.9913,-2.9913,-3.0421,-3.0795,-3.0795,-3.1316,-3.1664,-3.1664,-3.1931,-3.2104,-3.2104,-3.2104,-3.2104,-3.2104,-3.1824,-3.1664,-3.1664,-3.1664,-3.1664,-3.1664,-3.1957,-3.2104,-3.2104,-3.2398,-3.2545,-4.6651,-4.9404,-5.1588,-5.093,-4.9164,-4.704,-4.5035,-4.2432,-4.0217,-3.9559,-3.926,-3.8751,-3.7614,-3.8332,-3.8559,-3.6968,-3.7334,-3.8152,-3.8961,-4.0542,-4.3263,-4.7732,-5.3582,-5.765,-5.8654,-6.0738,-6.1918,-6.1718,-6.0326,-5.8118,-5.5041,-5.3495,-5.1391,-4.8581,-4.8281,-4.8008,-4.7578,-4.7148,-4.6641,-4.6094,-4.5508,-4.5,-4.457,-4.4141,-4.3769,-4.3476,-4.3203,-4.2988,-4.2773,-4.209,-4.1875,-4.1953,-4.1387,-4.1172,-4.1172,-4.1172,-4.1172,-4.1172,-4.1172,-4.1172,-4.1172,-4.1172,-4.1172,-4.1172,-4.1172,-4.1172,-4.1172,-4.1172,-4.0178,-3.8481,-3.6568,-3.452,-3.2357,-3.0733,-2.992,-2.9539,-2.974,-3.1763,-3.2661,-3.0315,-3.1934,-3.2983,-3.0447,-3.0327,-3.0515,-3.0515,-3.0515,-3.0515,-3.0515,-3.0849,-3.1089,-3.1089,-3.1436,-3.1664,-3.1664,-3.1757,-3.1891,-3.2091,-3.1917,-3.1891,-3.2091,-3.1824,-3.1664,-3.1664,-3.1864,-3.1971,-3.1971,-3.2265,-3.2505,-3.2706,-3.2799,-3.2946,-4.321,-4.5574,-4.7369,-4.7189,-4.5992,-4.4496,-4.324,-4.1444,-3.9918,-3.9499,-3.9409,-3.908,-3.7973,-3.8377,-3.8458,-3.7572,-3.7171,-3.7434,-3.8515,-4.003,-4.2861,-4.7857,-5.4687,-5.8855,-5.8504,-6.0412,-6.1542,-6.1215,-6.0317,-5.83,-5.4569,-5.3549,-5.1308,-4.766,-4.7637,-4.7598,-4.7344,-4.6758,-4.625,-4.5801,-4.4941,-4.4394,-4.4121,-4.3496,-4.3164,-4.3066,-4.2734,-4.2539,0.0,-4.1797,-4.166,-4.1758,-4.1348,-4.1172,-4.1172,-4.1172,-4.1172,-4.1172,-4.1172,-4.1172,-4.1172,-4.1172,-4.1172,-4.1172,-4.1172,-4.1172,-4.1016,-4.0197,-3.8882,-3.733,-3.4604,-3.2875,-3.1359,-2.9703,-2.9406,-2.9539,-2.9713,-3.1749,-3.2734,-3.0587,-3.2162,-3.3038,-3.0853,-3.0675,-3.0795,-3.0795,-3.0795,-3.0795,-3.0795,-3.1049,-3.1223,-3.1223,-3.149,-3.1664,-3.1664,-3.177,-3.1904,-3.2091,-3.1931,-3.1917,-3.2091,-3.1824,-3.1717,-3.1837,-3.2011,-3.2158,-3.2265,-3.2559,-3.2866,-3.3146,-3.3146,-3.324,0.0,-4.2372,-4.3928,-4.4616,-4.3419,-4.2102,-4.2132,-4.0726,0.0,-3.9409,-3.9409,-3.923,-3.8631,-3.8165,-3.7699,-3.7238,-3.6358,-3.6253,-3.7926,-3.9853,-4.2911,-4.7807,-5.2703,-5.5641,-5.5566,-5.893,-6.1115,-6.1065,-5.9017,-5.6796,-5.4581,-5.224,-4.963,-4.6579,-4.6621,-4.6816,-4.6797,-4.6055,-4.5449,-4.4961,-4.4121,-4.3711,-4.3672,-4.2812,-4.2656,-4.2988,-4.2168,-4.2012,-4.2285,-4.1484,-4.1406,-4.1719,-4.1328,-4.1172,-4.1172,-4.1172,-4.1172,-4.1172,-4.1172,-4.1172,-4.1172,-4.1172,-4.1172,-4.1172,-4.1172,-4.1016,-4.0509,-3.8548,-3.7737,-3.6529,-3.2782,-3.1717,-3.1146,-2.9471,-2.9272,-2.9486,-2.9486,-3.1606,-3.2793,-3.0831,-3.2318,-3.3125,-3.1123,-3.0835,-3.0849,-3.0849,-3.0849,-3.0849,-3.0849,-3.1089,-3.1263,-3.1263,-3.1503,-3.1664,-3.1664,-3.1931,-3.2104,-3.2131,-3.2131,-3.2144,-3.2158,-3.1891,-3.1864,-3.2131,-3.2158,-3.2318,-3.2612,-3.2879,-3.3146,-3.3414,-3.3414,-3.3414,-3.7734,0.0,-3.8601,-3.9738,-3.9679,-3.9469,0.0,-3.9738,-3.9409,-3.9409,-3.9409,-3.9529,-3.9858,-3.878,-3.8419,-4.0176,-3.88,-3.8069,-3.9876,-4.4053,-4.836,-5.2503,-5.6269,-5.8202,-5.7399,-5.9257,-6.0337,-5.9935,-5.9391,-5.7887,-5.5362,-5.3386,-5.1006,-4.7774,-4.6564,-4.582,-4.5469,-4.5605,-4.5293,-4.4531,-4.3984,-4.3711,-4.3672,-4.2812,-4.248,-4.2558,-4.2031,-4.168,-4.1445,-4.125,-4.123,-4.1308,-4.1211,-4.1172,-4.1172,-4.1172,-4.1172,-4.1172,-4.1172,-4.1172,-4.1172,-4.1172,-4.1172,-4.1172,-4.1172,-4.0021,-3.8548,-3.8054,-3.546,-3.2772,-3.1963,-3.0566,-2.9343,-2.9138,-2.9272,-2.9486,-2.9486,-3.1606,-3.2793,-3.0831,-3.2489,-3.3445,-3.1434,-3.1316,-3.1463,-3.1463,-3.1463,-3.1463,-3.1463,-3.1517,-3.157,-3.157,-3.1623,-3.1664,-3.1664,-3.1931,-3.2198,-3.2425,-3.2438,-3.2545,-3.2759,-3.2492,-3.2372,-3.2438,-3.2652,-3.2919,-3.3213,-3.328,-3.3347,-3.3414,-3.3414,-3.3414,-3.7554,-3.7345,-3.7614,-3.8601,-3.8871,-3.902,-3.9709,-3.9649,-3.9409,-3.9409,-3.9409,-3.9619,-4.0277,-3.8812,-3.8252,-4.0703,-3.9149,-3.8891,-4.242,-4.6527,-5.0594,-5.4486,-5.6972,-5.8428,-5.8604,-5.8981,-5.9182,-5.9156,-5.8905,-5.7172,-5.3813,-5.274,-5.0447,-4.6511,-4.5619,-4.5078,-4.5019,-4.5078,-4.4746,-4.4082,-4.3418,-4.3125,-4.3086,-4.2246,-4.1953,-4.2109,-4.1699,-4.1387,-4.1172,-4.1172,-4.1172,-4.1172,-4.1172,-4.1172,-4.1172,-4.1172,-4.1172,-4.1172,-4.1172,-4.1172,-4.1172,-4.1172,-4.1172,-4.1016,-4.0021,-3.8231,-3.6442,-3.6442,-3.4002,-3.1286,-3.0308,-2.9322,-2.8644,-2.8804,-2.9179,-2.9486,-2.9486,-3.0751,-3.162,-3.0644,-3.1748,-3.2365,-3.1531,-3.1557,-3.1664,-3.1664,-3.1664,-3.1664,-3.1664,-3.1664,-3.1664,-3.1664,-3.1664,-3.1664,-3.1664,-3.2064,-3.2318,-3.2345,-3.2465,-3.2612,-3.2772,-3.2625,-3.2612,-3.2746,-3.3026,-3.3253,-3.3414,-3.3414,-3.3414,-3.3414,-3.3414,-3.3414,-3.8661,-3.8841,-3.905,-3.9349,-3.9409,-3.9559,-4.0127,-3.9828,-3.9409,-3.9409,-3.9409,-3.9679,-4.0546,-3.8896,-3.8171,-4.0546,-3.9389,-4.0074,-4.5472,-4.8335,-5.1222,-5.4938,-5.6369,-5.7575,-5.8981,-5.8378,-5.8102,-5.8554,-5.8152,-5.6058,-5.1878,-5.1535,-4.9362,-4.4747,-4.4386,-4.4394,-4.4629,-4.4336,-4.3965,-4.3496,-4.2715,-4.2363,-4.2402,-4.1562,-4.1406,-4.1777,-4.1348,-4.1172,-4.1172,-4.1172,-4.1172,-4.1172,-4.1172,-4.1172,-4.1172,-4.1172,-4.1172,-4.1172,-4.1172,-4.1172,-4.1172,-4.1172,-4.0997,-4.0353,-3.8548,-3.6121,-3.4164,-3.4164,-3.2546,-3.0441,-2.8696,-2.8417,-2.8617,-2.8657,-2.9085,-2.9499,-2.9539,-2.978,-3.0154,-3.0742,-3.0862,-3.1036,-3.157,-3.1664,-3.1664,-3.1664,-3.1664,-3.1677,-3.173,-3.1704,-3.1704,-3.1797,-3.1717,-3.169,-3.173,-3.2238,-3.2438,-3.2185,-3.2492,-3.2679,-3.2679,-3.2679,-3.2799,-3.304,-3.328,-3.3414,-3.3414,-3.3414,-3.3414,-3.3414,-3.3414,-3.3414,-3.9948,-4.0905,-4.1384,-3.9798,-3.9409,-3.9439,-3.9559,-3.9499,-3.9409,-3.9409,-3.9409,-3.9948,-4.1743,-4.0106,-3.9408,-4.2408,-4.2813,-4.4392,-4.9012,-5.0444,-5.2101,-5.5039,-5.6369,-5.7123,-5.7399,-5.77,-5.7926,-5.8027,-5.7951,-5.6523,-5.3233,-5.1943,-4.9548,-4.5545,-4.4379,-4.3496,-4.2832,-4.3125,-4.3066,-4.2617,-4.2129,-4.209,-4.2402,-4.1562,-4.1406,-4.1777,-4.1348,-4.1172,-4.1172,-4.1172,-4.1172,-4.1172,-4.1172,-4.1172,-4.1172,-4.1172,-4.1172,-4.1172,-4.1172,-4.1172,-4.1172,-4.1172,-3.9864,-3.839,-3.8054,-3.5137,-3.1887,-3.1887,-3.0426,-2.8696,-2.8641,-2.8577,-2.8671,-2.8911,-2.9232,-2.9553,-2.9793,-3.0087,-3.0461,-3.1049,-3.1156,-3.1263,-3.161,-3.1664,-3.1664,-3.1664,-3.1664,-3.1757,-3.2011,-3.1824,-3.1864,-3.2358,-3.1971,-3.177,-3.2011,-3.2345,-3.2532,-3.2478,-3.2986,-3.328,-3.328,-3.328,-3.3293,-3.3347,-3.3387,-3.3414,-3.3414,-3.3414,-3.3414,-3.3414,-3.3414,-3.3414,-3.9798,-4.0576,-4.1175,-4.0606,-4.1025,-4.1354,-4.0636,-4.0487,-4.0576,-4.0935,-4.0995,-4.1322,-4.2262,-4.1707,-4.1869,-4.4071,-4.563,-4.7405,-5.0042,-5.1423,-5.308,-5.5541,-5.6018,-5.662,-5.7826,-5.7097,-5.6671,-5.6972,-5.5485,-5.3389,-5.0897,-4.9141,-4.6975,-4.3974,-4.304,-4.2941,-4.3589,-4.3705,-4.3098,-4.209,-4.1894,-4.1777,-4.1738,-4.1348,-4.1269,-4.1445,-4.125,-4.1172,-4.1172,-4.1172,-4.1172,-4.1172,-4.1172,-4.1172,-4.1172,-4.1172,-4.1172,-4.1172,-4.1172,-4.1172,-4.1016,-3.9864,-3.8706,-3.7401,-3.5137,-3.3022,-3.1392,-3.1392,-2.9774,-2.8177,-2.8323,-2.9603,-3.0381,-2.9339,-3.0419,-3.1352,-3.0447,-3.0261,-3.0528,-3.1116,-3.1223,-3.1316,-3.1623,-3.1664,-3.1664,-3.1664,-3.1664,-3.1717,-3.1851,-3.1891,-3.2011,-3.2278,-3.2211,-3.2198,-3.2332,-3.2612,-3.2839,-3.3,-3.3267,-3.3414,-3.3414,-3.3414,-3.3414,-3.3414,-3.3414,-3.3414,-3.3414,-3.3414,-3.3414,-3.3414,-3.3414,-3.3414,-3.9798,-4.0247,-4.0786,-4.1444,-4.2252,-4.2761,-4.2372,-4.2192,-4.2342,-4.3329,-4.3389,-4.3248,-4.2882,-4.3315,-4.425,-4.58,-4.8033,-5.0017,-5.1398,-5.2703,-5.4235,-5.6168,-5.5792,-5.6118,-5.7951,-5.6344,-5.5365,-5.5792,-5.3205,-5.0725,-4.8501,-4.6634,-4.4461,-4.2129,-4.1914,-4.2504,-4.3875,-4.3524,-4.3106,-4.2405,-4.2405,-4.1934,-4.1172,-4.1172,-4.1172,-4.1172,-4.1172,-4.1172,-4.1172,-4.1172,-4.1172,-4.1172,-4.1172,-4.1172,-4.1172,-4.1172,-4.1172,-4.1172,-4.1172,-4.1172,-4.0841,-3.8548,-3.7578,-3.6602,-3.3186,-3.1887,-3.1557,-3.2052,-3.091,-2.9635,-2.9215,-3.1131,-3.2594,-2.9809,-3.1303,-3.2895,-3.0927,-3.0515,-3.0886,-3.1956,-3.1691,-3.1584,-3.2367,-3.2029,-3.1664,-3.1664,-3.173,-3.177,-3.177,-3.1971,-3.2158,-3.2291,-3.2385,-3.2492,-3.2639,-3.2853,-3.3106,-3.3387,-3.3414,-3.3414,-3.3414,-3.3414,-3.3414,-3.3414,-3.3414,-3.3414,-3.3414,-3.3414,-3.3414,-3.3414,-3.3414,-3.3414,-4.0905,-4.1265,-4.1474,-4.2132,-4.1893,-4.2132,-4.4466,-4.4556,-4.4646,-4.6561,-4.6471,-4.5684,-4.45,-4.4857,-4.5961,-4.75,-5.0067,-5.2603,-5.4737,-5.5139,-5.5641,-5.6846,-5.6043,-5.5641,-5.6319,-5.5315,-5.4637,-5.4687,-5.2792,-5.0584,-4.8029,-4.6462,-4.4349,-4.1445,-4.1621,-4.1759,-4.1522,-4.1483,-4.2216,-4.3987,-4.3987,-4.2963,-4.1172,-4.1172,-4.1172,-4.1172,-4.1172,-4.1172,-4.1172,-4.1172,-4.1172,-4.1172,-4.1172,-4.1172,-4.1172,-4.1172,-4.1172,-4.1172,-4.1172,-4.1172,-4.0841,-3.8548,-3.6602,-3.4813,-3.4489,-3.3022,-3.1887,-3.3839,-3.4327,-3.3756,-3.1933,-3.3442,-3.4461,-3.0405,-3.1628,-3.3217,-3.1239,-3.0969,-3.1984,-3.449,-3.3281,-3.238,-3.4592,-3.3135,-3.1664,-3.1664,-3.1904,-3.2064,-3.2064,-3.2091,-3.2305,-3.2853,-3.2452,-3.2358,-3.2906,-3.2973,-3.3106,-3.3387,-3.3414,-3.3414,-3.3414,-3.3414,-3.3414,-3.3414,-3.3414,-3.3414,-3.3414,-3.3414,-3.3414,-3.3414,-3.3414,-3.3414,-4.0038,-4.0756,-4.1534,-4.2192,-4.2491,-4.318,-4.5424,-4.6381,-4.7339,-4.9344,-5.0541,-5.0508,-4.8211,-4.6834,-4.662,-4.8233,-5.1071,-5.3381,-5.4235,-5.5239,-5.5917,-5.6018,-5.5641,-5.5465,-5.5666,-5.4687,-5.3587,-5.24,-4.9998,-4.7817,-4.5706,-4.3792,-4.2847,-4.2943,-4.3086,-4.4285,-4.661,-4.5425,-4.5127,-4.5849,-4.3511,-4.1907,-4.1172,-4.1172,-4.1172,-4.1172,-4.1172,-4.1172,-4.1172,-4.1172,-4.1172,-4.1172,-4.1172,-4.1172,-4.1172,-4.1172,-4.1172,-4.1172,-4.1172,-4.1172,-4.0841,-3.8548,-3.7419,-3.6442,-3.5137,-3.4164,-3.3839,-3.6121,-3.6762,-3.6138,-3.4164,-3.4617,-3.4919,-3.2043,-3.2544,-3.3261,-3.1267,-3.2278,-3.3486,-3.3079,-3.3497,-3.3685,-3.3135,-3.2219,-3.173,-3.1904,-3.2038,-3.2171,-3.2358,-3.2532,-3.2732,-3.2959,-3.2946,-3.3013,-3.3227,-3.3253,-3.3293,-3.34,-3.3414,-3.3414,-3.3414,-3.3414,-3.3414,-3.3414,-3.3414,-3.3414,-3.3414,-3.3414,-3.3414,-3.3414,-3.3414,-3.3414,-3.908,-3.9738,-4.0636,-4.1534,-4.2402,-4.3868,-4.713,-4.8566,-4.9942,-5.2546,-5.2852,-5.2046,-4.9803,-4.769,-4.6903,-4.8736,-5.1649,-5.3758,-5.3959,-5.4963,-5.5541,-5.5164,-5.4963,-5.4863,-5.4863,-5.4009,-5.2874,-5.1556,-4.9292,-4.7321,-4.5998,-4.397,-4.3455,-4.4763,-4.4613,-4.5625,-4.782,-4.6513,-4.557,-4.5148,-4.2503,-4.1172,-4.1172,-4.1172,-4.1172,-4.1172,-4.1172,-4.1172,-4.1172,-4.1172,-4.1172,-4.1172,-4.1172,-4.1172,-4.1172,-4.1172,-4.1172,-4.1172,-4.1172,-4.1172,-4.0841,-3.8548,-3.7896,-3.7578,-3.6121,-3.5638,-3.6121,-3.839,-3.8882,-3.8426,-3.642,-3.6266,-3.5891,-3.2208,-3.2705,-3.3378,-3.128,-3.2362,-3.3615,-3.2905,-3.3497,-3.3873,-3.2947,-3.23,-3.1877,-3.2078,-3.301,-3.3354,-3.2727,-3.3557,-3.3945,-3.317,-3.324,-3.3414,-3.3414,-3.3414,-3.3414,-3.3414,-3.3414,-3.3414,-3.3414,-3.3414,-3.3414,-3.3414,-3.3414,-3.3414,-3.3414,-3.3414,-3.3414,-3.3414,-3.3414,-3.3414,-3.8392,-3.8422,-3.8751,-4.0098,-4.1414,-4.3958,-4.9883,-5.1229,-5.2336,-5.6316,-5.3058,-4.9224,-4.8577,-4.7231,-4.7054,-4.9238,-5.19,-5.3884,-5.4461,-5.4561,-5.4561,-5.4561,-5.4059,-5.3708,-5.3683,-5.3231,-5.2929,-5.2929,-5.1138,-4.9961,-4.9961,-4.7591,-4.6167,-4.6145,-4.5676,-4.4792,-4.3383,-4.3404,-4.2624,-4.1152,-4.1172,-4.1172,-4.1172,-4.1172,-4.1172,-4.1172,-4.1172,-4.1172,-4.1172,-4.1172,-4.1172,-4.1172,-4.1172,-4.1172,-4.1172,-4.1172,-4.1172,-4.1172,-4.1172,-4.1172,-4.0841,-3.8706,-3.7896,-3.7896,-3.7896,-3.7896,-3.839,-4.0509,-4.1172,-4.0781,-3.8865,-3.8599,-3.7239,-3.055,-3.1671,-3.3641,-3.1321,-3.1249,-3.2394,-3.4779,-3.3323,-3.2408,-3.4779,-3.3577,-3.2104,-3.2104,-3.4875,-3.5924,-3.2962,-3.509,-3.5846,-3.3368,-3.324,-3.3414,-3.3414,-3.3414,-3.3414,-3.3414,-3.3414,-3.3414,-3.3414,-3.3414,-3.3414,-3.3414,-3.3414,-3.3414,-3.3414,-3.3414,-3.3414,-3.3414,-3.3414,-3.3414,-3.923,-3.9798,-4.0696,-4.1564,-4.3808,-4.689,-5.099,-5.1917,-5.3089,-5.7231,-5.4055,-5.0628,-5.0922,-4.9662,-4.8837,-4.949,-5.1599,-5.3231,-5.3381,-5.4084,-5.4285,-5.3507,-5.3582,-5.3557,-5.3181,-5.303,-5.2327,-5.0998,-5.0269,-4.9226,-4.7402,-4.6667,-4.6706,-4.7633,-4.747,-4.733,-4.6908,-4.5654,-4.4009,-4.2282,-4.131,-4.0879,-4.1172,-4.1172,-4.1172,-4.1172,-4.1172,-4.1172,-4.1172,-4.1172,-4.1172,-4.1172,-4.1172,-4.1172,-4.1172,-4.1172,-4.1172,-4.1172,-4.1172,-4.1172,-4.1016,-4.0353,-4.0178,-4.0178,-4.0178,-4.0178,-4.0353,-4.1016,-4.1172,-4.0704,-3.8536,-3.7247,-3.5623,-3.2348,-3.2881,-3.3723,-3.3416,-3.4863,-3.6144,-3.5464,-3.4779,-3.3858,-3.296,-3.2463,-3.2171,-3.2385,-3.5018,-3.6654,-3.6021,-3.497,-3.4049,-3.328,-3.336,-3.3414,-3.3414,-3.3414,-3.3414,-3.3414,-3.3414,-3.3414,-3.3414,-3.3414,-3.3414,-3.3414,-3.3414,-3.3414,-3.3414,-3.3414,-3.3414,-3.3414,-3.3414,-3.3414,-3.905,-3.9798,-4.0935,-4.2402,-4.5244,-4.8567,-5.2004,-5.3789,-5.5391,-5.7814,-5.4637,-5.153,-5.1972,-5.0767,-4.9816,-5.0469,-5.19,-5.2929,-5.2929,-5.3507,-5.3658,-5.3005,-5.3206,-5.3281,-5.2955,-5.2729,-5.2167,-5.0986,-5.0628,-4.971,-4.8028,-4.7654,-4.7875,-4.8452,-4.7676,-4.6981,-4.6491,-4.4738,-4.297,-4.131,-4.0643,-4.041,-4.0684,-4.1016,-4.1172,-4.1172,-4.1172,-4.1172,-4.1172,-4.1172,-4.1172,-4.1172,-4.1172,-4.1172,-4.1172,-4.1172,-4.1172,-4.1172,-4.1172,-4.1172,-4.1172,-4.1172,-4.1172,-4.1172,-4.1172,-4.1172,-4.1172,-4.1172,-4.1172,-4.0762,-3.8773,-3.6895,-3.4935,-3.2976,-3.3115,-3.3605,-3.3038,-3.497,-3.6203,-3.4175,-3.3873,-3.3351,-3.2001,-3.301,-3.3877,-3.4185,-3.5832,-3.7057,-3.7252,-3.4955,-3.3414,-3.3414,-3.3414,-3.3414,-3.3414,-3.3414,-3.3414,-3.3414,-3.3414,-3.3414,-3.3414,-3.3414,-3.3414,-3.3414,-3.3414,-3.3414,-3.3414,-3.3414,-3.3414,-3.3414,-3.3414,-3.3414,-3.8452,-3.911,-4.0247,-4.3,-4.6381,-4.9931,-5.3377,-5.6307,-5.827,-5.7744,-5.4692,-5.2175,-5.2144,-5.0921,-5.0393,-5.1925,-5.2603,-5.2929,-5.2929,-5.2929,-5.2929,-5.2929,-5.2879,-5.2854,-5.2854,-5.2302,-5.195,-5.195,-5.1448,-5.087,-5.0293,-4.9791,-4.9264,-4.8711,-4.6591,-4.4711,-4.3309,-4.1872,-4.0515,-3.9082,-3.9551,-3.9805,-3.9863,-4.0684,-4.1055,-4.1055,-4.1055,-4.1055,-4.1055,-4.1055,-4.1074,-4.1113,-4.1113,-4.1133,-4.1172,-4.1172,-4.1172,-4.1172,-4.1172,-4.1172,-4.1172,-4.1172,-4.1172,-4.1172,-4.1172,-4.1172,-4.1172,-4.1172,-4.1172,-4.0859,-3.9321,-3.7204,-3.4887,-3.292,-3.3315,-3.3575,-3.162,-3.3157,-3.4367,-3.2339,-3.2056,-3.2164,-3.2435,-3.4809,-3.6843,-3.7176,-3.7087,-3.7085,-3.7282,-3.4955,-3.3414,-3.3414,-3.3414,-3.3414,-3.3414,-3.3414,-3.3414,-3.3414,-3.3414,-3.3414,-3.3414,-3.3414,-3.3414,-3.3414,-3.3414,-3.3414,-3.3414,-3.3414,-3.3414,-3.3414,-3.3414,-3.3414,-4.0427,-4.0846,-4.1833,-4.5514,-5.0481,-5.5197,-5.804,-5.803,-5.6845,-5.4895,-5.3555,-5.2683,-5.2678,-5.2452,-5.2327,-5.2678,-5.2854,-5.2929,-5.2929,-5.2929,-5.2929,-5.2929,-5.2553,-5.2277,-5.2277,-5.1373,-5.077,-5.077,-5.0268,-4.9715,-4.9163,-4.9012,-4.8686,-4.8109,-4.6397,-4.4524,-4.2794,-4.1516,-3.99,-3.8203,-3.8652,-3.9023,-3.9375,-3.9922,-4.0176,-4.0176,-4.0176,-4.0176,-4.0176,-4.0176,-4.0371,-4.0664,-4.0664,-4.0879,-4.1172,-4.1172,-4.1172,-4.1172,-4.1172,-4.1172,-4.1172,-4.1172,-4.1172,-4.1172,-4.1172,-4.1172,-4.1172,-4.1172,-4.1172,-4.0801,-3.8974,-3.6998,-3.4951,-3.3052,-3.4517,-3.5732,-3.4052,-3.5481,-3.6601,-3.4847,-3.4797,-3.5002,-3.5061,-3.7803,-3.9833,-4.0206,-3.6859,-3.4955,-3.7085,-3.4955,-3.3414,-3.3414,-3.3414,-3.3414,-3.3414,-3.3414,-3.3414,-3.3414,-3.3414,-3.3414,-3.3414,-3.3414,-3.3414,-3.3414,-3.3414,-3.3414,-3.3414,-3.3414,-3.3414,-3.3414,-3.3414,-3.3414,-4.0157,-4.1354,-4.3658,-4.9224,-5.3892,-5.7391,-5.8667,-5.7701,-5.6073,-5.3911,-5.3151,-5.2929,-5.2929,-5.2929,-5.2929,-5.2929,-5.2703,-5.2528,-5.2528,-5.2302,-5.2126,-5.2126,-5.1875,-5.1699,-5.1699,-5.0695,-5.0017,-5.0017,-4.9264,-4.856,-4.8008,-4.7983,-4.7209,-4.5601,-4.4144,-4.2457,-4.041,-3.9259,-3.8267,-3.7324,-3.7754,-3.8086,-3.832,-3.918,-3.957,-3.957,-3.957,-3.9687,-3.9902,-4.0117,-4.0332,-4.0547,-4.0762,-4.0976,-4.1172,-4.1172,-4.1172,-4.1172,-4.1172,-4.1172,-4.1172,-4.1172,-4.1172,-4.1172,-4.1172,-4.1172,-4.1172,-4.1172,-4.1172,-4.082,-3.912,-3.7084,-3.5016,-3.3354,-3.4242,-3.4802,-3.3009,-3.4653,-3.623,-3.5801,-3.5885,-3.6473,-3.7915,-3.9736,-4.0925,-4.1106,-3.7855,-3.5352,-3.5352,-3.4186,-3.3414,-3.3414,-3.3414,-3.3414,-3.3414,-3.3414,-3.3414,-3.3414,-3.3414,-3.3414,-3.3414,-3.3414,-3.3414,-3.3414,-3.3414,-3.3414,-3.3414,-3.3414,-3.3414,-3.3414,-3.3574,-3.3641,-3.9529,-4.1923,-4.5753,-5.2247,-5.5748,-5.7613,-5.7532,-5.6609,-5.5346,-5.3859,-5.3031,-5.2628,-5.2628,-5.2628,-5.2628,-5.2628,-5.2251,-5.1975,-5.1975,-5.1574,-5.1272,-5.1272,-5.1122,-5.0996,-5.0996,-4.9891,-4.9163,-4.9163,-4.8209,-4.7405,-4.6878,-4.6584,-4.5355,-4.2997,-4.1342,-3.9711,-3.7779,-3.7024,-3.6562,-3.6562,-3.707,-3.7226,-3.7109,-3.8242,-3.8809,-3.8887,-3.8945,-3.9199,-3.959,-4.0098,-4.0332,-4.0449,-4.0898,-4.1113,-4.1172,-4.1172,-4.1172,-4.1172,-4.1172,-4.1172,-4.1172,-4.1172,-4.1172,-4.1172,-4.1172,-4.1172,-4.1172,-4.1172,-4.0899,-4.0306,-3.8725,-3.6775,-3.4652,-3.313,-3.3027,-3.2793,-3.1096,-3.286,-3.4929,-3.5885,-3.685,-3.8417,-4.0957,-4.1324,-4.1139,-4.0561,-3.8246,-3.5932,-3.36,-3.3414,-3.3414,-3.3414,-3.3414,-3.3414,-3.3414,-3.3414,-3.3414,-3.3414,-3.3414,-3.344,-3.3494,-3.3494,-3.3494,-3.3494,-3.344,-3.344,-3.3494,-3.344,-3.344,-3.3494,-3.3761,-3.3908,-4.0786,-4.4287,-4.8416,-5.1648,-5.4042,-5.5825,-5.6974,-5.5447,-5.3689,-5.3453,-5.2455,-5.1498,-5.1498,-5.1498,-5.1498,-5.1498,-5.1448,-5.1398,-5.1398,-5.1322,-5.1272,-5.1272,-5.0419,-4.9816,-4.9816,-4.8385,-4.7456,-4.7456,-4.6878,-4.6276,-4.5723,-4.4426,-4.3288,-4.2424,-3.9463,-3.7721,-3.7403,-3.6563,-3.6113,-3.6113,-3.6914,-3.6914,-3.6211,-3.6758,-3.7207,-3.7578,-3.793,-3.8125,-3.8242,-3.9043,-3.9609,-4.0019,-4.0449,-4.084,-4.1172,-4.1172,-4.1172,-4.1172,-4.1172,-4.1172,-4.1172,-4.1172,-4.1172,-4.1172,-4.1172,-4.1172,-4.1172,-4.1172,-3.9952,-3.8348,-3.644,-3.445,-3.2644,-3.1208,-3.1063,-3.1096,-3.0782,-3.303,-3.5197,-3.593,-4.0033,-4.3626,-4.4257,-4.2638,-4.0368,-3.8246,-3.555,-3.38,-3.3414,-3.3414,-3.3414,-3.3414,-3.3414,-3.3414,-3.3414,-3.3414,-3.3414,-3.3414,-3.3414,-3.3534,-3.3814,-3.3828,-3.3828,-3.3828,-3.3547,-3.3547,-3.3828,-3.3547,-3.3547,-3.3828,-3.3868,-3.4015,-4.2372,-4.4766,-4.7519,-5.1259,-5.3144,-5.4401,-5.5718,-5.4409,-5.2812,-5.2508,-5.0769,-4.959,-5.0218,-5.0594,-5.0695,-5.0393,-5.0343,-5.0218,-4.9916,-4.9866,-4.9766,-4.9439,-4.8962,-4.8661,-4.8661,-4.7732,-4.7004,-4.6702,-4.615,-4.5598,-4.5045,-4.3527,-4.2039,-4.0537,-3.8429,-3.6704,-3.5457,-3.5337,-3.5273,-3.5293,-3.5664,-3.5781,-3.5664,-3.5859,-3.6328,-3.6973,-3.7383,-3.7715,-3.7988,-3.8848,-3.9316,-3.9551,-4.0,-4.043,-4.0781,-4.0547,-4.0762,-4.1133,-4.0898,-4.0976,-4.1172,-4.1172,-4.1172,-4.1172,-4.1172,-4.0353,-3.9374,-3.9374,-3.8841,-3.7915,-3.6125,-3.5161,-3.425,-3.267,-3.1469,-3.0835,-3.0996,-3.35,-3.6681,-4.0204,-4.4149,-4.6523,-4.5155,-4.2863,-4.0368,-3.7674,-3.5153,-3.3414,-3.3414,-3.3414,-3.3414,-3.3414,-3.3414,-3.3414,-3.3414,-3.3414,-3.3414,-3.3414,-3.3414,-3.3547,-3.3868,-3.3881,-3.4042,-3.4376,-3.3921,-3.3654,-3.3614,-3.3654,-3.3748,-3.3895,-3.4215,-3.4442,-4.312,-4.4407,-4.5963,-4.9763,-5.1439,-5.2486,-5.3653,-5.2598,-5.1237,-5.0712,-4.8852,-4.7506,-4.8209,-4.9012,-4.949,-4.9213,-4.9063,-4.8862,-4.8586,-4.8435,-4.8234,-4.7933,-4.7657,-4.7506,-4.7506,-4.7029,-4.6476,-4.5924,-4.5497,-4.4903,-4.3837,-4.2208,-4.0375,-3.8277,-3.6915,-3.5468,-3.3906,-3.4336,-3.459,-3.4707,-3.4707,-3.4883,-3.5215,-3.5351,-3.5742,-3.6367,-3.6914,-3.7383,-3.7832,-3.8691,-3.9101,-3.9258,-3.9726,-4.0098,-4.0332,-4.0137,-4.0469,-4.0976,-4.0762,-4.0898,-4.1172,-4.1172,-4.1172,-4.1172,-4.1172,-3.9688,-3.8054,-3.8548,-3.8257,-3.7532,-3.6822,-3.6137,-3.5335,-3.42,-3.2828,-3.1909,-3.228,-3.4797,-3.8542,-4.3519,-4.6448,-4.7102,-4.44,-4.1907,-3.9399,-3.6706,-3.4571,-3.3414,-3.3414,-3.3414,-3.3414,-3.3414,-3.3414,-3.3414,-3.3414,-3.3414,-3.3414,-3.3414,-3.3494,-3.3668,-3.3988,-3.4068,-3.4309,-3.475,-3.4336,-3.3988,-3.3761,-3.3921,-3.4042,-3.4122,-3.4549,-3.4803,-4.2252,-4.3389,-4.4736,-4.6262,-4.8057,-4.9643,-5.0331,-4.9222,-4.8121,-4.8094,-4.6777,-4.5472,-4.497,-4.62,-4.7456,-4.7933,-4.7581,-4.7431,-4.7883,-4.7531,-4.738,-4.7857,-4.7004,-4.6401,-4.6401,-4.5899,-4.5321,-4.4744,-4.4694,-4.3696,-4.1683,-3.9729,-3.7768,-3.6072,-3.4041,-3.3191,-3.3457,-3.3887,-3.4297,-3.4707,-3.4707,-3.4707,-3.4746,-3.5195,-3.541,-3.5508,-3.6348,-3.6953,-3.7402,-3.8262,-3.8848,-3.9258,-3.9726,-3.9902,-3.998,-4.0351,-4.0527,-4.0605,-4.0996,-4.1152,-4.1172,-4.1172,-4.1172,-4.1172,-4.1172,-3.9688,-3.839,-4.0509,-3.8455,-3.6358,-3.823,-3.6346,-3.3903,-3.4067,-3.4394,-3.481,-3.545,-3.7899,-4.0898,-4.3945,-4.4901,-4.44,-4.1907,-3.9205,-3.6706,-3.3987,-3.3414,-3.3414,-3.3414,-3.3414,-3.3414,-3.3414,-3.3414,-3.3414,-3.3414,-3.3414,-3.3414,-3.3414,-3.3694,-3.3988,-3.4282,-3.4563,-3.4736,-3.4763,-3.4736,-3.471,-3.4696,-3.4429,-3.4442,-3.4723,-3.475,-3.491,-4.291,-4.3329,-4.4107,-4.5873,-4.7189,-4.8057,-4.8297,-4.7817,-4.7102,-4.633,-4.5145,-4.4242,-4.3664,-4.4945,-4.6024,-4.5824,-4.5949,-4.5999,-4.5824,-4.5949,-4.5999,-4.5824,-4.5447,-4.5221,-4.5221,-4.5045,-4.4694,-4.4141,-4.3765,-4.2722,-4.0655,-3.8481,-3.656,-3.5044,-3.3276,-3.2598,-3.3008,-3.3437,-3.373,-3.3887,-3.3887,-3.4023,-3.4297,-3.4473,-3.4863,-3.541,-3.5723,-3.6406,-3.7344,-3.793,-3.8418,-3.8809,-3.8984,-3.9219,-3.9473,-3.9629,-4.0039,-4.0547,-4.0703,-4.0937,-4.1172,-4.1172,-4.1172,-4.1172,-4.1172,-3.9688,-3.8054,-3.8882,-3.8473,-3.7787,-3.7364,-3.6543,-3.5775,-3.4895,-3.492,-3.619,-3.9791,-4.1672,-4.3623,-4.6762,-4.6038,-4.4211,-4.1716,-3.9026,-3.6312,-3.38,-3.3414,-3.3414,-3.3414,-3.3414,-3.3414,-3.3414,-3.3414,-3.3414,-3.3414,-3.3414,-3.3414,-3.3414,-3.3708,-3.4015,-3.4309,-3.4603,-3.4857,-3.5044,-3.5044,-3.4857,-3.4482,-3.4563,-3.4656,-3.4763,-3.495,-3.5097,-4.3329,-4.3479,-4.4077,-4.5873,-4.6471,-4.6681,-4.692,-4.6726,-4.6055,-4.4759,-4.4071,-4.339,-4.2595,-4.3338,-4.4141,-4.4317,-4.4518,-4.4568,-4.4367,-4.4669,-4.4769,-4.4392,-4.4342,-4.4342,-4.4342,-4.4342,-4.4041,-4.3313,-4.2911,-4.1632,-3.9005,-3.7497,-3.5823,-3.3752,-3.2734,-3.2305,-3.2578,-3.2871,-3.3008,-3.3008,-3.3144,-3.3359,-3.3652,-3.3945,-3.4473,-3.5176,-3.5332,-3.6113,-3.7324,-3.7598,-3.8047,-3.8574,-3.8574,-3.875,-3.9023,-3.9316,-3.9805,-4.0351,-4.0644,-4.0937,-4.1172,-4.1172,-4.1172,-4.1172,-4.1172,-3.9688,-3.8054,-3.8882,-3.8473,-3.7988,-3.735,-3.7514,-3.7354,-3.6506,-3.6987,-3.9076,-4.3506,-4.427,-4.4563,-4.6966,-4.5476,-4.2863,-4.0368,-3.7674,-3.5352,-3.36,-3.3414,-3.3414,-3.3414,-3.3414,-3.3414,-3.3414,-3.3414,-3.3414,-3.3414,-3.3414,-3.3454,-3.3561,-3.3855,-3.4162,-3.4456,-3.475,-3.5004,-3.5191,-3.5191,-3.5004,-3.4616,-3.4817,-3.491,-3.491,-3.511,-3.5191,0.0,0.0,0.0,-4.5933,-4.5783,-4.5484,-4.6082,-4.5727,-4.4875,-4.3488,-4.3237,-4.2788,-4.1493,-4.1304,-4.1831,-4.3438,-4.3263,-4.3112,-4.3639,-4.374,-4.374,-4.374,-4.374,-4.3765,-4.3765,-4.3765,-4.3313,-4.2233,-4.2133,-4.0488,-3.6882,-3.663,-3.5263,-3.227,-3.2168,-3.2168,-3.2148,-3.2168,-3.2168,-3.2168,-3.2598,-3.2793,-3.2832,-3.3672,-3.4297,-3.4726,-3.5176,-3.6094,-3.7285,-3.7285,-3.7793,-3.8555,-3.8574,-3.8574,-3.8691,-3.957,-3.9902,-4.0019,-4.0879,-4.1172,-4.1172,-4.1172,-4.1172,-4.1172,-4.1172,-3.9688,-3.839,-4.0529,-3.8634,-3.6309,-3.8759,-3.8785,-3.8367,-3.8911,-4.0988,-4.3284,-4.6285,-4.5194,-4.3902,-4.4317,-4.2605,-4.0352,-3.7674,-3.5153,-3.3414,-3.3414,-3.3414,-3.3414,-3.3414,-3.3414,-3.3414,-3.3414,-3.3414,-3.3414,-3.3414,-3.3414,-3.3561,-3.3868,-3.4162,-3.4469,-3.475,-3.5044,-3.5191,-3.5191,-3.5191,-3.5191,-3.5191,-3.5191,-3.5191,-3.5191,-3.5191,-3.5191,-4.4616,0.0,0.0,0.0,0.0,0.0,-4.4436,-4.476,-4.4738,-4.2436,-4.235,-4.2084,-4.0408,-4.0475,-4.0902,-4.1354,-4.163,-4.1856,-4.2007,-4.2007,-4.2158,-4.2559,-4.261,-4.276,-4.3162,-4.2836,-4.2484,-4.2183,-4.0488,-3.8564,-3.6837,-3.4581,-3.2934,-3.1699,-3.2012,-3.2012,-3.1699,-3.2012,-3.2168,-3.2168,-3.2598,-3.2793,-3.2812,-3.3359,-3.4004,-3.4707,-3.4844,-3.5625,-3.6875,-3.7168,-3.7617,-3.8144,-3.8457,-3.8574,-3.8691,-3.957,-3.9902,-4.0019,-4.0879,-4.1172,-4.1172,-4.1172,-4.1172,-4.1172,-4.1172,-4.0841,-4.0411,-4.1366,-3.9857,-3.818,-3.8201,-3.724,-3.7034,-4.0773,-4.2085,-4.2927,-4.4064,-4.3869,-4.3595,-4.4263,-4.1057,-3.797,-3.7463,-3.5167,-3.3414,-3.3414,-3.3414,-3.3414,-3.3414,-3.3414,-3.3414,-3.3414,-3.3414,-3.3414,-3.3414,-3.3627,-3.3788,-3.3881,-3.4362,-3.4683,-3.4763,-3.5044,-3.5191,-3.5191,-3.5191,-3.5191,-3.5191,-3.5191,-3.5191,-3.5191,-3.5191,-3.5191,-4.5544,-4.5723,-4.5753,-4.5933,0.0,0.0,-4.4855,-4.501,-4.4763,-4.2721,-4.2796,-4.2846,-4.1518,-4.1103,-4.0952,-4.0952,-4.074,-4.0727,-4.0953,-4.1204,-4.1379,-4.1455,-4.1882,-4.2183,-4.2283,-4.2208,-4.2057,-4.1831,-3.9831,-3.7762,-3.6107,-3.3536,-3.2051,-3.1797,-3.1855,-3.1699,-3.1269,-3.1504,-3.1641,-3.1641,-3.207,-3.2363,-3.2559,-3.2969,-3.373,-3.4707,-3.4707,-3.5449,-3.6699,-3.7129,-3.7539,-3.7969,-3.8398,-3.8691,-3.8926,-3.9629,-4.0,-4.0254,-4.0937,-4.1172,-4.1172,-4.1172,-4.1172,-4.1172,-4.1172,-4.1172,-4.125,-4.168,-4.0809,-3.9352,-3.7999,-3.7974,-3.8944,-4.1693,-4.2513,-4.2694,-4.2928,-4.1318,-4.0293,-4.1184,-3.8893,-3.6713,-3.5888,-3.4386,-3.3414,-3.3414,-3.3414,-3.3414,-3.3414,-3.3414,-3.3414,-3.3414,-3.3414,-3.3414,-3.3414,-3.3708,-3.3935,-3.4055,-3.4509,-3.4817,-3.4937,-3.511,-3.5191,-3.5191,-3.5191,-3.5191,-3.5191,-3.5191,-3.5191,-3.5191,-3.5191,-3.5191,-4.6232,-4.6441,-4.6681,-4.7788,-4.7309,0.0,-4.6262,-4.5903,-4.5208,-4.3777,-4.4004,-4.4248,-4.3499,-4.2517,-4.1762,-4.1512,-4.0617,-4.0055,-4.035,-4.0852,-4.1028,-4.0651,-4.148,-4.1907,-4.148,-4.1882,-4.1932,-4.1379,-3.9757,-3.7588,-3.4893,-3.3194,-3.2266,-3.2168,-3.1797,-3.1367,-3.0898,-3.0898,-3.0898,-3.0898,-3.1367,-3.1797,-3.2187,-3.2656,-3.3535,-3.4707,-3.4707,-3.5449,-3.6699,-3.7129,-3.7539,-3.7969,-3.8457,-3.8867,-3.9258,-3.9785,-4.0195,-4.0586,-4.1016,-4.1172,-4.1172,-4.1172,-4.1172,-4.1172,-4.1172,-4.1211,-4.1348,-4.1481,-4.108,-4.0185,-3.8298,-4.0138,-4.2495,-4.2542,-4.2565,-4.2443,-4.2264,-3.8644,-3.5652,-3.6193,-3.6371,-3.5709,-3.3746,-3.3414,-3.3414,-3.3414,-3.3414,-3.3414,-3.3414,-3.3414,-3.3414,-3.3414,-3.3414,-3.3427,-3.3467,-3.3761,-3.4055,-3.4349,-3.4643,-3.4923,-3.5191,-3.5191,-3.5191,-3.5191,-3.5191,-3.5191,-3.5191,-3.5191,-3.5191,-3.5191,-3.5191,-3.5191,-4.677,-4.71,-4.704,-4.677,-4.7309,0.0,-4.5873,-4.6651,-4.702,-4.4673,-4.4784,-4.471,-4.3027,-4.2889,-4.2575,-4.1081,-4.1005,-4.087,-4.0029,-3.9948,-4.03,-4.1078,-4.1354,-4.163,-4.1957,-4.2082,-4.1932,-4.1379,-3.909,-3.6339,-3.3371,-3.3152,-3.2871,-3.2187,-3.209,-3.168,-3.0898,-3.0898,-3.0898,-3.0898,-3.168,-3.209,-3.2187,-3.2949,-3.3809,-3.4707,-3.4707,-3.5449,-3.6699,-3.7129,-3.7539,-3.8008,-3.8769,-3.9121,-3.9297,-4.0098,-4.0449,-4.0586,-4.1016,-4.1172,-4.1172,-4.1172,-4.1172,-4.1172,-4.1172,-4.1406,-4.15,-4.0414,-4.03,-4.0772,-4.0731,-4.1405,-4.2773,-4.5006,-4.4044,-4.2085,-4.0084,-3.7565,-3.5309,-3.3685,-3.3393,-3.3361,-3.332,-3.3414,-3.3414,-3.3414,-3.3414,-3.3414,-3.3414,-3.3414,-3.3414,-3.3414,-3.3414,-3.3507,-3.3774,-3.4068,-3.4362,-3.4656,-3.495,-3.5137,-3.5191,-3.5191,-3.5191,-3.5191,-3.5191,-3.5191,-3.5191,-3.5191,-3.5191,-3.5191,-3.5191,-3.5191,-4.713,-4.7309,-4.7219,-4.689,-4.7309,0.0,0.0,-4.6591,-4.6927,-4.5608,-4.5639,-4.5669,-4.5017,-4.4152,-4.3203,-4.2166,-4.1209,-4.0465,-3.98,-3.9923,-4.04,-4.1229,-4.158,-4.1756,-4.1756,-4.1982,-4.1458,-3.9451,-3.7691,-3.5955,-3.4411,-3.3783,-3.3381,-3.3335,-3.2633,-3.1758,-3.0898,-3.0898,-3.0898,-3.0898,-3.1543,-3.1953,-3.2187,-3.2832,-3.3691,-3.4707,-3.4707,-3.5566,-3.6992,-3.7207,-3.7793,-3.8594,-3.9043,-3.9473,-3.9922,-4.0351,-4.0664,-4.0879,-4.1094,-4.1172,-4.1172,-4.1172,-4.1172,-4.1172,-4.1172,-4.1621,-4.1907,-4.1531,-4.1974,-4.2631,-4.2612,-4.3233,-4.3853,-4.3853,-4.2351,-4.0084,-3.7712,-3.5405,-3.3681,-3.2868,-3.2666,-3.2906,-3.3334,-3.3414,-3.3414,-3.3414,-3.3414,-3.3414,-3.3414,-3.3414,-3.3414,-3.3414,-3.3547,-3.3721,-3.3868,-3.4295,-3.4603,-3.475,-3.5044,-3.5191,-3.5191,-3.5191,-3.5191,-3.5191,-3.5191,-3.5191,-3.5191,-3.5191,-3.5191,-3.5191,-3.5191,-3.5191,-4.7279,-4.7399,-4.7459,-4.7339,-4.7489,-4.7489,0.0,0.0,0.0,-4.6531,-4.6501,-4.6621,-4.704,-4.5302,-4.3787,-4.3504,-4.1591,-4.0056,-3.9973,-4.03,-4.0676,-4.1128,-4.1756,-4.1932,-4.1404,-4.1831,-4.1076,-3.8339,-3.7308,-3.6682,-3.6423,-3.4777,-3.4124,-3.4589,-3.3015,-3.1797,-3.1016,-3.0937,-3.0937,-3.1016,-3.1445,-3.1875,-3.2305,-3.2734,-3.3574,-3.4707,-3.4785,-3.5781,-3.7305,-3.7383,-3.8164,-3.9336,-3.9336,-3.9824,-4.0527,-4.0625,-4.0879,-4.1172,-4.1172,-4.1172,-4.1172,-4.1172,-4.1172,-4.1211,-4.1367,-4.1894,-4.2539,-4.3047,-4.3711,-4.4199,-4.3906,-4.433,-4.4223,-4.1996,-3.9771,-3.7712,-3.5695,-3.3605,-3.2251,-3.2492,-3.2826,-3.3133,-3.3374,-3.3414,-3.3414,-3.3414,-3.3414,-3.3414,-3.3414,-3.3414,-3.3414,-3.3414,-3.3694,-3.3908,-3.3961,-3.4456,-3.479,-3.4843,-3.507,-3.5191,-3.5191,-3.5191,-3.5191,-3.5191,-3.5191,-3.5191,-3.5191,-3.5191,-3.5191,-3.5191,-3.5191,-3.5231,-4.716,-4.7728,-4.8027,-4.7459,-4.8177,-4.8716,-4.7489,0.0,-4.7908,-4.7309,0.0,-4.704,-4.6531,0.0,0.0,-4.3571,-4.2252,-4.1282,-4.1109,-4.0777,-4.0551,-4.0601,-4.153,-4.1932,-4.1404,-4.1831,-4.1842,-4.0998,-4.034,-3.959,-3.873,-3.663,-3.5453,-3.5191,-3.3175,-3.1934,-3.1445,-3.1074,-3.1074,-3.1445,-3.1894,-3.2324,-3.2734,-3.3164,-3.3848,-3.4726,-3.5137,-3.6074,-3.7324,-3.7695,-3.8633,-3.9824,-3.9824,-4.0098,-4.0566,-4.0957,-4.1133,-4.1172,-4.1172,-4.1172,-4.1172,-4.1172,-4.1172,-4.1308,-4.2051,-4.2344,-4.2598,-4.3398,-4.3711,-4.3867,-4.4219,-4.3121,-4.1978,-4.1918,-3.8696,-3.5695,-3.5323,-3.3774,-3.2505,-3.2532,-3.2986,-3.3374,-3.34,-3.3414,-3.3414,-3.3414,-3.3414,-3.3414,-3.3414,-3.3414,-3.3414,-3.3414,-3.3694,-3.3988,-3.4242,-3.4576,-3.487,-3.5137,-3.5177,-3.5191,-3.5191,-3.5191,-3.5191,-3.5191,-3.5191,-3.5191,-3.5191,-3.5191,-3.5191,-3.5191,-3.5191,-3.5338,-4.7219,-4.7788,-4.8117,-4.7459,-4.7997,-4.8566,-4.7997,-4.8087,-4.8327,-4.8416,0.0,0.0,0.0,0.0,0.0,0.0,-4.235,-4.1302,-4.0509,-4.045,-4.0626,-4.0953,-4.1404,-4.1731,-4.1806,-4.1484,-4.1281,-4.1447,-4.0339,-3.9936,-4.0406,-3.7767,-3.638,-3.6588,-3.3902,-3.2207,-3.1523,-3.1601,-3.1601,-3.1523,-3.2207,-3.2617,-3.2812,-3.3496,-3.4121,-3.4746,-3.5449,-3.6348,-3.7324,-3.7754,-3.8535,-3.9512,-3.9785,-4.0312,-4.0918,-4.1113,-4.1172,-4.1172,-4.1172,-4.1172,-4.1172,-4.1172,-4.1172,-4.1289,-4.1875,-4.2226,-4.2558,-4.3164,-4.3516,-4.375,-4.3945,-4.2744,-4.1155,-3.9892,-3.7296,-3.4966,-3.3497,-3.2873,-3.2545,-3.2545,-3.3013,-3.3414,-3.3414,-3.3414,-3.3414,-3.3414,-3.3414,-3.3414,-3.3414,-3.3414,-3.3414,-3.3414,-3.3855,-3.4189,-3.4309,-3.475,-3.507,-3.5191,-3.5191,-3.5191,-3.5191,-3.5191,-3.5191,-3.5191,-3.5364,-3.5364,-3.5191,-3.5538,-3.5525,-3.5191,-3.5191,-3.5351,-4.7309,-4.7788,-4.8117,-4.7459,-4.7788,-4.8297,-4.8297,-4.8297,-4.8476,-4.9134,-4.8895,0.0,0.0,0.0,-4.5338,-4.4165,0.0,-4.1172,-4.0105,-4.0124,-4.045,-4.0852,-4.1153,-4.1605,-4.2308,-4.1678,-4.1523,-4.2055,-4.0881,-4.0669,-4.2179,-3.9152,-3.7558,-3.7932,-3.4697,-3.2617,-3.1875,-3.207,-3.207,-3.1875,-3.25,-3.291,-3.3164,-3.3789,-3.4434,-3.5098,-3.5859,-3.668,-3.75,-3.793,-3.8535,-3.9258,-3.9726,-4.0351,-4.1016,-4.1133,-4.1172,-4.1172,-4.1172,-4.1172,-4.1172,-4.1172,-4.125,-4.1426,-4.1836,-4.2266,-4.2695,-4.3125,-4.3476,-4.3565,-4.2997,-4.1647,-3.972,-3.7501,-3.5532,-3.3987,-3.2151,-3.2251,-3.2666,-3.2666,-3.3066,-3.3414,-3.3414,-3.3414,-3.3414,-3.3414,-3.3414,-3.3414,-3.3414,-3.3414,-3.3414,-3.3414,-3.3881,-3.4229,-3.4309,-3.479,-3.511,-3.5191,-3.5191,-3.5191,-3.5191,-3.5191,-3.5191,-3.5191,-3.5404,-3.5404,-3.5191,-3.5618,-3.5618,-3.5204,-3.5284,-3.5471,-4.7309,-4.7788,-4.8117,-4.7459,-4.7788,-4.8297,-4.8297,-4.8297,-4.8476,-4.9134,-4.9254,-4.9224,-4.9224,-4.7724,-4.6109,-4.533,-4.3202,0.0,0.0,-4.0049,-3.9722,-3.9747,-4.0701,-4.1756,-4.2861,-4.2961,-4.3212,-4.3626,-4.3175,-4.335,-4.4427,-4.0924,-3.8819,-3.8918,-3.5314,-3.3184,-3.2754,-3.2363,-3.2363,-3.2754,-3.2793,-3.3223,-3.4023,-3.4062,-3.4766,-3.5996,-3.6445,-3.7129,-3.793,-3.8379,-3.8809,-3.9258,-3.9726,-4.0156,-4.0586,-4.1016,-4.1172,-4.1172,-4.1172,-4.1172,-4.1172,-4.1172,-4.1445,-4.1855,-4.2285,-4.2715,-4.3144,-4.3574,-4.3691,-4.3272,-4.1275,-3.9391,-3.729,-3.5304,-3.3497,-3.2091,-3.2091,-3.2545,-3.2959,-3.2959,-3.32,-3.3414,-3.3414,-3.3414,-3.3414,-3.3414,-3.3414,-3.3414,-3.3414,-3.3414,-3.3414,-3.3414,-3.3708,-3.4015,-3.4295,-3.4603,-3.4897,-3.5177,-3.5191,-3.5191,-3.5191,-3.5191,-3.5191,-3.5191,-3.5204,-3.5204,-3.5191,-3.5217,-3.5217,-3.5204,-3.5485,-3.5778,-4.7848,-4.8446,-4.8775,-4.8117,-4.8446,-4.8835,-4.8386,-4.8955,-4.9643,-4.9853,-5.0272,-5.0421,-5.0002,-4.8278,-4.6509,-4.5038,-4.3283,-4.1615,0.0,-4.0124,-4.0375,-4.0752,-4.1103,-4.163,-4.2359,-4.276,-4.3212,-4.3765,-4.3639,-4.3689,-4.4066,-4.2184,-4.0375,-3.8492,-3.6576,-3.4713,-3.2793,-3.3223,-3.3359,-3.3223,-3.3789,-3.4199,-3.4492,-3.4805,-3.5332,-3.6055,-3.6777,-3.7402,-3.7988,-3.8691,-3.9062,-3.9277,-4.0019,-4.0391,-4.0586,-4.1016,-4.1172,-4.1172,-4.1172,-4.1172,-4.1172,-4.1172,-4.1465,-4.1836,-4.1973,-4.2519,-4.3105,-4.3242,-4.2493,-4.156,-4.0836,-3.8174,-3.5607,-3.4815,-3.3168,-3.1864,-3.2064,-3.2412,-3.2746,-3.2946,-3.3213,-3.3414,-3.3414,-3.3414,-3.3414,-3.3414,-3.3414,-3.3414,-3.3414,-3.3414,-3.3414,-3.3414,-3.3694,-3.4002,-3.4295,-3.4776,-3.5097,-3.5191,-3.5191,-3.5191,-3.5191,-3.5191,-3.5191,-3.5191,-3.5378,-3.5391,-3.5191,-3.5591,-3.5578,-3.5204,-3.5698,-3.5979,-4.7818,-4.8237,-4.8506,-4.8327,-4.8596,-4.8925,-4.8955,-4.9643,-5.0301,-5.0541,-5.093,-5.0892,-5.0041,-4.8639,-4.6803,-4.4535,-4.3172,-4.1771,0.0,-4.0174,-4.0727,-4.1279,-4.1505,-4.1856,-4.2384,-4.276,-4.3037,-4.3212,-4.3388,-4.3514,-4.3514,-4.2136,-4.0508,-3.8761,-3.6979,-3.5053,-3.3262,-3.3809,-3.3926,-3.3672,-3.4355,-3.4863,-3.5176,-3.5488,-3.6016,-3.6738,-3.7285,-3.7851,-3.8418,-3.8984,-3.9297,-3.9512,-4.0234,-4.0527,-4.0586,-4.1016,-4.1172,-4.1172,-4.1172,-4.1172,-4.1191,-4.1348,-4.168,-4.2051,-4.2207,-4.2734,-4.3195,-4.264,-4.1619,-4.0446,-3.9089,-3.6765,-3.4522,-3.3729,-3.2716,-3.1904,-3.2198,-3.2492,-3.2786,-3.308,-3.328,-3.3414,-3.3414,-3.3414,-3.3414,-3.3414,-3.3414,-3.3414,-3.3414,-3.3414,-3.3414,-3.3414,-3.3587,-3.3881,-3.4282,-3.4857,-3.5191,-3.5191,-3.5191,-3.5191,-3.5191,-3.5191,-3.5297,-3.5498,-3.5485,-3.5485,-3.5511,-3.5672,-3.5565,-3.5204,-3.5698,-3.5979]}]]